[[{"header":{"parameterUnit":"m.s-1","parameterCategory":1,"la1":30.6,"la2":28.766,"lo1":-90.7593,"lo2":-88.6598,"dy":0.0162,"dx":0.0183,"nx":116,"ny":114,"refTime":"2023-03-03T06:00:00:Z","depth":0,"parameterNumber":2,"parameterNumberName":"U-component_of_WINDS"},"data":[0.0,0.0,0.0,0.0,0.0,0.0,0.0,0.0,0.0,0.0,0.0,0.0,0.0,0.0,0.0,0.0,0.0,0.0,0.0,0.0,0.0,0.0,0.0,0.0,0.0,0.0,0.0,0.0,0.0,0.0,0.0,0.0,0.0,0.0,0.0,0.0,0.0,0.0,0.0,0.0,0.0,0.0,0.0,0.0,0.0,0.0,0.0,0.0,0.0,0.0,0.0,0.0,0.0,0.0,0.0,0.0,0.0,0.0,0.0,0.0,0.0,0.0,0.0,0.0,0.0,0.0,0.0,0.0,0.0,0.0,0.0,0.0,0.0,0.0,0.0,0.0,0.0,0.0,0.0,0.0,0.0,0.0,0.0,0.0,0.0,0.0,0.0,0.0,0.0,0.0,0.0,0.0,0.0,0.0,0.0,0.0,0.0,0.0,0.0,0.0,0.0,0.0,0.0,0.0,0.0,0.0,0.0,0.0,0.0,0.0,0.0,0.0,0.0,0.0,0.0,0.0,0.0,0.0,0.0,0.0,0.0,0.0,0.0,0.0,0.0,0.0,0.0,0.0,0.0,0.0,0.0,0.0,0.0,0.0,0.0,0.0,0.0,0.0,0.0,0.0,0.0,0.0,0.0,0.0,0.0,0.0,0.0,0.0,0.0,0.0,0.0,0.0,0.0,0.0,0.0,0.0,0.0,0.0,0.0,0.0,0.0,0.0,0.0,0.0,0.0,0.0,0.0,0.0,0.0,0.0,0.0,0.0,0.0,0.0,0.0,0.0,0.0,0.0,0.0,0.0,0.0,0.0,0.0,0.0,0.0,0.0,0.0,0.0,0.0,0.0,0.0,0.0,0.0,0.0,0.0,0.0,0.0,0.0,0.0,0.0,0.0,0.0,0.0,0.0,0.0,0.0,0.0,0.0,0.0,0.0,0.0,0.0,0.0,0.0,0.0,0.0,0.0,0.0,0.0,0.0,0.0,0.0,0.0,0.0,0.0,0.0,0.0,0.0,0.0,0.0,0.0,0.0,0.0,0.0,0.0,0.0,0.0,0.0,0.0,0.0,0.0,0.0,0.0,0.0,0.0,0.0,0.0,0.0,0.0,0.0,0.0,0.0,0.0,0.0,0.0,0.0,0.0,0.0,0.0,0.0,0.0,0.0,0.0,0.0,0.0,0.0,0.0,0.0,0.0,0.0,0.0,0.0,0.0,0.0,0.0,0.0,0.0,0.0,0.0,0.0,0.0,0.0,0.0,0.0,0.0,0.0,0.0,0.0,0.0,0.0,0.0,0.0,0.0,0.0,0.0,0.0,0.0,0.0,0.0,0.0,0.0,0.0,0.0,0.0,0.0,0.0,0.0,0.0,0.0,0.0,0.0,0.0,0.0,0.0,0.0,0.0,0.0,0.0,0.0,0.0,0.0,0.0,0.0,0.0,0.0,0.0,0.0,0.0,0.0,0.0,0.0,0.0,0.0,0.0,0.0,0.0,0.0,0.0,0.0,0.0,0.0,0.0,0.0,0.0,0.0,0.0,0.0,0.0,0.0,0.0,0.0,0.0,0.0,0.0,0.0,0.0,0.0,0.0,0.0,0.0,0.0,0.0,0.0,0.0,0.0,0.0,0.0,0.0,0.0,0.0,0.0,0.0,0.0,0.0,0.0,0.0,0.0,0.0,0.0,0.0,0.0,0.0,0.0,0.0,0.0,0.0,0.0,0.0,0.0,0.0,0.0,0.0,0.0,0.0,0.0,0.0,0.0,0.0,0.0,0.0,0.0,0.0,0.0,0.0,0.0,0.0,0.0,0.0,0.0,0.0,0.0,0.0,0.0,0.0,0.0,0.0,0.0,0.0,0.0,0.0,0.0,0.0,0.0,0.0,0.0,0.0,0.0,0.0,0.0,0.0,0.0,0.0,0.0,0.0,0.0,0.0,0.0,0.0,0.0,0.0,0.0,0.0,0.0,0.0,0.0,0.0,0.0,0.0,0.0,0.0,0.0,0.0,0.0,0.0,0.0,0.0,0.0,0.0,0.0,0.0,0.0,0.0,0.0,0.0,0.0,0.0,0.0,0.0,0.0,0.0,0.0,0.0,0.0,0.0,0.0,0.0,0.0,0.0,0.0,0.0,0.0,0.0,0.0,0.0,0.0,0.0,0.0,0.0,0.0,0.0,0.0,0.0,0.0,0.0,0.0,0.0,0.0,0.0,0.0,0.0,0.0,0.0,0.0,0.0,0.0,0.0,0.0,0.0,0.0,0.0,0.0,0.0,0.0,0.0,0.0,0.0,0.0,0.0,0.0,0.0,0.0,0.0,0.0,0.0,0.0,0.0,0.0,0.0,0.0,0.0,0.0,0.0,0.0,0.0,0.0,0.0,0.0,0.0,0.0,0.0,0.0,0.0,0.0,0.0,0.0,0.0,0.0,0.0,0.0,0.0,0.0,0.0,0.0,0.0,0.0,0.0,0.0,0.0,0.0,0.0,0.0,0.0,0.0,0.0,0.0,0.0,0.0,0.0,0.0,0.0,0.0,0.0,0.0,0.0,0.0,0.0,0.0,0.0,0.0,0.0,0.0,0.0,0.0,0.0,0.0,0.0,0.0,0.0,0.0,0.0,0.0,0.0,0.0,0.0,0.0,0.0,0.0,0.0,0.0,0.0,0.0,0.0,0.0,0.0,0.0,0.0,0.0,0.0,0.0,0.0,0.0,0.0,0.0,0.0,0.0,0.0,0.0,0.0,0.0,0.0,0.0,0.0,0.0,0.0,0.0,0.0,0.0,0.0,0.0,0.0,0.0,0.0,0.0,0.0,0.0,0.0,0.0,0.0,0.0,0.0,0.0,0.0,0.0,0.0,0.0,0.0,0.0,0.0,0.0,0.0,0.0,0.0,0.0,0.0,0.0,0.0,0.0,0.0,0.0,0.0,0.0,0.0,0.0,0.0,0.0,0.0,0.0,0.0,0.0,0.0,0.0,0.0,0.0,0.0,0.0,0.0,0.0,0.0,0.0,0.0,0.0,0.0,0.0,0.0,0.0,0.0,0.0,0.0,0.0,0.0,0.0,0.0,0.0,0.0,0.0,0.0,0.0,0.0,0.0,0.0,0.0,0.0,0.0,0.0,0.0,0.0,0.0,0.0,0.0,0.0,0.0,0.0,0.0,0.0,0.0,0.0,0.0,0.0,0.0,0.0,0.0,0.0,0.0,0.0,0.0,0.0,0.0,0.0,0.0,0.0,0.0,0.0,0.0,0.0,0.0,0.0,0.0,0.0,0.0,0.0,0.0,0.0,0.0,0.0,0.0,0.0,0.0,0.0,0.0,0.0,0.0,0.0,0.0,0.0,0.0,0.0,0.0,0.0,0.0,0.0,0.0,0.0,0.0,0.0,0.0,0.0,0.0,0.0,0.0,0.0,0.0,0.0,0.0,0.0,0.0,0.0,0.0,0.0,0.0,0.0,0.0,0.0,0.0,0.0,0.0,0.0,0.0,0.0,0.0,0.0,0.0,0.0,0.0,0.0,0.0,0.0,0.0,0.0,0.0,0.0,0.0,0.0,0.0,0.0,0.0,0.0,0.0,0.0,0.0,0.0,0.0,0.0,0.0,0.0,0.0,0.0,0.0,0.0,0.0,0.0,0.0,0.0,0.0,0.0,0.0,0.0,0.0,0.0,0.0,0.0,0.0,0.0,0.0,0.0,0.0,0.0,0.0,0.0,0.0,0.0,0.0,0.0,0.0,0.0,0.0,0.0,0.0,0.0,0.0,0.0,0.0,0.0,0.0,0.0,0.0,0.0,0.0,0.0,0.0,0.0,0.0,0.0,0.0,0.0,0.0,0.0,0.0,0.0,0.0,0.0,0.0,0.0,0.0,0.0,0.0,0.0,0.0,0.0,0.0,0.0,0.0,0.0,0.0,0.0,0.0,0.0,0.0,0.0,0.0,0.0,0.0,0.0,0.0,0.0,0.0,0.0,0.0,0.0,0.0,0.0,0.0,0.0,0.0,0.0,0.0,0.0,0.0,0.0,0.0,0.0,0.0,0.0,0.0,0.0,0.0,0.0,0.0,0.0,0.0,0.0,0.0,0.0,0.0,0.0,0.0,0.0,0.0,0.0,0.0,0.0,0.0,0.0,0.0,0.0,0.0,0.0,0.0,0.0,0.0,0.0,0.0,0.0,0.0,0.0,0.0,0.0,0.0,0.0,0.0,0.0,0.0,0.0,0.0,0.0,0.0,0.0,0.0,0.0,0.0,0.0,0.0,0.0,0.0,0.0,0.0,0.0,0.0,0.0,0.0,0.0,0.0,0.0,0.0,0.0,0.0,0.0,0.0,0.0,0.0,0.0,0.0,0.0,0.0,0.0,0.0,0.0,0.0,0.0,0.0,0.0,0.0,0.0,0.0,0.0,0.0,0.0,0.0,0.0,0.0,0.0,0.0,0.0,0.0,0.0,0.0,0.0,0.0,0.0,0.0,0.0,0.0,0.0,0.0,0.0,0.0,0.0,0.0,0.0,0.0,0.0,0.0,0.0,0.0,0.0,0.0,0.0,0.0,0.0,0.0,0.0,0.0,0.0,0.0,0.0,0.0,0.0,0.0,0.0,0.0,0.0,0.0,0.0,0.0,0.0,0.0,0.0,0.0,0.0,0.0,0.0,0.0,0.0,0.0,0.0,0.0,0.0,0.0,0.0,0.0,0.0,0.0,0.0,0.0,0.0,0.0,0.0,0.0,0.0,0.0,0.0,0.0,0.0,0.0,0.0,0.0,0.0,0.0,0.0,0.0,0.0,0.0,0.0,0.0,0.0,0.0,0.0,0.0,0.0,0.0,0.0,0.0,0.0,0.0,0.0,0.0,0.0,0.0,0.0,0.0,0.0,0.0,0.0,0.0,0.0,0.0,0.0,0.0,0.0,0.0,0.0,0.0,0.0,0.0,0.0,0.0,0.0,0.0,0.0,0.0,0.0,0.0,0.0,0.0,0.0,0.0,0.0,0.0,0.0,0.0,0.0,0.0,0.0,0.0,0.0,0.0,0.0,0.0,0.0,0.0,0.0,0.0,0.0,0.0,0.0,0.0,0.0,0.0,0.0,0.0,0.0,0.0,0.0,0.0,0.0,0.0,0.0,0.0,0.0,0.0,0.0,0.0,0.0,0.0,0.0,0.0,0.0,0.0,0.0,0.0,0.0,0.0,0.0,0.0,0.0,0.0,0.0,0.0,0.0,0.0,0.0,0.0,0.0,0.0,0.0,0.0,0.0,0.0,0.0,0.0,0.0,0.0,0.0,0.0,0.0,0.0,0.0,0.0,0.0,0.0,0.0,0.0,0.0,0.0,0.0,0.0,0.0,0.0,0.0,0.0,0.0,0.0,0.0,0.0,0.0,0.0,0.0,0.0,0.0,0.0,0.0,0.0,0.0,0.0,0.0,0.0,0.0,0.0,0.0,0.0,0.0,0.0,0.0,0.0,0.0,0.0,0.0,0.0,0.0,0.0,0.0,0.0,0.0,0.0,0.0,0.0,0.0,0.0,0.0,0.0,0.0,0.0,0.0,0.0,0.0,0.0,0.0,0.0,0.0,0.0,0.0,0.0,0.0,0.0,0.0,0.0,0.0,0.0,0.0,0.0,0.0,0.0,0.0,0.0,0.0,0.0,0.0,0.0,0.0,0.0,0.0,0.0,0.0,0.0,0.0,0.0,0.0,0.0,0.0,0.0,0.0,0.0,0.0,0.0,0.0,0.0,0.0,0.0,0.0,0.0,0.0,0.0,0.0,0.0,0.0,0.0,0.0,0.0,0.0,0.0,0.0,0.0,0.0,0.0,0.0,0.0,0.0,0.0,0.0,0.0,0.0,0.0,0.0,0.0,0.0,0.0,0.0,0.0,0.0,0.0,0.0,0.0,0.0,0.0,0.0,0.0,0.0,0.0,0.0,0.0,0.0,0.0,0.0,0.0,0.0,0.0,0.0,0.0,0.0,0.0,0.0,0.0,0.0,0.0,0.0,0.0,0.0,0.0,0.0,0.0,0.0,0.0,0.0,0.0,0.0,0.0,0.0,0.0,0.0,0.0,0.0,0.0,0.0,0.0,0.0,0.0,0.0,0.0,0.0,0.0,0.0,-0.9623,0.0,0.0,0.0,0.0,0.0,0.0,0.0,0.0,0.0,0.0,0.0,0.0,0.0,0.0,0.0,0.0,0.0,0.0,0.0,0.0,0.0,0.0,0.0,0.0,0.0,0.0,0.0,0.0,0.0,0.0,0.0,0.0,0.0,0.0,0.0,0.0,0.0,0.0,0.0,0.0,0.0,0.0,0.0,0.0,0.0,0.0,0.0,0.0,0.0,0.0,0.0,0.0,0.0,0.0,0.0,0.0,0.0,0.0,0.0,0.0,0.0,0.0,0.0,0.0,0.0,0.0,0.0,0.0,0.0,0.0,0.0,0.0,0.0,0.0,0.0,0.0,0.0,0.0,0.0,0.0,0.0,0.0,0.0,0.0,0.0,0.0,0.0,0.0,0.0,0.0,0.0,0.0,0.0,0.0,0.0,0.0,0.0,0.0,0.0,0.0,0.0,0.0,0.0,0.0,0.0,0.0,0.0,0.0,0.0,0.0,0.0,0.0,0.0,0.0,0.0,0.0,-0.94,0.0,0.0,0.0,0.0,0.0,0.0,0.0,0.0,0.0,0.0,0.0,0.0,0.0,0.0,0.0,0.0,0.0,0.0,0.0,0.0,0.0,0.0,0.0,0.0,0.0,0.0,0.0,0.0,0.0,0.0,0.0,0.0,0.0,0.0,0.0,0.0,0.0,0.0,0.0,0.0,0.0,0.0,0.0,0.0,0.0,0.0,0.0,0.0,0.0,0.0,0.0,0.0,0.0,0.0,0.0,0.0,0.0,0.0,0.0,0.0,0.0,0.0,0.0,0.0,0.0,0.0,0.0,0.0,0.0,0.0,0.0,0.0,0.0,0.0,0.0,0.0,0.0,0.0,0.0,0.0,0.0,0.0,0.0,0.0,0.0,0.0,0.0,0.0,0.0,0.0,0.0,0.0,0.0,0.0,0.0,0.0,0.0,0.0,0.0,0.0,0.0,0.0,0.0,0.0,0.0,0.0,0.0,0.0,-0.9198,-0.9128,-0.9349,-0.8827,-0.8804,-0.9164,-0.9035,-0.9304,-0.9786,0.0,0.0,0.0,0.0,0.0,0.0,0.0,0.0,0.0,0.0,0.0,0.0,0.0,0.0,0.0,0.0,0.0,0.0,0.0,0.0,0.0,0.0,0.0,0.0,0.0,0.0,0.0,0.0,0.0,0.0,0.0,0.0,0.0,0.0,0.0,0.0,0.0,0.0,0.0,-1.3858,-1.3668,-1.3132,-1.2323,-1.288,0.0,0.0,0.0,0.0,0.0,0.0,0.0,0.0,0.0,0.0,0.0,0.0,0.0,0.0,0.0,0.0,0.0,0.0,0.0,0.0,0.0,0.0,0.0,0.0,0.0,0.0,0.0,0.0,0.0,0.0,0.0,0.0,0.0,0.0,0.0,0.0,0.0,0.0,0.0,0.0,0.0,0.0,0.0,-0.9368,-0.9688,0.0,0.0,0.0,0.0,0.0,0.0,0.0,0.0,0.0,0.0,0.0,0.0,0.0,-0.9899,-0.9786,-0.9593,-0.9514,-0.97,-0.9355,-0.9215,-0.9247,-0.9114,-0.9205,-0.9441,-0.9349,0.0,-0.9402,-0.9478,0.0,0.0,0.0,0.0,0.0,0.0,0.0,0.0,0.0,0.0,0.0,0.0,0.0,0.0,0.0,0.0,0.0,0.0,0.0,0.0,0.0,0.0,0.0,0.0,0.0,0.0,0.0,0.0,0.0,0.0,0.0,0.0,0.0,0.0,0.0,0.0,-1.3237,-1.316,-1.3191,-1.3022,-1.2608,-1.1977,-1.2255,-1.1997,-1.1443,-1.1818,0.0,0.0,0.0,0.0,0.0,0.0,0.0,0.0,0.0,0.0,0.0,0.0,0.0,0.0,0.0,0.0,0.0,0.0,0.0,0.0,0.0,0.0,0.0,0.0,0.0,0.0,0.0,0.0,0.0,0.0,0.0,0.0,0.0,0.0,0.0,0.0,0.0,0.0,0.0,-0.9404,-0.9524,-0.9846,-0.9835,-0.9921,0.0,0.0,0.0,0.0,0.0,0.0,0.0,0.0,0.0,-1.0217,-1.0533,-1.0503,-1.0111,-0.9577,-0.9355,-0.9393,-0.9291,-0.9281,-0.9416,-0.9416,-0.9487,-0.9696,-0.9656,-0.9673,-0.9691,-0.9539,-0.9897,-1.049,0.0,0.0,0.0,0.0,-0.9414,-0.9408,0.0,0.0,0.0,0.0,0.0,0.0,0.0,0.0,0.0,0.0,0.0,0.0,0.0,0.0,0.0,-1.5947,0.0,0.0,0.0,0.0,0.0,0.0,0.0,0.0,0.0,0.0,0.0,0.0,-1.2552,-1.2387,-1.2528,-1.2279,-1.2005,-1.1619,-1.1679,-1.1419,-1.0914,-1.1275,-1.1516,0.0,0.0,0.0,0.0,0.0,0.0,0.0,0.0,0.0,0.0,0.0,0.0,0.0,0.0,0.0,0.0,0.0,0.0,0.0,0.0,0.0,0.0,0.0,0.0,0.0,0.0,0.0,0.0,0.0,0.0,0.0,0.0,0.0,0.0,0.0,0.0,0.0,0.0,-0.9735,-0.9776,-1.0002,-1.0101,-1.0201,0.0,0.0,0.0,0.0,0.0,0.0,-1.0115,-1.0985,-1.1221,-1.049,-1.0901,-1.0923,-1.0378,-1.0166,-0.9947,-0.974,-0.994,-1.003,-1.0002,-1.0002,-1.0071,-1.0135,-1.0074,-1.0092,-1.0093,-0.972,-1.0126,-1.0976,-1.0089,-1.0366,-1.1122,-1.0164,-0.9753,-0.9688,0.0,0.0,0.0,0.0,0.0,0.0,0.0,0.0,0.0,0.0,0.0,0.0,0.0,0.0,-1.6814,-1.6309,-1.5636,-1.5377,0.0,0.0,0.0,0.0,0.0,0.0,0.0,0.0,0.0,-1.3004,-1.2584,-1.2265,-1.2047,-1.1587,-1.1189,-1.0867,-1.1044,-1.0785,-1.0213,-1.0964,-1.0954,-1.0423,0.0,0.0,0.0,0.0,0.0,0.0,0.0,0.0,0.0,0.0,0.0,0.0,0.0,0.0,0.0,0.0,0.0,0.0,0.0,0.0,0.0,0.0,0.0,0.0,0.0,0.0,0.0,0.0,0.0,0.0,0.0,0.0,0.0,0.0,0.0,0.0,0.0,0.0,0.0,-1.0235,-1.0565,0.0,0.0,0.0,0.0,-1.1927,-1.1903,-1.1796,-1.1761,-1.11,-1.0635,-1.0398,-1.0435,-1.0384,-1.0182,-1.1611,-1.1951,-1.1218,-1.1809,-1.1836,-1.1227,-1.1227,-1.1146,-1.0975,-1.0897,-1.0712,-1.0407,-0.9884,-0.9858,-1.0152,-1.0221,-1.0441,-1.0667,-1.0591,-1.0309,-1.0095,0.0,0.0,0.0,0.0,0.0,0.0,0.0,0.0,0.0,0.0,0.0,0.0,0.0,-1.6807,-1.6396,-1.5709,-1.5437,-1.5119,-1.4809,0.0,0.0,0.0,0.0,0.0,0.0,0.0,-1.2391,-1.1836,-1.2079,-1.2007,-1.1602,-1.1918,-1.2073,-1.2026,-1.209,-1.171,-1.0971,-1.0864,-1.0679,-1.0482,-1.044,-1.0555,0.0,0.0,0.0,0.0,0.0,0.0,0.0,0.0,0.0,0.0,0.0,0.0,0.0,0.0,0.0,0.0,0.0,0.0,0.0,0.0,0.0,0.0,0.0,0.0,0.0,0.0,0.0,0.0,0.0,0.0,0.0,0.0,0.0,0.0,0.0,0.0,0.0,-1.0111,-1.0458,0.0,-1.1019,-1.1699,-1.1996,-1.1781,-1.1978,-1.1947,-1.1519,-1.166,-1.1957,-1.2465,-1.24,-1.2303,-1.2093,-1.2483,-1.2263,-1.1435,-1.1993,-1.2018,-1.1414,-1.1414,-1.1112,-1.0622,-1.0707,-1.0834,-1.0971,-1.0772,-1.0709,-1.0712,-1.0767,-1.0997,-1.1313,-1.0997,-1.084,-1.0761,0.0,0.0,0.0,0.0,0.0,0.0,0.0,0.0,0.0,0.0,0.0,-1.6972,-1.6929,-1.6539,-1.6083,-1.5579,-1.5266,-1.4914,-1.4519,0.0,0.0,0.0,0.0,0.0,0.0,-1.243,-1.2263,-1.1698,-1.2069,-1.2007,-1.1558,-1.203,-1.229,-1.2338,-1.2483,-1.2108,-1.1384,-1.0855,-1.049,-1.0202,-0.9789,-0.9702,-0.9841,0.0,0.0,0.0,0.0,0.0,0.0,0.0,0.0,0.0,0.0,0.0,0.0,0.0,0.0,0.0,0.0,0.0,0.0,0.0,0.0,0.0,0.0,0.0,0.0,0.0,0.0,0.0,0.0,0.0,0.0,0.0,0.0,0.0,0.0,0.0,-1.0178,-1.0622,-1.0943,-1.1207,-1.153,-1.2217,-1.2585,-1.2276,-1.2548,-1.2698,-1.2487,-1.2706,-1.3093,-1.3859,-1.3866,-1.3719,-1.3493,-1.3797,-1.346,-1.2426,-1.2839,-1.2629,-1.1939,-1.1798,-1.145,-1.0869,-1.0957,-1.1211,-1.1458,-1.1541,-1.1508,-1.151,-1.1473,-1.156,-1.1725,-1.1471,-1.1306,-1.1077,0.0,0.0,0.0,0.0,0.0,0.0,0.0,0.0,0.0,0.0,-1.601,-1.5956,-1.6905,-1.6312,-1.5844,-1.5944,-1.5209,-1.4799,-1.5061,-1.4257,0.0,0.0,0.0,0.0,-1.3148,-1.2674,-1.2502,-1.2669,-1.2669,-1.2328,-1.181,-1.183,-1.1796,-1.1665,-1.2067,-1.1836,-1.1223,-1.1088,-1.0482,-0.9547,-0.8788,-0.8697,-0.8999,0.0,0.0,0.0,0.0,0.0,0.0,0.0,0.0,0.0,0.0,0.0,0.0,0.0,0.0,0.0,0.0,0.0,0.0,0.0,0.0,0.0,0.0,0.0,0.0,0.0,0.0,0.0,0.0,0.0,0.0,0.0,0.0,0.0,-1.0666,-1.0808,-1.1054,-1.1712,-1.2093,-1.231,-1.2318,-1.2632,-1.3036,-1.3592,-1.3622,-1.4055,-1.486,-1.4186,-1.4023,-1.4521,-1.4521,-1.4366,-1.4072,-1.5475,-1.5561,-1.4245,-1.436,-1.3888,-1.2896,-1.2523,-1.2135,-1.1699,-1.1791,-1.1791,-1.1699,-1.1957,-1.2118,-1.2401,-1.2249,-1.2123,-1.195,-1.1944,-1.1623,-1.1134,0.0,0.0,0.0,0.0,0.0,0.0,0.0,0.0,0.0,0.0,-1.5973,-1.5892,-1.7014,-1.6423,-1.5768,-1.5367,-1.5142,-1.4822,-1.4413,0.0,0.0,0.0,0.0,0.0,-1.2487,-1.2574,-1.2498,-1.2244,-1.2962,-1.2889,-1.2041,-1.2962,-1.3102,-1.2567,-1.2807,-1.2464,-1.1684,-1.1422,-1.0788,-0.9882,-0.9061,-0.8724,-0.8823,0.0,0.0,0.0,0.0,0.0,0.0,0.0,0.0,0.0,0.0,0.0,0.0,0.0,0.0,0.0,0.0,0.0,0.0,0.0,0.0,0.0,0.0,0.0,0.0,0.0,0.0,0.0,0.0,0.0,0.0,0.0,0.0,-1.0434,-1.0416,-1.0666,-1.0907,-1.1278,-1.1951,-1.2458,-1.2513,-1.3247,-1.3999,-1.4498,-1.4597,-1.4888,-1.5454,-1.4841,-1.4896,-1.5724,-1.5498,-1.5248,-1.4992,-1.5831,-1.5707,-1.4734,-1.5159,-1.4822,-1.3878,-1.3721,-1.2853,-1.1428,-1.1413,-1.1705,-1.2146,-1.2049,-1.2203,-1.2601,-1.2554,-1.2493,-1.2404,-1.2067,-1.164,-1.1218,0.0,0.0,0.0,0.0,0.0,0.0,0.0,0.0,0.0,0.0,-1.5781,-1.5763,-1.6873,-1.6163,-1.5457,-1.5108,-1.4598,-1.4027,-1.3518,0.0,0.0,0.0,0.0,-1.2201,-1.2557,-1.2913,-1.299,-1.2675,-1.3936,-1.3907,-1.2762,-1.3728,-1.3681,-1.2735,-1.2949,-1.255,-1.1696,-1.1427,-1.0832,-1.0089,-0.946,-0.8982,-0.8777,-0.9453,-0.9296,-0.8851,-0.9906,-0.9776,-0.914,-0.9493,0.0,0.0,0.0,0.0,0.0,0.0,0.0,0.0,0.0,0.0,0.0,0.0,0.0,0.0,0.0,0.0,0.0,0.0,0.0,0.0,0.0,0.0,0.0,0.0,-1.0718,-1.112,-1.1152,-1.1324,-1.1554,-1.1958,-1.2416,-1.2901,-1.3238,-1.384,-1.4349,-1.4759,-1.4888,-1.5055,-1.5498,-1.5111,-1.5173,-1.5952,-1.5772,-1.562,-1.5598,-1.604,-1.602,-1.5561,-1.5579,-1.515,-1.4349,-1.3919,-1.2872,0.0,-1.1311,-1.1613,-1.2141,-1.2049,-1.2289,0.0,0.0,0.0,0.0,0.0,-1.1241,-1.0982,0.0,0.0,0.0,0.0,0.0,0.0,0.0,0.0,0.0,0.0,0.0,-1.5672,-1.6604,-1.578,-1.513,-1.5028,-1.3937,-1.3073,0.0,0.0,0.0,-1.3237,-1.2313,-1.2152,-1.3004,-1.3488,-1.366,-1.3523,-1.4984,-1.5006,-1.3608,-1.4177,-1.377,-1.2529,-1.2715,-1.2363,-1.1545,-1.1331,-1.0863,-1.0342,-0.9966,-0.9435,-0.9,-0.9204,-0.898,-0.8594,-0.8994,-0.9283,-0.939,-0.9005,0.0,0.0,0.0,0.0,0.0,0.0,0.0,0.0,0.0,0.0,0.0,0.0,0.0,0.0,0.0,0.0,0.0,0.0,0.0,0.0,0.0,0.0,0.0,0.0,-1.1113,-1.1766,-1.2333,-1.2482,-1.2729,-1.3289,-1.3238,-1.3439,-1.4283,-1.4373,-1.4523,-1.4729,-1.4751,-1.4877,-1.5313,0.0,0.0,0.0,0.0,-1.571,-1.5934,-1.6238,-1.6409,-1.6516,-1.5837,-1.5308,-1.4918,-1.369,-1.2589,-1.1566,-1.1402,-1.1613,-1.2043,-1.2043,-1.2289,-1.2619,-1.2619,-1.2272,-1.1752,-1.0895,-1.0549,-1.0463,0.0,0.0,0.0,0.0,0.0,0.0,0.0,0.0,0.0,-1.6257,-1.5748,-1.5711,-1.676,-1.6163,-1.5369,-1.4609,-1.431,-1.3696,0.0,0.0,-1.2244,-1.2065,-1.208,-1.2251,-1.2605,-1.3379,-1.373,-1.3661,-1.4727,-1.4656,-1.353,-1.3922,-1.3531,-1.2529,-1.2774,-1.248,-1.1855,-1.187,-1.1502,-1.0895,-1.0501,-1.0214,-1.0028,-1.0187,-0.9931,-0.9527,-0.9945,-0.9486,-0.8695,-0.9059,-0.9375,-0.9605,-0.9576,0.0,0.0,0.0,0.0,0.0,0.0,0.0,0.0,0.0,0.0,0.0,0.0,0.0,0.0,0.0,0.0,0.0,0.0,0.0,0.0,-1.1488,-1.2277,-1.2861,-1.305,-1.3566,-1.3784,-1.3491,-1.3785,-1.4178,-1.4418,-1.4833,-1.5083,-1.5158,-1.5005,-1.5035,-1.5496,-1.5355,0.0,-1.58,-1.5924,-1.6062,-1.6293,-1.6363,-1.6445,-1.6382,0.0,0.0,-1.6285,-1.4608,-1.3594,-1.3115,-1.21,-1.1952,-1.2283,-1.2283,-1.2277,-1.21,-1.21,-1.1585,-1.0809,-1.0636,-1.0381,-1.0125,0.0,0.0,0.0,0.0,0.0,0.0,0.0,0.0,0.0,0.0,-1.5673,-1.566,-1.6717,-1.6082,-1.5423,-1.4989,-1.4075,0.0,0.0,-1.209,-1.1979,-1.1623,-1.1998,-1.2348,-1.2626,-1.3429,-1.3841,-1.3836,-1.4696,-1.4471,-1.3372,-1.3641,-1.3271,-1.2274,-1.2274,-1.2126,-1.1796,-1.1722,-1.1552,-1.1351,-1.1023,-1.0885,-1.0855,-1.0609,-1.0239,-0.997,-1.0378,-1.0113,-0.9541,-0.9463,-0.9843,-1.0204,-0.9743,-1.0057,-1.0591,0.0,0.0,0.0,0.0,0.0,0.0,0.0,0.0,0.0,0.0,0.0,0.0,0.0,0.0,-0.9567,0.0,0.0,-1.1974,-1.2542,-1.3063,-1.3508,-1.4004,-1.4289,-1.4291,-1.3829,-1.4101,-1.451,-1.4907,-1.4998,-1.5087,-1.5255,-1.5168,-1.5198,-1.527,-1.5255,-1.5408,-1.5561,-1.5736,-1.5909,-1.6137,-1.6308,-1.6558,-1.6894,-1.6788,-1.687,-1.7123,-1.5922,-1.5144,-1.4657,-1.3613,-1.3124,-1.3039,-1.2443,-1.2015,-1.1671,-1.1408,-1.0977,-1.0549,-1.0381,-1.0207,-1.0038,0.0,0.0,0.0,0.0,0.0,0.0,0.0,0.0,0.0,0.0,-1.5499,-1.5513,-1.6434,-1.5967,-1.5586,0.0,0.0,0.0,0.0,-1.1689,-1.166,-1.1442,-1.1958,-1.2375,-1.2637,-1.3478,-1.3951,-1.4045,-1.4592,-1.4358,-1.3431,-1.3431,-1.2984,-1.2175,-1.1927,-1.1778,-1.1746,-1.1541,-1.1545,-1.169,-1.1438,-1.1445,-1.1452,-1.0871,-1.049,-1.0311,-1.0638,-1.0739,-1.0578,-0.9996,-1.0394,-1.0997,-1.0035,-1.0051,-1.0419,-1.0371,-1.0335,0.0,0.0,0.0,0.0,0.0,0.0,0.0,0.0,0.0,-0.9051,-0.9193,-0.9764,-1.0422,-1.1117,-1.2093,-1.2976,-1.3447,-1.3716,-1.4109,-1.4797,-1.4772,-1.4539,-1.431,-1.4554,-1.4914,-1.5315,-1.5131,-1.5043,-1.5264,-1.5242,-1.5153,-1.4948,-1.5175,-1.5328,-1.5335,-1.5564,-1.5756,-1.5901,-1.6254,-1.664,-1.7229,-1.6952,-1.7025,-1.744,-1.699,-1.6472,-1.5688,-1.4866,-1.4203,-1.3626,-1.2522,-1.1757,-1.1241,-1.0722,-1.0463,-1.0463,-1.0125,-1.0038,-1.0038,0.0,0.0,0.0,0.0,0.0,0.0,0.0,0.0,0.0,0.0,0.0,0.0,0.0,0.0,0.0,0.0,0.0,0.0,-1.2451,-1.1892,-1.1437,-1.1255,-1.195,-1.232,-1.2169,-1.3474,-1.4185,-1.4268,-1.4175,-1.4133,-1.4143,-1.3221,-1.2675,-1.2431,-1.2274,-1.2076,-1.1877,-1.1972,-1.1884,-1.1718,-1.1654,-1.1592,-1.1506,-1.1399,-1.1166,-1.0819,-1.0989,-1.0838,-1.0488,-1.0432,-1.0546,-1.0672,-1.0094,-0.9989,-1.015,-1.02,0.0,-1.0178,-1.0391,-1.0445,-1.0505,-1.0606,-1.0064,-0.9479,0.0,0.0,-0.9059,-1.0167,-1.0684,-1.1276,-1.2226,-1.3119,-1.3738,-1.3838,-1.433,-1.479,-1.4867,-1.482,-1.497,-1.5351,-1.542,-1.5491,-1.5651,-1.5419,-1.5294,-1.535,-1.4882,-1.4756,-1.524,-1.5255,-1.5416,-1.5576,-1.5873,-1.6034,-1.6108,-1.6296,-1.6476,-1.6558,-1.704,-1.7122,-1.682,-1.7177,-1.6739,-1.5643,-1.4977,-1.4314,-1.3646,-1.2699,-1.1843,-1.1241,-1.0381,-1.0038,-1.0038,-1.0038,-1.0038,-1.0038,0.0,0.0,0.0,0.0,0.0,0.0,0.0,0.0,0.0,0.0,0.0,0.0,0.0,0.0,0.0,0.0,0.0,0.0,-1.263,-1.2219,-1.1681,-1.0954,-1.1589,-1.1933,-1.1953,-1.2669,-1.33,-1.3681,-1.3521,-1.3432,-1.3348,-1.284,-1.248,-1.2274,-1.2026,-1.1927,-1.1877,-1.1977,-1.1968,-1.1908,-1.1908,-1.1917,-1.1789,-1.1418,-1.1141,-1.1059,-1.1338,-1.0978,0.0,0.0,-1.0647,-1.0293,-1.0049,-0.9908,-0.9851,-0.9994,-1.0159,0.0,-1.0388,-1.0332,-1.0191,0.0,-0.9997,-0.9799,-1.0084,-0.9953,-0.9883,-1.0215,-1.1066,-1.1905,-1.2349,-1.3485,-1.4348,0.0,-1.4762,-1.5091,-1.5567,-1.5498,-1.5636,-1.6152,-1.5932,-1.5702,-1.5686,-1.5754,-1.5604,-1.5115,-1.5285,-1.5322,-1.5102,-1.5523,-1.5792,-1.5881,-1.6167,-1.6319,-1.6409,-1.6566,-1.664,-1.6804,-1.6902,-1.7066,-1.7066,-1.704,-1.6786,-1.6476,-1.5809,-1.5061,-1.4126,-1.2681,-1.166,-1.0809,-1.0033,-0.9777,-0.9777,-0.9951,-1.0038,-1.0038,0.0,0.0,0.0,0.0,0.0,0.0,0.0,0.0,0.0,0.0,0.0,0.0,0.0,0.0,0.0,0.0,0.0,0.0,0.0,-1.271,-1.1969,-1.0919,-1.1265,-1.1531,-1.165,-1.1992,-1.2575,-1.336,-1.3125,-1.3037,-1.3086,-1.2675,-1.2431,-1.2332,-1.1977,-1.1877,-1.1977,-1.1977,-1.2026,-1.2067,-1.1957,-1.1935,-1.1972,-1.1223,-1.0966,-1.108,-1.1151,-1.0779,0.0,0.0,-1.0392,-0.9979,-0.9891,-0.9697,-0.9608,-0.9917,-1.0312,-1.0668,-1.0598,0.0,0.0,-1.0119,-1.0225,-1.0428,-1.0982,-1.0885,-1.0792,-1.1048,-1.1703,-1.2351,-1.2824,-1.3862,-1.4728,-1.499,-1.4961,-1.5122,-1.5771,-1.5764,-1.5833,-1.6171,-1.5895,-1.5668,-1.5676,-1.574,-1.5556,-1.4997,-1.5587,-1.5799,-1.5323,-1.5868,-1.6162,-1.6162,-1.6402,-1.6566,-1.6648,-1.6648,-1.6812,-1.6976,-1.678,-1.6862,-1.7229,-1.6862,-1.678,-1.6976,-1.6476,-1.5636,-1.4538,-1.3093,-1.1735,-1.0549,-1.0033,-0.9689,-0.9602,-0.9864,-1.0038,-1.0038,0.0,0.0,0.0,0.0,0.0,0.0,0.0,0.0,0.0,0.0,0.0,0.0,0.0,0.0,0.0,0.0,0.0,0.0,0.0,-1.3351,-1.2189,-1.1318,-1.1226,-1.1229,-1.1299,-1.1693,-1.2512,-1.37,-1.3027,-1.3175,-1.4012,-1.3007,-1.2627,-1.2832,-1.2323,-1.2076,-1.2076,-1.2076,-1.2076,-1.2039,-1.1511,-1.1544,-1.1787,-1.0855,-1.0672,-1.082,-1.0086,0.0,0.0,0.0,-0.9731,-0.976,-0.9568,-0.9453,0.0,-1.0098,-1.0794,0.0,0.0,0.0,-1.0853,-1.07,-1.0997,-1.1339,-1.1659,-1.1382,-1.1594,-1.3348,-1.2922,-1.2748,-1.4261,-1.4553,-1.4569,-1.4657,-1.4804,-1.4883,-1.4906,-1.5042,-1.5095,-1.518,-1.5095,-1.532,0.0,-1.5405,-1.5146,-1.529,-1.5503,-1.5809,-1.6363,-1.6394,-1.6394,-1.6394,-1.6566,-1.6566,-1.6394,-1.6566,-1.673,-1.673,-1.673,-1.673,-1.673,-1.673,-1.673,-1.673,-1.6648,-1.5816,-1.4398,-1.3873,-1.2425,-1.0549,-1.0381,-1.0038,-0.9602,-0.9864,-1.0038,-1.0038,0.0,0.0,0.0,0.0,0.0,0.0,0.0,0.0,0.0,0.0,0.0,0.0,0.0,0.0,0.0,0.0,0.0,0.0,0.0,-1.3901,-1.278,-1.1813,-1.1153,-1.0804,-1.0837,-1.1176,-1.1713,-1.2464,-1.2706,-1.2851,-1.2918,-1.2635,-1.2431,-1.2224,-1.1977,-1.1828,-1.1828,-1.1828,-1.1828,-1.181,-1.1635,-1.1509,-1.1283,-1.0573,-1.0496,-1.0695,0.0,0.0,0.0,0.0,0.0,0.0,-0.9294,0.0,0.0,-1.1132,0.0,0.0,0.0,0.0,-1.1146,-1.1267,-1.1791,-1.2439,-1.3093,-1.294,-1.2843,-1.3455,-1.3421,-1.3502,-1.4098,-1.4511,-1.4784,-1.5092,-1.5008,-1.4961,-1.5187,-1.5165,-1.5227,-1.5613,-1.5255,0.0,0.0,0.0,0.0,-1.588,-1.6186,-1.6285,-1.6237,-1.6319,-1.6394,-1.6394,-1.6476,-1.6566,-1.6566,-1.6648,-1.673,-1.673,-1.673,-1.673,-1.673,-1.673,-1.673,-1.673,-1.673,-1.6064,-1.4977,-1.4112,-1.2747,-1.1219,-1.0544,-1.0033,-0.9602,-0.9864,-1.0038,-1.0038,0.0,0.0,0.0,0.0,0.0,0.0,0.0,0.0,0.0,0.0,0.0,0.0,0.0,0.0,0.0,0.0,0.0,0.0,0.0,0.0,-1.3403,-1.2318,-1.1584,-1.1064,-1.0889,-1.0927,-1.1268,-1.1846,-1.2368,-1.258,-1.2569,-1.2431,-1.2274,-1.2076,-1.1769,-1.1628,-1.1619,-1.1527,-1.1416,-1.1332,-1.1259,-1.108,-1.0919,-1.0339,-1.031,0.0,0.0,0.0,0.0,0.0,0.0,0.0,0.0,0.0,0.0,0.0,0.0,0.0,0.0,-1.1311,-1.151,-1.1791,-1.2406,-1.3206,-1.4182,-1.4161,-1.3995,-1.4257,-1.4076,-1.4061,-1.4337,-1.4778,-1.5146,-1.5384,-1.532,-1.5275,-1.5142,-1.5447,-1.571,-1.5583,-1.5667,-1.6076,0.0,0.0,0.0,-1.6365,-1.6693,-1.6738,-1.6335,-1.6402,-1.6476,-1.6476,-1.6476,-1.6566,-1.673,-1.673,-1.673,-1.673,-1.6812,-1.6812,-1.673,-1.673,-1.673,-1.673,-1.673,-1.6229,-1.5311,-1.4615,-1.3256,-1.1552,-1.1063,-1.0381,-0.9602,-0.9864,-1.0038,-1.0125,0.0,0.0,0.0,0.0,0.0,0.0,0.0,0.0,0.0,0.0,0.0,0.0,0.0,0.0,0.0,0.0,0.0,0.0,0.0,0.0,0.0,-1.285,-1.2402,-1.1948,-1.1398,-1.0961,-1.1137,-1.1928,-1.1947,-1.2318,-1.2929,-1.2335,-1.2206,-1.2431,-1.1778,-1.1528,-1.1501,-1.1239,-1.1024,-1.0746,-1.0489,-1.0529,-1.0677,-1.0246,0.0,0.0,0.0,0.0,0.0,0.0,0.0,0.0,0.0,0.0,0.0,0.0,0.0,-1.2672,-1.162,-1.1633,-1.2011,-1.234,-1.2838,-1.3638,-1.4964,-1.4991,-1.4937,-1.5575,-1.4967,-1.446,0.0,0.0,-1.5645,-1.5451,-1.5713,-1.563,-1.4737,-1.5889,-1.6346,0.0,0.0,0.0,0.0,0.0,0.0,-1.6697,0.0,-1.7229,-1.6738,-1.673,-1.673,-1.673,-1.673,-1.673,-1.673,-1.673,-1.6738,-1.673,-1.6976,-1.6976,-1.673,-1.6738,-1.6738,-1.673,-1.6738,-1.6229,-1.5477,-1.5477,-1.4021,-1.1809,-1.2003,-1.1154,-0.9772,-0.9951,-1.0212,-1.0294,0.0,0.0,0.0,0.0,0.0,0.0,0.0,0.0,0.0,0.0,0.0,0.0,0.0,0.0,0.0,0.0,0.0,0.0,0.0,0.0,0.0,0.0,0.0,0.0,0.0,0.0,0.0,0.0,0.0,-1.1655,-1.1874,-1.1731,-1.1792,-1.2026,-1.1877,-1.1778,-1.1819,-1.1818,-1.1822,-1.1746,0.0,-1.1357,-1.112,0.0,0.0,0.0,0.0,0.0,0.0,0.0,0.0,0.0,0.0,0.0,-1.0802,0.0,0.0,-1.1558,-1.0938,-1.1723,-1.2687,-1.2622,-1.366,-1.4868,-1.5584,-1.5605,-1.552,-1.5812,-1.5641,-1.5524,0.0,0.0,0.0,-1.5361,-1.5334,0.0,-1.5056,-1.5388,0.0,-1.6589,0.0,-1.7456,-1.8371,-1.8234,0.0,0.0,-1.7496,-1.7229,-1.6738,-1.673,-1.673,-1.673,-1.673,-1.673,-1.673,-1.673,-1.6812,-1.6976,-1.6894,-1.6894,-1.6976,-1.6812,-1.6812,-1.6976,-1.6812,-1.673,-1.6812,-1.6221,-1.5455,-1.4518,-1.3438,-1.2766,-1.2163,-1.089,-1.0722,-1.0982,0.0,0.0,0.0,0.0,0.0,0.0,0.0,0.0,0.0,0.0,0.0,0.0,0.0,0.0,0.0,0.0,0.0,0.0,0.0,0.0,0.0,0.0,0.0,0.0,0.0,0.0,0.0,0.0,0.0,0.0,0.0,-1.1489,-1.1519,-1.1762,-1.1664,-1.1657,-1.181,-1.1826,0.0,0.0,0.0,0.0,0.0,0.0,0.0,0.0,0.0,0.0,0.0,0.0,0.0,-1.0418,-1.1177,-1.1286,-1.1282,-1.2084,0.0,-1.1927,-1.1752,-1.2282,-1.2997,-1.3234,-1.4135,-1.5118,-1.5748,-1.5978,-1.6019,-1.608,-1.6143,0.0,-1.6097,0.0,0.0,0.0,0.0,0.0,-1.614,-1.6455,-1.6835,0.0,-1.7471,0.0,-1.8601,-1.8629,-1.8482,0.0,-1.7878,-1.7383,-1.673,-1.673,-1.673,-1.673,-1.673,-1.673,-1.6894,-1.6976,-1.7057,-1.7131,-1.7057,-1.6968,-1.6944,-1.6804,-1.6812,-1.6894,0.0,-1.7057,-1.7229,-1.6812,-1.6296,-1.5613,-1.4782,-1.4105,-1.3516,-1.2498,-1.1906,-1.1574,0.0,0.0,0.0,0.0,0.0,0.0,0.0,0.0,0.0,0.0,0.0,0.0,0.0,0.0,0.0,0.0,0.0,0.0,0.0,0.0,0.0,0.0,0.0,0.0,0.0,0.0,0.0,0.0,0.0,0.0,0.0,0.0,0.0,0.0,0.0,0.0,0.0,0.0,0.0,0.0,0.0,0.0,0.0,0.0,0.0,0.0,0.0,0.0,0.0,0.0,-1.1384,-1.0695,-1.1246,-1.1576,-1.1912,-1.2513,-1.2779,-1.294,-1.2958,-1.2994,-1.3221,-1.3839,-1.4439,-1.5017,-1.5766,-1.6144,-1.6374,-1.6374,0.0,-1.6358,-1.6343,-1.7044,-1.7419,-1.696,0.0,-1.8471,-1.7434,-1.7929,-1.8289,-1.7819,-1.8027,-1.8322,-1.8672,-1.8755,-1.8775,-1.8594,-1.8256,-1.7708,-1.6894,-1.673,-1.673,-1.673,-1.6812,-1.6894,-1.7139,-1.731,-1.7302,-1.7204,-1.7302,-1.7123,-1.6748,-1.6714,-1.6738,-1.6812,0.0,0.0,-1.7221,-1.7383,-1.6878,-1.6026,-1.5869,-1.5274,-1.4434,-1.4183,-1.3419,-1.2407,0.0,0.0,0.0,0.0,0.0,0.0,0.0,0.0,0.0,0.0,-1.597,-1.5883,0.0,0.0,0.0,0.0,0.0,0.0,0.0,0.0,0.0,0.0,0.0,0.0,0.0,0.0,0.0,0.0,0.0,0.0,0.0,0.0,0.0,0.0,0.0,0.0,0.0,0.0,0.0,0.0,0.0,0.0,0.0,0.0,0.0,0.0,0.0,0.0,0.0,0.0,-1.1386,-1.134,-1.1798,-1.1939,-1.1956,-1.2384,-1.2541,-1.2538,-1.2214,-1.3005,-1.3886,-1.3727,-1.4617,-1.5583,-1.5836,-1.6144,0.0,0.0,-1.6221,-1.6415,-1.6687,-1.681,-1.6836,-1.6837,0.0,0.0,0.0,0.0,-1.7884,0.0,0.0,0.0,0.0,0.0,0.0,0.0,0.0,-1.8371,-1.7789,-1.7057,-1.673,-1.673,-1.7212,-1.7375,-1.7139,-1.731,-1.7392,-1.7383,-1.7221,-1.7131,-1.7041,-1.6812,-1.6902,-1.731,-1.7139,0.0,-1.7789,-1.7708,-1.7619,-1.7538,-1.678,-1.6617,-1.6632,-1.5115,-1.4692,-1.4601,0.0,0.0,0.0,0.0,0.0,0.0,0.0,-1.6179,-1.6151,-1.5955,-1.6067,-1.6067,-1.5826,-1.5536,-1.5226,0.0,0.0,0.0,0.0,0.0,0.0,0.0,0.0,0.0,0.0,0.0,0.0,0.0,0.0,0.0,0.0,0.0,0.0,0.0,0.0,0.0,0.0,0.0,0.0,0.0,0.0,0.0,0.0,0.0,0.0,0.0,0.0,0.0,0.0,0.0,-1.1472,-1.162,-1.1899,-1.2241,-1.2591,-1.3041,-1.3104,-1.2995,-1.2931,-1.3259,-1.3692,-1.3711,-1.4518,-1.5335,-1.5392,0.0,0.0,0.0,-1.5742,-1.5977,-1.6031,-1.6588,0.0,0.0,0.0,0.0,0.0,0.0,0.0,0.0,0.0,0.0,0.0,0.0,0.0,0.0,0.0,-1.8167,-1.7349,-1.7342,-1.731,-1.7066,-1.7456,-1.7538,-1.7139,-1.7375,-1.7465,-1.7498,-1.7302,-1.7033,-1.6854,-1.6722,-1.6894,-1.7221,-1.7221,0.0,-1.7861,-1.787,-1.787,-1.7959,-1.7538,-1.7538,-1.7627,-1.6706,-1.6108,-1.5598,0.0,0.0,0.0,0.0,0.0,0.0,0.0,-1.6095,-1.6095,-1.5983,-1.6067,-1.6123,-1.6039,-1.5782,-1.5463,0.0,0.0,0.0,0.0,0.0,0.0,0.0,0.0,0.0,0.0,0.0,0.0,0.0,0.0,0.0,0.0,0.0,0.0,0.0,0.0,0.0,0.0,0.0,0.0,0.0,0.0,0.0,0.0,0.0,0.0,0.0,0.0,0.0,0.0,0.0,-1.1497,-1.1647,-1.1927,-1.2549,-1.323,-1.3683,-1.372,-1.3622,-1.3774,-1.3633,-1.3513,-1.3796,-1.4473,-1.5008,-1.5129,-1.5395,0.0,0.0,-1.5277,-1.544,-1.5433,0.0,-1.6667,0.0,-1.7675,0.0,0.0,0.0,0.0,0.0,0.0,0.0,0.0,0.0,0.0,0.0,0.0,0.0,-1.7049,-1.7802,-1.8031,-1.7635,-1.7789,-1.77,-1.7302,-1.7529,-1.7627,-1.7498,-1.7302,-1.7025,-1.6675,-1.6796,-1.6894,-1.7221,-1.7383,0.0,0.0,-1.7951,-1.804,-1.804,-1.804,-1.804,-1.804,-1.804,-1.7359,-1.6429,0.0,0.0,0.0,0.0,0.0,0.0,0.0,-1.6166,-1.6111,-1.5913,-1.6123,-1.6219,-1.6095,-1.5996,-1.594,0.0,0.0,0.0,0.0,0.0,0.0,0.0,0.0,0.0,0.0,0.0,0.0,0.0,0.0,0.0,0.0,0.0,0.0,0.0,0.0,0.0,0.0,0.0,0.0,0.0,0.0,0.0,0.0,0.0,0.0,0.0,0.0,0.0,0.0,0.0,0.0,-1.1412,-1.2273,-1.2803,-1.3219,-1.3854,0.0,0.0,-1.399,-1.3961,-1.3995,-1.415,-1.4582,-1.5129,-1.544,0.0,0.0,-1.5488,-1.5203,-1.5092,-1.5534,-1.5217,-1.5337,0.0,0.0,-1.7376,0.0,0.0,0.0,0.0,0.0,0.0,0.0,0.0,0.0,0.0,0.0,0.0,-1.7934,-1.8745,-1.8895,-1.8264,-1.8442,-1.8371,-1.7951,-1.7951,-1.7708,-1.7139,-1.731,-1.7139,-1.673,-1.6976,-1.7139,-1.7392,-1.7619,0.0,0.0,-1.7951,-1.804,-1.804,-1.804,-1.804,-1.804,-1.804,-1.7951,-1.7781,0.0,0.0,0.0,0.0,0.0,0.0,-1.6123,-1.6123,-1.6083,-1.5928,-1.6067,-1.6179,-1.6095,-1.6095,-1.6024,-1.5782,0.0,0.0,0.0,0.0,0.0,0.0,0.0,0.0,0.0,0.0,0.0,0.0,0.0,0.0,0.0,0.0,0.0,0.0,0.0,0.0,0.0,0.0,0.0,0.0,0.0,0.0,0.0,0.0,0.0,0.0,0.0,0.0,0.0,0.0,0.0,0.0,-1.1532,-1.2148,0.0,0.0,-1.4194,-1.399,-1.399,-1.3859,-1.3776,-1.4038,-1.4198,-1.4463,-1.4831,0.0,-1.4984,-1.456,-1.4548,-1.4579,-1.4422,-1.4627,-1.4967,0.0,0.0,0.0,-1.7896,0.0,0.0,0.0,0.0,0.0,0.0,0.0,0.0,0.0,0.0,0.0,-1.8558,-1.8763,-1.8745,-1.8523,-1.8523,-1.8201,-1.7635,-1.7594,-1.7261,-1.6894,-1.6952,-1.687,-1.6738,-1.6976,-1.7221,-1.7392,-1.7619,0.0,0.0,-1.804,-1.804,-1.804,-1.804,-1.804,-1.804,-1.804,-1.804,-1.7959,0.0,0.0,0.0,0.0,0.0,-1.649,-1.6151,-1.6123,-1.6083,-1.597,-1.6083,-1.6151,-1.6123,-1.6179,-1.6123,-1.5811,-1.6167,0.0,0.0,0.0,0.0,0.0,0.0,0.0,0.0,0.0,0.0,0.0,0.0,0.0,0.0,0.0,0.0,0.0,0.0,0.0,0.0,0.0,0.0,0.0,0.0,0.0,0.0,0.0,0.0,0.0,0.0,0.0,0.0,0.0,0.0,0.0,0.0,0.0,0.0,0.0,-1.4208,-1.415,-1.4194,-1.4067,-1.3955,-1.415,-1.4182,-1.4152,0.0,0.0,-1.4475,-1.4058,-1.415,-1.415,-1.3763,-1.4121,-1.4581,0.0,0.0,-1.6367,-1.7217,0.0,0.0,0.0,0.0,0.0,0.0,0.0,0.0,0.0,0.0,0.0,0.0,-1.8603,-1.8585,-1.8745,-1.8434,-1.8112,-1.7789,-1.7423,-1.7098,-1.6812,-1.6862,-1.6862,-1.6812,-1.7131,-1.7383,-1.7465,0.0,0.0,0.0,-1.804,-1.804,-1.804,-1.804,-1.804,-1.804,-1.804,-1.804,-1.804,0.0,0.0,0.0,0.0,0.0,0.0,-1.6151,-1.6166,-1.6166,-1.6095,-1.6219,-1.6274,-1.6222,-1.6262,-1.6274,-1.6194,-1.6797,0.0,0.0,0.0,0.0,0.0,0.0,0.0,0.0,0.0,-1.5442,-1.4479,-1.4701,-1.4237,0.0,0.0,0.0,0.0,0.0,0.0,0.0,0.0,0.0,0.0,0.0,0.0,0.0,0.0,0.0,0.0,0.0,0.0,0.0,0.0,0.0,0.0,0.0,0.0,0.0,0.0,-1.4023,-1.4513,-1.4651,-1.476,-1.4775,-1.4775,-1.4617,-1.4566,0.0,0.0,-1.4563,-1.4424,-1.4197,-1.402,-1.402,-1.3668,-1.3813,-1.5028,-1.4987,0.0,-1.7228,0.0,0.0,0.0,0.0,0.0,0.0,0.0,0.0,0.0,0.0,0.0,0.0,-1.8442,-1.8567,-1.8903,-1.8327,-1.8193,-1.8656,-1.7789,-1.731,-1.7139,-1.731,-1.731,-1.7139,-1.7538,-1.7691,0.0,0.0,0.0,0.0,-1.804,-1.804,-1.804,-1.804,-1.804,-1.804,-1.804,-1.804,-1.804,0.0,0.0,0.0,0.0,0.0,0.0,0.0,-1.6289,-1.6194,-1.6095,-1.6179,-1.6207,-1.6123,-1.6179,-1.6207,-1.6194,-1.6638,0.0,0.0,0.0,0.0,0.0,0.0,0.0,0.0,0.0,-1.5875,-1.5455,-1.5672,-1.5504,-1.5033,-1.4451,0.0,0.0,0.0,0.0,0.0,0.0,0.0,0.0,0.0,0.0,0.0,0.0,0.0,0.0,0.0,0.0,0.0,0.0,0.0,0.0,0.0,0.0,0.0,0.0,0.0,0.0,-1.4043,-1.4214,-1.4314,-1.4314,-1.4246,-1.4247,-1.456,0.0,-1.4264,-1.4136,-1.4067,-1.3868,-1.3515,-1.3515,-1.3764,-1.4509,-1.4714,0.0,0.0,0.0,0.0,0.0,0.0,0.0,0.0,0.0,0.0,0.0,0.0,0.0,0.0,-1.9161,-1.9274,-1.8877,-1.8505,-1.8353,-1.8576,-1.8273,-1.7951,-1.7708,-1.7797,-1.7708,-1.7538,-1.7781,0.0,0.0,0.0,0.0,0.0,-1.804,-1.804,-1.804,-1.804,-1.804,-1.804,-1.804,-1.804,-1.804,0.0,0.0,0.0,0.0,0.0,0.0,0.0,-1.6316,-1.6194,-1.6179,-1.6207,-1.6234,-1.6163,-1.6207,-1.6207,-1.6166,-1.6472,0.0,0.0,0.0,0.0,0.0,0.0,0.0,0.0,-1.6979,-1.6725,-1.5991,-1.608,-1.5936,-1.5451,-1.4875,-1.4861,-1.5277,0.0,0.0,0.0,0.0,0.0,0.0,0.0,0.0,-1.3748,0.0,0.0,0.0,0.0,0.0,0.0,0.0,0.0,0.0,0.0,0.0,0.0,0.0,0.0,0.0,0.0,-1.4053,-1.4256,-1.4307,-1.4221,0.0,0.0,0.0,-1.4093,-1.3868,-1.3868,-1.3763,-1.3362,-1.3324,-1.3628,-1.4415,-1.4609,0.0,0.0,0.0,0.0,0.0,0.0,0.0,0.0,0.0,0.0,0.0,0.0,0.0,0.0,-1.9464,-1.9575,-1.9719,-1.9204,-1.8834,-1.8772,-1.8549,-1.8299,-1.8112,-1.8112,-1.8112,-1.7951,-1.8112,0.0,0.0,0.0,0.0,0.0,-1.804,-1.804,-1.804,-1.804,-1.804,-1.804,-1.804,-1.804,-1.804,0.0,0.0,0.0,0.0,0.0,0.0,0.0,-1.6222,-1.6207,-1.6274,-1.6301,-1.6301,-1.6301,-1.6301,-1.6246,-1.6123,0.0,0.0,0.0,0.0,0.0,0.0,0.0,0.0,-1.8319,-1.8411,-1.7751,-1.6259,-1.6218,-1.5739,-1.4897,-1.4849,-1.5127,-1.566,-1.5031,-1.476,-1.4772,-1.4193,-1.3881,-1.3754,-1.3628,-1.3642,0.0,0.0,0.0,0.0,0.0,0.0,0.0,0.0,0.0,0.0,0.0,0.0,0.0,0.0,0.0,0.0,0.0,0.0,0.0,0.0,0.0,0.0,0.0,0.0,0.0,-1.3668,-1.3668,-1.3716,-1.3467,-1.319,-1.3441,-1.4624,0.0,0.0,0.0,0.0,0.0,0.0,0.0,0.0,0.0,0.0,0.0,0.0,0.0,0.0,0.0,-1.9472,-1.9812,-2.1141,-2.0285,-1.9636,-1.9277,-1.8834,-1.8504,-1.8434,-1.8434,-1.8442,-1.8442,-1.8434,0.0,0.0,0.0,0.0,0.0,-1.7959,-1.7959,-1.7959,-1.7951,-1.7959,-1.7959,-1.7951,-1.804,-1.804,0.0,0.0,0.0,0.0,0.0,0.0,0.0,0.0,0.0,0.0,-1.6151,-1.6151,-1.6151,-1.6151,-1.6123,0.0,0.0,0.0,0.0,0.0,0.0,0.0,0.0,0.0,-1.8228,-1.8228,-1.8104,-1.7722,-1.7229,-1.6889,-1.6664,-1.5603,-1.5269,-1.5483,-1.4546,-1.402,-1.3796,-1.351,-1.3357,-1.3335,-1.3301,-1.342,0.0,0.0,0.0,0.0,-1.2254,-1.1931,0.0,0.0,0.0,0.0,0.0,0.0,0.0,0.0,-1.1313,0.0,0.0,0.0,0.0,0.0,0.0,0.0,0.0,0.0,0.0,0.0,0.0,0.0,0.0,0.0,0.0,0.0,0.0,0.0,0.0,0.0,0.0,0.0,0.0,0.0,0.0,0.0,0.0,0.0,0.0,0.0,0.0,-2.111,-2.192,-2.2206,-2.1665,-2.069,-1.9334,-1.9177,-1.9082,-1.9063,-1.9063,-1.8993,-1.8843,-1.8523,0.0,0.0,0.0,0.0,-1.7554,-1.7554,-1.7554,-1.7554,-1.7708,-1.7781,-1.7781,-1.7951,-1.804,-1.804,0.0,0.0,0.0,0.0,0.0,0.0,0.0,0.0,0.0,0.0,0.0,-1.6179,-1.6052,-1.6067,0.0,0.0,0.0,0.0,0.0,0.0,0.0,0.0,0.0,-1.7735,-1.7683,-1.7735,-1.7611,-1.727,-1.7229,-1.7026,-1.6729,-1.6009,-1.5716,-1.5791,-1.4998,-1.4313,-1.3828,-1.3815,-1.3749,-1.3695,-1.3573,0.0,0.0,0.0,0.0,0.0,-1.2733,-1.2299,0.0,-1.1551,-1.119,-1.0881,0.0,0.0,0.0,0.0,-1.1036,-1.1261,-1.125,-1.1747,-1.2273,-1.2652,0.0,0.0,0.0,0.0,0.0,0.0,0.0,0.0,0.0,0.0,0.0,0.0,0.0,0.0,0.0,0.0,0.0,0.0,0.0,0.0,0.0,0.0,0.0,0.0,0.0,0.0,0.0,-2.2157,-2.2798,-2.3334,-2.2617,-2.1466,-2.0033,-1.958,-1.9301,-1.9301,-1.9301,-1.9222,-1.9152,-1.8834,-1.8523,0.0,0.0,0.0,-1.7392,-1.7392,-1.7392,-1.7392,-1.7546,-1.7546,-1.7627,-1.7789,-1.787,-1.787,0.0,0.0,0.0,0.0,0.0,0.0,0.0,0.0,0.0,0.0,0.0,0.0,0.0,0.0,0.0,0.0,0.0,0.0,0.0,0.0,0.0,0.0,0.0,-1.7215,-1.7074,-1.7119,-1.6872,-1.6309,-1.6637,-1.6559,-1.6105,-1.5959,-1.5935,-1.5921,-1.5503,-1.4894,-1.4189,-1.4324,-1.4337,-1.4216,-1.4,0.0,0.0,0.0,0.0,0.0,0.0,0.0,0.0,-1.2127,-1.157,-1.0957,-1.0881,0.0,0.0,0.0,0.0,0.0,-1.0926,-1.147,-1.2126,-1.2265,-1.2562,0.0,0.0,0.0,0.0,0.0,0.0,0.0,0.0,0.0,0.0,0.0,0.0,0.0,0.0,0.0,0.0,0.0,0.0,0.0,0.0,0.0,0.0,0.0,0.0,0.0,0.0,-2.2861,-2.3231,-2.4116,-2.3265,-2.2306,-2.1245,-2.0177,-1.9608,-1.945,-1.945,-1.946,-1.9301,-1.9073,-1.8763,-1.8353,0.0,0.0,-1.731,-1.7473,-1.7392,-1.731,-1.731,-1.7392,-1.7392,-1.7619,-1.77,-1.7781,0.0,0.0,0.0,0.0,0.0,0.0,0.0,0.0,0.0,0.0,0.0,0.0,0.0,0.0,0.0,0.0,0.0,0.0,0.0,0.0,0.0,-1.7398,-1.718,-1.7038,-1.7025,-1.6549,-1.6481,-1.6889,-1.5951,-1.5706,-1.6091,-1.5114,-1.467,-1.467,-1.4477,-1.427,-1.4032,-1.3927,-1.3921,-1.3894,-1.4028,0.0,0.0,0.0,0.0,0.0,0.0,0.0,0.0,-1.1701,-1.1309,-1.118,-1.0899,0.0,0.0,0.0,0.0,0.0,-1.1019,-1.151,-1.205,-1.2189,-1.2617,0.0,0.0,0.0,0.0,0.0,0.0,0.0,0.0,0.0,0.0,0.0,0.0,0.0,0.0,0.0,0.0,0.0,0.0,0.0,0.0,0.0,0.0,0.0,0.0,0.0,0.0,-2.3508,-2.3959,-2.397,-2.3942,-2.3571,-2.2713,-2.1852,-2.1078,-2.0313,-2.0313,-1.9923,-1.9301,-1.8931,-1.8531,-1.8121,0.0,-1.7942,-1.6894,-1.761,-1.7448,-1.6812,-1.7057,-1.7221,-1.7392,-1.7392,-1.7635,-1.7951,0.0,0.0,0.0,0.0,0.0,0.0,0.0,0.0,0.0,0.0,0.0,0.0,0.0,0.0,0.0,0.0,0.0,0.0,0.0,0.0,-1.6512,-1.6752,-1.6924,-1.7,-1.7,-1.6417,-1.6254,-1.6512,-1.5906,-1.5573,-1.5589,-1.474,-1.4365,-1.4332,-1.4268,-1.4222,-1.4144,-1.4105,-1.4072,-1.4066,0.0,0.0,0.0,0.0,0.0,0.0,0.0,0.0,0.0,0.0,-1.1726,-1.1468,-1.1367,0.0,0.0,0.0,0.0,0.0,-1.1799,-1.1981,-1.2287,-1.2839,0.0,-1.3793,-1.4222,0.0,0.0,0.0,0.0,0.0,0.0,0.0,0.0,0.0,0.0,0.0,0.0,0.0,0.0,0.0,0.0,0.0,0.0,0.0,0.0,0.0,0.0,0.0,0.0,0.0,-2.4127,-2.4043,-2.4157,-2.4022,-2.3677,-2.3287,-2.2446,-2.1231,-2.0692,-2.0537,-2.0605,-2.0001,-1.9678,-1.9728,0.0,-1.9552,-1.8753,-1.8691,-1.8381,-1.7989,-1.761,-1.7456,-1.7627,-1.7789,-1.787,-1.787,0.0,0.0,0.0,0.0,0.0,0.0,0.0,0.0,0.0,0.0,0.0,0.0,0.0,0.0,0.0,0.0,0.0,0.0,0.0,0.0,-1.6458,-1.6423,-1.676,-1.6826,-1.6556,-1.6132,-1.5888,-1.5865,-1.5631,-1.5321,-1.4965,-1.4504,-1.43,-1.43,-1.43,-1.43,-1.4268,-1.4268,-1.4254,-1.4235,0.0,0.0,0.0,0.0,0.0,0.0,0.0,0.0,0.0,0.0,0.0,0.0,0.0,0.0,0.0,-1.2138,-1.2246,-1.2318,-1.2461,-1.2669,-1.3017,-1.3736,0.0,-1.4359,-1.4637,0.0,0.0,0.0,0.0,0.0,0.0,0.0,0.0,0.0,0.0,0.0,0.0,0.0,0.0,0.0,0.0,0.0,0.0,0.0,0.0,0.0,0.0,0.0,0.0,0.0,-2.4212,-2.4127,-2.42,-2.42,-2.42,-2.42,-2.3508,-2.2069,-2.1385,-2.1308,-2.1756,-2.1078,-2.0904,-2.1094,-2.1334,-2.1094,-2.0449,-2.0003,-1.97,-1.9386,-1.847,-1.8158,-1.8238,-1.8638,-1.8559,-1.8327,0.0,0.0,0.0,0.0,0.0,0.0,0.0,0.0,0.0,0.0,0.0,0.0,0.0,0.0,0.0,0.0,0.0,0.0,0.0,0.0,-1.6774,-1.6739,-1.6783,-1.6308,-1.5246,-1.5256,-1.525,-1.5181,-1.4594,-1.4311,-1.427,-1.4281,-1.43,-1.43,-1.43,-1.4268,-1.4203,-1.4203,-1.4157,-1.404,-1.4289,0.0,0.0,0.0,0.0,0.0,0.0,0.0,0.0,0.0,0.0,0.0,0.0,0.0,-1.265,-1.2318,-1.2389,-1.2567,-1.2508,-1.345,-1.4486,-1.4719,-1.4643,0.0,-1.5905,-1.6176,0.0,-1.7026,0.0,0.0,0.0,0.0,0.0,0.0,0.0,0.0,0.0,0.0,0.0,0.0,0.0,0.0,0.0,0.0,0.0,0.0,0.0,0.0,0.0,0.0,0.0,-2.3897,-2.4116,-2.42,-2.42,-2.42,-2.3751,-2.2916,-2.2841,-2.2456,-2.1832,-2.1766,-2.1507,-2.1171,-2.1993,-2.1593,-2.0526,-2.1257,-2.1094,-2.0304,-1.9709,-1.9543,-1.969,-2.0178,-2.0197,-2.0041,0.0,0.0,0.0,0.0,0.0,0.0,0.0,0.0,0.0,0.0,0.0,0.0,0.0,0.0,0.0,0.0,0.0,0.0,0.0,-1.662,-1.6474,-1.5464,-1.63,-1.6042,-1.4392,-1.4869,-1.5079,-1.4975,-1.4333,-1.4007,-1.4007,-1.417,-1.4189,-1.4111,-1.4189,-1.4189,-1.4078,-1.4078,-1.4046,-1.4013,-1.4106,-1.4164,0.0,0.0,0.0,0.0,0.0,0.0,0.0,0.0,-1.2988,-1.2918,0.0,0.0,-1.2906,0.0,-1.3195,-1.3276,-1.3022,-1.3778,-1.4679,-1.4743,-1.5278,0.0,0.0,-1.6604,-1.6678,-1.6883,-1.6618,0.0,0.0,0.0,0.0,0.0,0.0,0.0,0.0,0.0,0.0,0.0,0.0,0.0,0.0,0.0,0.0,0.0,0.0,0.0,0.0,0.0,0.0,-2.4127,-2.4127,-2.42,-2.42,-2.42,-2.4043,-2.3751,-2.3224,-2.3065,-2.3287,-2.2756,-2.2745,-2.3032,-2.3508,-2.3423,-2.301,-2.285,-2.2616,-2.2157,-2.1257,-2.0864,-2.0844,-2.14,-2.1334,-2.1018,0.0,0.0,0.0,0.0,0.0,0.0,0.0,0.0,0.0,0.0,0.0,0.0,0.0,0.0,0.0,0.0,0.0,0.0,-1.6039,-1.6446,-1.6165,-1.4994,-1.5796,-1.5676,-1.4346,-1.4654,-1.4762,-1.4626,-1.4139,-1.3888,-1.3888,-1.4059,-1.4078,-1.4,-1.4111,-1.4078,-1.398,-1.398,-1.3947,-1.3947,-1.3947,-1.3947,0.0,0.0,0.0,0.0,0.0,0.0,0.0,0.0,0.0,0.0,0.0,0.0,0.0,0.0,0.0,-1.3809,-1.3458,-1.4138,-1.4987,0.0,0.0,0.0,-1.6945,-1.7024,-1.7042,-1.7064,-1.712,0.0,0.0,0.0,0.0,0.0,0.0,0.0,0.0,0.0,0.0,0.0,0.0,0.0,0.0,0.0,0.0,0.0,0.0,0.0,0.0,0.0,0.0,0.0,-2.42,-2.42,-2.42,-2.42,-2.42,-2.4189,-2.3666,-2.3677,-2.4189,-2.3604,-2.3677,-2.42,-2.4345,-2.4418,-2.449,-2.4009,-2.3694,-2.3401,-2.2713,-2.2317,-2.2296,-2.2691,-2.2616,-2.2296,0.0,0.0,0.0,0.0,0.0,0.0,0.0,0.0,0.0,0.0,0.0,0.0,0.0,0.0,0.0,0.0,0.0,0.0,-1.5652,-1.5866,-1.5923,-1.5721,-1.5387,-1.5216,-1.5203,-1.4599,-1.4189,-1.4,-1.3927,-1.3854,-1.3788,-1.3947,-1.4,-1.4,-1.4,-1.3947,-1.3921,-1.3921,-1.3854,-1.3788,-1.3788,-1.3788,-1.3788,0.0,0.0,0.0,0.0,0.0,0.0,0.0,0.0,0.0,0.0,0.0,0.0,0.0,-1.375,-1.4036,-1.3779,-1.4592,0.0,0.0,0.0,0.0,-1.7436,-1.7549,-1.7652,-1.7844,0.0,0.0,0.0,0.0,0.0,0.0,0.0,0.0,0.0,0.0,0.0,0.0,0.0,0.0,0.0,0.0,0.0,0.0,0.0,0.0,0.0,0.0,0.0,0.0,-2.4189,-2.4189,-2.4189,-2.4189,-2.4189,-2.42,-2.42,-2.42,-2.42,-2.42,-2.42,-2.42,-2.42,-2.4345,-2.449,-2.449,-2.425,-2.3925,-2.3925,-2.3986,-2.4108,-2.4108,-2.4108,-2.4108,0.0,0.0,0.0,0.0,0.0,0.0,0.0,0.0,0.0,0.0,0.0,0.0,0.0,0.0,0.0,0.0,0.0,0.0,-1.6998,-1.6638,-1.6325,-1.6117,-1.544,-1.4843,-1.4379,-1.4007,-1.3782,-1.3702,-1.3682,-1.3695,-1.3661,-1.3828,-1.3894,-1.3874,-1.3894,-1.3908,-1.3821,-1.3821,-1.3821,-1.3788,-1.3788,-1.3788,-1.3788,0.0,0.0,0.0,0.0,0.0,0.0,0.0,0.0,0.0,0.0,0.0,0.0,-1.3795,-1.3859,-1.3964,-1.4018,0.0,0.0,0.0,0.0,0.0,0.0,-1.8288,0.0,0.0,0.0,0.0,0.0,0.0,0.0,0.0,0.0,0.0,0.0,0.0,0.0,0.0,0.0,0.0,0.0,0.0,0.0,0.0,0.0,0.0,0.0,0.0,0.0,0.0,-2.3121,-2.3305,-2.3661,-2.3672,-2.3916,-2.4418,-2.4418,-2.4345,-2.42,-2.42,-2.42,-2.42,-2.4345,-2.4418,-2.449,-2.4646,-2.4694,-2.4743,-2.4743,-2.4743,-2.4802,-2.4933,-2.4933,-2.4933,0.0,0.0,0.0,0.0,0.0,0.0,0.0,0.0,0.0,0.0,-1.7248,0.0,0.0,0.0,0.0,0.0,0.0,0.0,0.0,-1.6559,-1.6234,-1.6037,-1.5378,-1.4771,-1.4273,-1.398,-1.3861,-1.3861,-1.3782,-1.3735,-1.3702,-1.3881,-1.396,-1.3941,-1.3921,-1.3854,-1.3788,-1.3821,-1.3821,-1.3788,-1.3788,-1.3788,-1.3788,0.0,0.0,0.0,0.0,0.0,0.0,0.0,0.0,0.0,0.0,0.0,0.0,-1.3899,-1.4015,-1.4239,-1.4488,0.0,0.0,0.0,0.0,0.0,0.0,0.0,0.0,0.0,0.0,0.0,0.0,0.0,0.0,0.0,0.0,0.0,0.0,0.0,0.0,0.0,0.0,0.0,0.0,0.0,0.0,0.0,0.0,0.0,0.0,0.0,0.0,0.0,-2.2877,-2.3028,-2.334,-2.3213,-2.3467,-2.4045,-2.4105,-2.4209,-2.4345,-2.4418,-2.4418,-2.4418,-2.4634,-2.4706,-2.4646,-2.4921,-2.5052,-2.5111,-2.5182,-2.5182,-2.5182,-2.5241,-2.5312,-2.5312,0.0,0.0,0.0,0.0,0.0,0.0,0.0,0.0,0.0,0.0,-1.7265,-1.6972,0.0,0.0,0.0,0.0,0.0,0.0,0.0,0.0,-1.5881,-1.5771,-1.5269,-1.489,-1.4637,-1.4351,-1.417,-1.417,-1.4065,-1.4,-1.3934,-1.4052,-1.4176,-1.4203,-1.404,-1.3921,-1.3874,-1.3941,-1.3921,-1.3854,-1.3854,-1.3881,-1.3933,-1.3933,0.0,0.0,0.0,0.0,0.0,0.0,0.0,0.0,0.0,-1.4243,-1.4166,-1.3917,-1.4187,-1.4668,-1.502,0.0,0.0,0.0,0.0,0.0,0.0,0.0,0.0,0.0,0.0,0.0,0.0,0.0,0.0,0.0,0.0,0.0,0.0,0.0,0.0,0.0,0.0,0.0,0.0,0.0,0.0,0.0,0.0,0.0,0.0,0.0,0.0,-2.2771,-2.2928,-2.3085,-2.3132,-2.2808,-2.2868,-2.3374,-2.363,-2.4038,-2.4564,-2.4694,-2.479,-2.479,-2.4992,-2.4992,-2.479,-2.5111,-2.5182,-2.5111,-2.5241,-2.5312,-2.5312,-2.5312,-2.5312,-2.5312,0.0,0.0,0.0,0.0,0.0,0.0,0.0,0.0,0.0,0.0,0.0,0.0,0.0,0.0,0.0,0.0,0.0,0.0,0.0,0.0,-1.6435,-1.6916,-1.5683,-1.4721,-1.4163,-1.4065,-1.4032,-1.4032,-1.4208,-1.4254,-1.4124,-1.4254,-1.4351,-1.4365,-1.43,-1.4319,-1.4356,-1.4356,-1.4337,-1.4268,-1.4268,-1.4472,-1.4822,-1.4822,-1.5149,0.0,0.0,0.0,0.0,0.0,0.0,0.0,-1.4992,-1.4666,-1.4249,-1.4013,-1.4184,-1.4547,0.0,-1.5579,0.0,0.0,0.0,0.0,0.0,0.0,0.0,0.0,0.0,0.0,0.0,0.0,0.0,0.0,0.0,0.0,0.0,0.0,0.0,0.0,0.0,0.0,0.0,0.0,0.0,0.0,0.0,0.0,0.0,0.0,0.0,-2.1713,-2.1917,-2.218,-2.2603,-2.2418,-2.2608,0.0,-2.3692,-2.4249,-2.4941,-2.4815,-2.479,-2.479,-2.4861,-2.4861,-2.479,-2.4861,-2.4992,-2.5123,-2.5111,-2.5182,-2.5312,-2.5312,-2.5312,-2.5312,0.0,0.0,0.0,0.0,0.0,0.0,0.0,0.0,0.0,0.0,0.0,0.0,0.0,0.0,0.0,0.0,0.0,0.0,0.0,0.0,-1.6468,-1.654,-1.5772,-1.5029,-1.4401,-1.4388,-1.4388,-1.4388,-1.4543,-1.4543,-1.4337,-1.4479,-1.4556,-1.4588,-1.4497,-1.4452,-1.4501,-1.4501,-1.4452,-1.441,-1.473,-1.5031,-1.5278,-1.5599,-1.6019,-1.6447,-1.6213,0.0,0.0,0.0,0.0,0.0,0.0,0.0,-1.4742,-1.469,-1.4768,-1.4987,0.0,0.0,0.0,0.0,0.0,0.0,0.0,0.0,0.0,0.0,0.0,0.0,0.0,0.0,0.0,0.0,0.0,0.0,0.0,0.0,0.0,0.0,0.0,0.0,0.0,0.0,0.0,0.0,0.0,0.0,0.0,-2.2396,-2.2689,-2.2237,-2.2211,-2.2406,-2.2847,-2.2503,-2.2643,-2.3349,-2.3855,-2.4657,-2.5629,-2.5554,-2.5477,-2.5348,-2.5348,-2.5206,-2.4921,-2.4981,-2.5052,-2.5111,-2.5182,-2.5241,-2.5312,-2.5312,-2.5312,-2.5312,0.0,0.0,0.0,0.0,0.0,0.0,0.0,0.0,0.0,0.0,0.0,0.0,0.0,0.0,0.0,0.0,0.0,0.0,0.0,0.0,0.0,-1.5652,-1.5623,-1.5374,-1.4808,-1.4808,-1.4808,-1.4808,-1.4871,-1.4763,-1.4533,-1.4686,-1.4763,-1.4808,-1.4641,-1.4578,-1.4596,-1.4564,-1.4616,-1.4718,-1.528,-1.5612,-1.5813,-1.6381,-1.6941,-1.7312,-1.6817,-1.6893,-1.712,-1.658,0.0,0.0,0.0,0.0,-1.5343,-1.5346,-1.5447,-1.5658,0.0,0.0,0.0,0.0,0.0,0.0,0.0,0.0,0.0,0.0,0.0,0.0,0.0,0.0,0.0,0.0,0.0,0.0,0.0,0.0,0.0,0.0,0.0,0.0,0.0,0.0,0.0,0.0,0.0,0.0,-2.2051,-2.305,-2.3526,-2.3314,-2.3125,-2.3113,-2.3433,-2.2922,-2.2999,-2.355,-2.4242,-2.5054,-2.6083,-2.6408,-2.6358,-2.5968,-2.5968,-2.5688,-2.5324,-2.5382,-2.5382,-2.5324,-2.5382,-2.5453,-2.5382,-2.5382,-2.5382,-2.5382,0.0,0.0,0.0,0.0,0.0,0.0,0.0,0.0,0.0,0.0,-1.6649,0.0,0.0,0.0,0.0,0.0,0.0,0.0,0.0,0.0,0.0,-1.5374,-1.5344,-1.5179,-1.4808,-1.4808,-1.4808,-1.4808,-1.4808,-1.4808,-1.4763,-1.4904,-1.4935,-1.4902,-1.4856,-1.4873,-1.4937,-1.4873,-1.5213,-1.5805,-1.589,-1.6402,-1.7163,-1.743,-1.7754,-1.8064,-1.7995,-1.797,-1.7985,-1.7758,-1.7299,0.0,0.0,0.0,0.0,-1.53,-1.562,-1.6062,0.0,0.0,0.0,0.0,0.0,0.0,0.0,0.0,0.0,0.0,0.0,0.0,0.0,0.0,0.0,0.0,0.0,0.0,0.0,0.0,0.0,0.0,0.0,0.0,0.0,0.0,0.0,0.0,0.0,0.0,-2.3416,-2.358,-2.3812,-2.4026,-2.4168,-2.4137,-2.3904,-2.3943,-2.385,-2.3677,-2.4925,-2.5529,-2.5602,-2.667,-2.685,-2.6358,-2.6358,-2.622,-2.6025,-2.6082,-2.6082,-2.6025,-2.6082,-2.5955,-2.5828,-2.5828,-2.5688,-2.5535,0.0,0.0,0.0,0.0,0.0,0.0,0.0,0.0,0.0,0.0,0.0,-1.6596,0.0,0.0,0.0,0.0,0.0,0.0,0.0,0.0,0.0,-1.5329,-1.5359,-1.5179,-1.4808,-1.4839,-1.4839,-1.4808,-1.4808,-1.4808,-1.4808,-1.4856,-1.4887,-1.4839,-1.4839,-1.4887,-1.4963,-1.5223,-1.558,-1.5943,-1.6535,-1.7142,-1.7701,-1.7917,-1.8212,-1.8528,-1.8333,-1.8254,-1.8254,-1.8109,-1.7851,-1.7554,-1.7528,0.0,0.0,0.0,-1.6429,0.0,-1.677,0.0,0.0,0.0,0.0,0.0,0.0,0.0,0.0,0.0,0.0,0.0,0.0,0.0,0.0,0.0,0.0,0.0,0.0,0.0,0.0,0.0,0.0,0.0,0.0,0.0,0.0,0.0,0.0,-2.4244,-2.4066,-2.4433,-2.4759,-2.4966,-2.4867,-2.4824,-2.4881,-2.4776,-2.5043,-2.5586,-2.6488,-2.711,-2.738,-2.7746,-2.7313,-2.6244,-2.6561,-2.6552,-2.6289,-2.6289,-2.6289,-2.6233,-2.6289,-2.6233,-2.6094,-2.6164,-2.6094,-2.5886,0.0,0.0,0.0,0.0,0.0,0.0,0.0,0.0,0.0,0.0,0.0,0.0,0.0,0.0,0.0,0.0,0.0,0.0,0.0,0.0,0.0,0.0,0.0,-1.5359,-1.5027,-1.5011,-1.4949,-1.4887,-1.4794,-1.4777,-1.4777,-1.4732,-1.4732,-1.4732,-1.4732,-1.4847,-1.5093,-1.5492,-1.5904,-1.6406,-1.7219,-1.7757,-1.8141,-1.8359,-1.8567,-1.8745,-1.8422,-1.8358,-1.8358,-1.8189,-1.8069,-1.7975,-1.7922,-1.753,0.0,0.0,0.0,0.0,0.0,0.0,0.0,0.0,0.0,0.0,0.0,0.0,0.0,0.0,0.0,0.0,0.0,0.0,0.0,0.0,0.0,0.0,0.0,0.0,0.0,0.0,0.0,0.0,0.0,0.0,0.0,0.0,0.0,-2.5133,-2.4851,-2.537,-2.5756,-2.592,-2.5632,-2.5577,-2.5783,-2.5578,-2.6036,-2.7166,-2.7591,-2.8118,-2.8543,-2.8553,-2.7822,-2.6725,-2.7183,-2.7229,-2.6947,-2.6756,-2.6633,-2.6564,-2.6633,-2.6564,-2.6427,-2.6427,-2.6427,-2.6302,0.0,0.0,0.0,0.0,0.0,0.0,0.0,0.0,0.0,0.0,0.0,0.0,-1.6501,-1.6554,-1.6543,-1.6425,-1.6517,-1.6367,-1.5767,-1.6022,-1.5909,-1.5329,0.0,0.0,-1.5652,-1.5404,-1.5239,-1.5074,-1.4825,-1.4714,-1.4714,-1.4578,-1.4501,-1.4501,-1.4501,-1.4911,-1.5566,-1.5541,-1.6396,-1.7806,-1.7863,-1.8249,-1.8779,-1.8974,-1.895,-1.8745,-1.8422,-1.845,-1.8595,-1.8083,-1.7922,-1.7922,-1.7882,-1.772,-1.741,0.0,0.0,0.0,0.0,0.0,0.0,0.0,0.0,0.0,0.0,0.0,0.0,0.0,0.0,0.0,0.0,0.0,0.0,0.0,0.0,0.0,0.0,0.0,0.0,0.0,0.0,0.0,0.0,0.0,0.0,0.0,0.0,-2.604,-2.6336,-2.6437,-2.6519,-2.6727,-2.6727,-2.6539,-2.6283,-2.6175,-2.6613,-2.7544,-2.7612,-2.7713,-2.7989,-2.8488,-2.8608,-2.8269,-2.8389,-2.8417,-2.8352,-2.7709,-2.7456,-2.739,-2.7268,-2.7121,-2.6905,-2.6782,-2.6645,-2.6645,0.0,0.0,0.0,0.0,0.0,0.0,0.0,0.0,0.0,0.0,0.0,0.0,0.0,-1.6528,-1.6463,-1.6448,-1.6501,-1.6367,-1.5924,-1.6009,-1.5883,-1.5448,-1.5609,-1.5681,-1.5652,-1.5463,-1.5285,-1.5104,-1.5041,-1.4856,-1.4578,-1.469,-1.4882,-1.5142,-1.5142,-1.5299,-1.5597,-1.6459,-1.7191,-1.7729,-1.8035,-1.8408,0.0,0.0,0.0,0.0,0.0,0.0,-1.8736,-1.8386,-1.8202,-1.8083,-1.8083,-1.7963,-1.7747,-1.7783,0.0,0.0,0.0,0.0,0.0,0.0,0.0,0.0,0.0,0.0,0.0,0.0,0.0,0.0,0.0,0.0,0.0,0.0,0.0,0.0,0.0,0.0,0.0,0.0,0.0,0.0,0.0,0.0,0.0,0.0,0.0,0.0,-2.651,-2.6486,-2.6621,-2.6779,-2.6779,-2.6727,-2.6592,-2.6995,-2.7569,-2.8312,-2.8708,-2.8947,-2.9007,-2.9234,-2.9399,-2.9317,-2.8933,-2.8872,-2.8917,-2.8012,-2.7564,-2.743,-2.7053,-2.685,-2.685,-2.6998,-2.7066,-2.7066,0.0,0.0,0.0,0.0,0.0,0.0,0.0,0.0,0.0,-1.7183,0.0,0.0,0.0,0.0,-1.6474,-1.649,-1.6448,-1.6313,-1.6024,-1.608,-1.5996,-1.5682,-1.5839,-1.5909,-1.5853,-1.5696,-1.5521,-1.533,-1.5269,-1.5058,-1.4627,-1.5026,-1.53,-1.5502,-1.5951,-1.618,-1.6222,0.0,0.0,-1.7979,0.0,0.0,-1.8697,0.0,0.0,0.0,0.0,0.0,0.0,-1.8464,-1.8321,-1.8202,-1.8202,-1.8189,-1.8228,0.0,0.0,0.0,-1.8745,0.0,0.0,0.0,0.0,0.0,0.0,0.0,0.0,0.0,0.0,0.0,0.0,0.0,0.0,0.0,0.0,0.0,0.0,0.0,0.0,0.0,0.0,0.0,0.0,0.0,0.0,0.0,0.0,0.0,-2.651,-2.651,-2.6578,-2.6779,-2.6779,-2.6779,-2.6779,-2.72,-2.7737,-2.8361,-2.8726,-2.903,-2.9247,-2.9189,-2.9305,-2.9434,-2.9158,-2.9242,-2.9498,-2.8532,-2.7947,-2.755,-2.7095,-2.6973,-2.704,-2.7053,-2.7268,-2.7456,0.0,0.0,0.0,0.0,0.0,0.0,0.0,0.0,-1.732,-1.732,0.0,0.0,0.0,0.0,0.0,-1.6436,-1.6355,-1.6246,-1.6024,-1.6246,-1.6289,-1.6039,-1.6246,-1.6398,-1.6398,-1.6136,-1.594,-1.5811,-1.5521,-1.5269,-1.4949,-1.556,-1.574,-1.5652,-1.6948,-1.753,-1.7558,0.0,-1.7969,-1.8711,0.0,-1.8784,-1.8822,0.0,0.0,0.0,-1.8347,-1.8439,0.0,-1.8321,0.0,0.0,0.0,0.0,0.0,0.0,0.0,0.0,0.0,0.0,0.0,0.0,0.0,0.0,0.0,0.0,0.0,0.0,0.0,0.0,0.0,0.0,0.0,0.0,0.0,0.0,0.0,0.0,0.0,0.0,0.0,0.0,0.0,0.0,0.0,0.0,0.0,-2.651,-2.651,-2.651,-2.6578,-2.6779,-2.6779,-2.6779,-2.6779,-2.6779,-2.7099,-2.7668,-2.7559,-2.7821,-2.8468,-2.824,-2.8297,-2.8511,-2.9059,-2.9633,-3.004,-2.9387,-2.8546,-2.7736,-2.7537,-2.7604,-2.7604,-2.6973,-2.731,-2.7973,0.0,0.0,0.0,0.0,0.0,0.0,-1.7878,-1.7766,-1.7612,0.0,0.0,0.0,-1.7052,-1.691,-1.6799,-1.6686,-1.6722,-1.6696,-1.6581,-1.6501,-1.6448,-1.6367,-1.634,-1.6328,-1.6328,-1.6108,-1.594,-1.5811,-1.5826,-1.5876,-1.6016,-1.6455,-1.7048,-1.7763,-1.7848,-1.8172,-1.8654,-1.8456,0.0,-1.8965,-1.8812,-1.8851,0.0,0.0,0.0,0.0,0.0,-1.8634,-1.8673,0.0,-1.8567,-1.8755,0.0,0.0,0.0,0.0,0.0,0.0,-1.9711,0.0,0.0,0.0,0.0,0.0,0.0,0.0,0.0,0.0,0.0,0.0,0.0,0.0,0.0,0.0,0.0,0.0,0.0,0.0,0.0,0.0,0.0,0.0,0.0,0.0,0.0,0.0,-2.6385,-2.6712,-2.6712,-2.6712,-2.6712,-2.6779,-2.6779,-2.6779,-2.6779,-2.6779,-2.7099,-2.7668,-2.7559,-2.759,-2.7763,-2.7526,-2.747,-2.7652,-2.7711,-2.8455,-2.9545,-2.9163,-2.8889,-2.8556,-2.7947,-2.7815,-2.792,-2.7881,-2.8105,-2.8392,0.0,0.0,0.0,0.0,0.0,-1.8205,-1.7954,-1.7839,-1.7698,0.0,0.0,0.0,-1.7126,-1.7035,-1.6926,-1.6815,-1.6841,-1.6825,-1.6815,-1.6686,-1.6633,-1.6633,-1.6517,-1.6436,-1.6436,-1.6246,-1.6274,-1.6521,-1.6594,-1.6771,-1.7086,-1.7621,-1.8135,-1.8589,0.0,0.0,0.0,0.0,0.0,0.0,-1.8413,0.0,0.0,-1.8673,-1.8556,0.0,0.0,0.0,-1.8973,-1.8782,-1.8974,0.0,0.0,0.0,0.0,0.0,0.0,0.0,0.0,0.0,0.0,0.0,0.0,0.0,-1.9839,-2.0074,0.0,0.0,0.0,0.0,0.0,0.0,0.0,0.0,0.0,0.0,0.0,0.0,0.0,0.0,0.0,0.0,0.0,0.0,0.0,-2.5471,-2.617,-2.6638,-2.6686,-2.6893,-2.6959,-2.7004,-2.6959,-2.6989,-2.6989,-2.6989,-2.7112,-2.7491,-2.7263,-2.7263,-2.7438,-2.7305,-2.7167,-2.7006,-2.7523,-2.8182,-2.8914,-2.9082,-2.9094,-2.8939,-2.8403,-2.8274,-2.8325,-2.8195,-2.8417,-2.878,0.0,0.0,-1.8715,-1.8659,-1.8467,-1.8266,-1.8048,-1.7827,-1.7629,0.0,-1.7557,-1.7559,-1.7379,-1.7379,-1.732,-1.7133,-1.7107,-1.7107,-1.7107,-1.7107,-1.7081,-1.7081,-1.6924,-1.686,-1.686,-1.6698,-1.6955,-1.7608,-1.7637,-1.7818,-1.8206,-1.8881,-1.9055,-1.8861,0.0,0.0,0.0,0.0,0.0,-1.85,-1.7852,-1.7979,0.0,0.0,-1.8559,-1.8641,-1.8534,-1.9021,-1.9634,-1.9493,-1.9634,0.0,0.0,0.0,0.0,0.0,-2.0478,0.0,0.0,0.0,0.0,0.0,0.0,0.0,-2.0395,-2.0444,-2.0631,0.0,0.0,0.0,0.0,0.0,0.0,0.0,0.0,0.0,0.0,0.0,0.0,0.0,0.0,0.0,0.0,-2.4908,-2.5435,-2.5325,-2.5953,-2.6401,-2.6579,-2.7034,-2.7276,-2.7324,-2.7291,-2.7284,-2.7218,-2.7218,-2.7218,-2.7233,-2.6945,-2.7011,-2.7365,-2.7423,-2.7126,-2.6736,-2.8028,-2.8495,-2.8455,-2.9145,-2.9288,-2.9142,-2.898,-2.8931,-2.8867,-2.839,-2.861,-2.9099,0.0,0.0,-1.8408,-1.8252,-1.8001,-1.78,-1.7647,-1.7536,-1.7467,-1.7491,-1.7971,-1.8509,-1.9036,-1.9102,-1.9102,-1.9065,-1.9049,-1.9049,-1.9049,-1.8898,-1.8817,-1.8817,-1.8527,-1.8371,-1.8371,-1.8197,-1.8171,-1.8311,-1.8357,-1.8732,-1.9374,-1.9562,-1.9907,-2.0342,0.0,0.0,0.0,0.0,0.0,-1.8907,-1.7978,0.0,-1.8965,-1.862,-1.9034,-1.9788,-1.9734,-2.0391,-2.1277,-2.1584,-2.1354,-2.1049,0.0,0.0,0.0,-2.0778,0.0,0.0,0.0,0.0,0.0,0.0,0.0,0.0,-2.0957,-2.0957,-2.0923,0.0,0.0,0.0,0.0,0.0,0.0,0.0,0.0,0.0,0.0,0.0,0.0,0.0,0.0,0.0,0.0,-2.4897,-2.5339,-2.5295,-2.5667,-2.6223,-2.6868,-2.7414,-2.763,-2.7548,-2.7614,-2.7634,-2.7524,-2.7524,-2.7524,-2.7524,-2.7335,-2.7233,-2.7233,-2.7099,-2.7272,-2.7735,-2.7821,-2.856,-2.9723,-2.9595,-2.9676,-2.9898,-2.9851,-2.9665,-2.9463,-2.9435,-2.9449,-2.9477,0.0,-1.8505,-1.8406,-1.8232,-1.8086,-1.8095,-1.8404,-1.8323,-1.8332,-1.8725,-1.8926,-1.9187,-1.9551,-1.9601,-1.9601,-1.9601,-1.9601,-1.9601,-1.9601,-1.9503,-1.9449,-1.9449,-1.9228,-1.9074,-1.9017,-1.8842,-1.8868,-1.9139,-1.917,-1.9563,-2.0256,-2.0289,-2.0478,0.0,0.0,0.0,0.0,0.0,-1.8718,-1.904,-1.8512,0.0,-1.9618,-1.9703,-2.0219,-2.0917,-2.0917,-2.136,-2.2056,-2.2406,-2.2317,0.0,0.0,-2.198,-2.1793,0.0,-2.1501,-2.1454,0.0,0.0,0.0,-2.1167,0.0,0.0,0.0,-2.1167,-2.1119,0.0,0.0,0.0,0.0,0.0,0.0,0.0,0.0,0.0,0.0,0.0,0.0,0.0,0.0,0.0,0.0,-2.497,-2.5397,-2.5686,-2.5722,-2.5756,-2.571,-2.6851,-2.7382,-2.7055,-2.746,-2.772,-2.7675,-2.7625,-2.7625,-2.7675,-2.7488,-2.7452,-2.7604,-2.7647,-2.7691,-2.7735,-2.7939,-2.8385,-2.9016,-2.9268,-2.9566,-2.9954,-3.0043,-2.9927,-2.9602,-2.9761,-2.9713,-2.9602,0.0,-1.8465,-1.848,-1.8519,-1.8516,-1.8756,-1.9517,-1.935,-1.9401,-2.0111,-1.996,-1.9865,-1.9998,-2.0014,-2.0014,-2.0014,-2.0147,-2.0163,-2.0014,-2.0147,-2.0163,-2.0014,-1.9904,-1.9764,-1.965,-1.9535,-1.9647,-2.0099,-2.0052,-2.0337,-2.086,-2.0827,0.0,0.0,0.0,0.0,0.0,0.0,0.0,-1.9636,0.0,-1.9935,-2.027,-2.0768,-2.1401,-2.2115,-2.233,-2.2586,-2.2832,-2.3071,-2.3142,-2.3049,-2.272,-2.2739,0.0,0.0,0.0,0.0,0.0,0.0,0.0,0.0,0.0,-2.1215,0.0,0.0,0.0,0.0,0.0,0.0,0.0,0.0,0.0,0.0,0.0,0.0,0.0,0.0,0.0,0.0,0.0,0.0,0.0,-2.5211,-2.5615,-2.6085,-2.5846,-2.5373,-2.4716,-2.6077,-2.678,-2.6587,-2.7169,-2.7605,-2.784,-2.774,-2.774,-2.784,-2.7604,-2.7655,-2.7985,-2.821,-2.807,-2.7712,-2.8196,-2.8373,-2.8307,-2.9064,-2.9584,-2.99,-3.0096,-2.9988,-2.9727,-2.9761,-2.9713,-2.9602,-1.863,-1.831,-1.8537,-1.9251,-1.9269,-1.9485,-2.0333,-2.0023,-1.9922,-2.0472,-2.0572,-2.0804,-2.1483,0.0,0.0,0.0,0.0,0.0,-2.1582,0.0,-2.2228,-2.1566,-2.1417,-2.1343,-2.1343,-2.1144,-2.1083,-2.1133,-2.1007,-2.0991,0.0,-2.0893,0.0,0.0,-2.1071,0.0,0.0,0.0,-2.1166,0.0,-2.2137,-2.1686,0.0,-2.0707,-2.1881,-2.3615,-2.4569,-2.4807,-2.4705,0.0,-2.4304,-2.3759,0.0,-2.3333,-2.29,-2.2913,0.0,0.0,0.0,0.0,0.0,0.0,-2.1294,0.0,0.0,0.0,0.0,0.0,0.0,0.0,0.0,0.0,0.0,0.0,0.0,0.0,0.0,0.0,0.0,0.0,0.0,0.0,0.0,-2.5664,-2.6132,-2.6253,-2.5819,-2.5582,-2.5733,-2.5715,-2.6014,-2.6736,-2.6937,-2.7382,-2.7955,-2.7955,-2.7955,-2.7955,-2.7955,-2.7905,-2.784,-2.7866,-2.8132,-2.8628,-2.8614,-2.8974,-2.9651,-3.0133,-3.0238,-3.0116,-3.0395,-3.0341,-3.005,-2.9884,-2.9713,-2.9602,-1.9817,-1.9695,-1.9778,-2.0082,-2.0072,-2.0356,-2.1272,-2.1552,-2.1763,-2.2082,-2.2166,-2.2438,0.0,0.0,0.0,0.0,0.0,-2.3468,0.0,0.0,-2.3205,-2.246,-2.2382,-2.2139,-2.162,-2.1103,-2.0784,-2.0647,-2.0183,-2.0152,0.0,0.0,0.0,0.0,-2.165,0.0,-2.1389,0.0,-2.1827,0.0,0.0,0.0,0.0,-2.2901,-2.384,-2.4846,-2.5319,-2.5432,-2.5355,0.0,-2.4971,0.0,0.0,0.0,0.0,0.0,0.0,0.0,0.0,0.0,0.0,0.0,0.0,0.0,-2.207,0.0,-2.1827,0.0,0.0,0.0,0.0,0.0,0.0,0.0,0.0,0.0,0.0,0.0,0.0,0.0,0.0,0.0,0.0,0.0,0.0,0.0,-2.6026,-2.5831,-2.567,-2.5781,-2.5866,-2.5954,-2.6903,-2.7426,-2.7428,-2.7987,-2.8171,-2.7905,-2.779,-2.774,-2.7675,-2.7675,-2.784,-2.8096,-2.8045,-2.821,-2.8591,-2.9589,-2.9928,-2.9882,-3.0587,-3.0628,-3.0401,-3.0387,-3.0326,-3.0205,-2.1484,0.0,0.0,-2.1025,-2.1061,-2.1371,-2.2363,-2.2968,0.0,0.0,0.0,0.0,-2.3885,-2.4081,0.0,0.0,-2.4362,-2.4395,0.0,0.0,-2.4032,0.0,0.0,0.0,-2.2289,-2.1549,-2.1081,-2.0945,-2.0153,-2.0059,0.0,0.0,0.0,0.0,0.0,-2.2052,-2.1854,0.0,-2.2524,-2.2459,-2.2981,-2.3618,-2.4232,-2.4922,-2.5362,-2.5605,-2.5642,-2.5659,-2.5567,-2.5432,-2.5371,0.0,-2.5355,0.0,0.0,0.0,0.0,0.0,-2.3213,0.0,0.0,0.0,0.0,0.0,0.0,0.0,0.0,0.0,0.0,0.0,0.0,0.0,0.0,0.0,0.0,0.0,0.0,0.0,0.0,0.0,0.0,0.0,0.0,0.0,0.0,-2.5924,-2.6104,-2.599,-2.554,-2.5789,-2.5797,-2.557,-2.6811,-2.7455,-2.7271,-2.8044,-2.8334,-2.8155,-2.7775,-2.766,-2.7795,-2.766,-2.7625,-2.7625,-2.7625,-2.7625,-2.773,-2.9026,-2.9579,-2.9714,-3.0715,-3.1043,-3.0821,-3.0762,-3.0702,-3.0628,-2.3477,-2.2096,0.0,0.0,0.0,0.0,0.0,0.0,0.0,0.0,0.0,0.0,0.0,0.0,0.0,0.0,0.0,-2.5205,-2.4355,0.0,-2.4946,0.0,0.0,-2.3951,0.0,-2.3205,-2.2824,-2.2824,-2.1944,-2.1524,0.0,0.0,0.0,0.0,-2.1622,-2.2075,-2.2857,-2.2891,-2.3719,-2.4977,-2.4993,-2.5456,-2.6101,0.0,-2.577,-2.5621,-2.5807,0.0,0.0,-2.5605,-2.5584,0.0,0.0,0.0,0.0,0.0,0.0,0.0,0.0,0.0,0.0,-2.3691,0.0,0.0,0.0,0.0,-2.2394,0.0,0.0,0.0,0.0,0.0,0.0,0.0,0.0,0.0,0.0,0.0,0.0,0.0,0.0,0.0,0.0,0.0,0.0,-2.5229,-2.5808,-2.599,-2.554,-2.5519,-2.5628,-2.5873,-2.6598,-2.7352,-2.7971,-2.8186,-2.8543,-2.9028,-2.8042,-2.7845,-2.824,-2.7795,-2.7625,-2.7625,-2.7625,-2.7625,-2.773,-2.9026,-2.9579,-2.9714,-3.0959,-3.1467,-3.1409,-3.0821,-3.0568,-3.0568,0.0,0.0,0.0,0.0,0.0,0.0,0.0,-2.4829,0.0,0.0,0.0,0.0,0.0,-2.6027,-2.6029,0.0,0.0,-2.625,-2.6095,-2.6068,0.0,0.0,0.0,-2.4497,0.0,0.0,-2.2659,-2.2162,-2.1404,0.0,0.0,0.0,0.0,0.0,0.0,-2.2909,0.0,0.0,0.0,0.0,0.0,-2.5557,-2.6168,0.0,0.0,-2.6007,-2.6059,-2.6043,0.0,-2.5844,-2.5824,-2.5787,-2.5807,-2.5696,-2.5508,-2.5167,-2.5451,0.0,0.0,0.0,-2.5723,-2.5226,0.0,0.0,0.0,0.0,0.0,0.0,0.0,0.0,0.0,0.0,0.0,0.0,0.0,0.0,0.0,0.0,0.0,0.0,0.0,0.0,0.0,0.0,0.0,-2.5128,-2.5789,-2.6132,-2.599,-2.5775,-2.567,-2.576,-2.6548,-2.7113,-2.7324,-2.7971,-2.8493,-2.8842,-2.8365,-2.8107,-2.8046,-2.8008,-2.7775,-2.7488,-2.7575,-2.7625,-2.773,-2.9026,-2.9579,-2.9714,-3.1016,-3.1482,-3.1482,-3.1292,-3.1176,-3.1176,-2.4646,0.0,0.0,0.0,0.0,0.0,0.0,0.0,0.0,0.0,-2.686,0.0,-2.7312,0.0,-2.7452,0.0,-2.7709,-2.7589,-2.7334,-2.7114,0.0,-2.5782,-2.5647,0.0,0.0,0.0,0.0,0.0,0.0,-2.1466,0.0,0.0,0.0,0.0,0.0,-2.3056,-2.4033,0.0,-2.5011,0.0,0.0,-2.5789,0.0,0.0,-2.6584,-2.6584,0.0,-2.6766,-2.6945,-2.6817,-2.678,-2.678,-2.678,-2.6688,-2.6466,-2.5875,-2.6026,-2.6257,-2.5499,-2.5824,0.0,-2.6063,-2.6154,0.0,-2.5469,0.0,0.0,0.0,0.0,0.0,0.0,0.0,0.0,0.0,0.0,0.0,0.0,0.0,0.0,0.0,0.0,0.0,0.0,0.0,-2.4398,-2.4696,-2.5392,-2.5957,0.0,0.0,-2.5957,-2.5921,-2.6776,-2.735,-2.7607,-2.8227,-2.8877,-2.9467,-2.8997,-2.8716,-2.8575,-2.8479,-2.8171,-2.769,-2.774,-2.7675,-2.773,-2.9026,-2.9678,-2.9943,-3.1061,-3.1482,-3.1482,-3.1482,-3.1482,-3.1482,0.0,0.0,0.0,0.0,-2.5742,0.0,0.0,0.0,-2.7228,0.0,-2.7813,-2.801,-2.7791,-2.827,-2.8746,-2.9143,-2.9386,-2.9128,-2.8083,-2.8135,0.0,0.0,-2.652,-2.6468,-2.6468,0.0,0.0,0.0,0.0,0.0,0.0,0.0,0.0,0.0,-2.1797,0.0,-2.4,-2.4,-2.4862,-2.622,-2.6253,-2.627,-2.6336,-2.7048,-2.7383,-2.7417,-2.7383,-2.7815,-2.8412,-2.8412,-2.8412,-2.8412,-2.8412,-2.8412,-2.8279,-2.7582,-2.7404,-2.7311,-2.6538,-2.6358,-2.6395,-2.6308,0.0,0.0,0.0,0.0,-2.528,0.0,0.0,0.0,0.0,0.0,0.0,0.0,0.0,0.0,0.0,0.0,0.0,0.0,0.0,0.0,0.0,-2.2672,-2.3316,-2.3983,-2.478,0.0,0.0,0.0,-2.64,-2.633,-2.7192,-2.7984,-2.8678,-2.8867,-2.9593,-3.0871,-2.9908,-2.9556,-2.9793,-2.9212,-2.8685,-2.822,-2.8103,-2.789,-2.7765,-2.9079,-2.9877,-3.0371,-3.1219,-3.1524,-3.1482,-3.1482,-3.1482,-3.1482,-2.6291,-2.6716,-2.7037,0.0,-2.694,-2.7018,0.0,0.0,0.0,0.0,-2.9142,-2.9418,-3.0065,-3.0048,-3.0016,-3.0132,-3.0198,0.0,0.0,0.0,0.0,-2.8935,-2.825,-2.7709,-2.7308,-2.65,0.0,-2.4957,0.0,0.0,-2.2797,0.0,0.0,0.0,0.0,0.0,-2.4,-2.4,-2.4862,-2.627,-2.68,-2.6998,0.0,0.0,-2.8423,-2.8804,-2.829,-2.8262,-2.8412,-2.8412,-2.8412,-2.8412,-2.8412,-2.8412,-2.834,-2.8158,-2.8244,-2.8306,-2.8122,-2.8182,-2.8157,-2.7406,-2.7308,-2.7227,0.0,0.0,0.0,0.0,0.0,0.0,0.0,0.0,0.0,0.0,0.0,0.0,0.0,0.0,0.0,0.0,0.0,0.0,0.0,-2.3201,-2.3946,-2.4257,-2.5464,0.0,0.0,0.0,0.0,-2.6537,-2.6722,-2.7372,-2.8548,-2.8411,-2.9114,-3.0609,-3.0172,-2.9881,-2.9745,-2.9733,-2.9422,-2.8934,-2.8559,-2.8431,-2.8572,-2.973,-3.0505,-3.1068,-3.1857,-3.191,-3.1482,-3.1482,-3.1482,-3.1482,-2.732,0.0,0.0,-2.7417,0.0,0.0,-2.8146,0.0,0.0,-2.9521,-2.9575,0.0,-3.0635,-3.0868,-3.1118,-3.1469,-3.1474,0.0,-3.0884,0.0,0.0,-2.9954,-2.942,-2.8843,-2.8185,-2.7639,0.0,-2.5916,0.0,0.0,-2.362,0.0,0.0,0.0,0.0,-2.2757,-2.3883,-2.4443,-2.5229,-2.627,-2.6982,0.0,0.0,-2.8808,-2.9304,-2.944,-2.9846,-2.9676,-2.9317,-2.9317,-2.9317,-2.9357,-2.9577,-2.9499,-2.9353,-2.9462,-2.9434,-2.9384,-2.9244,-2.9211,-2.909,-2.8541,-2.8386,-2.8093,-2.7212,-2.7113,-2.7216,0.0,0.0,0.0,0.0,0.0,0.0,0.0,0.0,0.0,0.0,0.0,0.0,0.0,0.0,0.0,0.0,0.0,0.0,0.0,0.0,0.0,0.0,0.0,0.0,-2.6657,-2.6589,-2.7278,-2.8699,-2.8531,-2.9226,-3.0814,-3.0692,-3.051,-3.0208,-3.0267,-3.0054,-2.9524,-2.9196,-2.9154,-2.9407,-3.0409,-3.1435,-3.2396,-3.266,-3.2532,-3.2256,-3.2256,-3.1951,-3.1482,-2.8587,0.0,0.0,0.0,0.0,0.0,0.0,-2.9355,0.0,-2.9763,0.0,-3.0119,-3.0755,-3.1451,-3.213,-3.2836,0.0,-3.2464,-3.1643,-3.1706,-3.1391,-3.0511,-3.0388,-2.9986,-2.9207,-2.8956,-2.8331,0.0,0.0,0.0,0.0,0.0,0.0,0.0,0.0,0.0,0.0,-2.5363,-2.6185,-2.6749,-2.7467,-2.8152,-2.8841,-3.0,-3.0159,-2.9934,-3.1472,-3.1414,-3.0593,-3.0658,-3.0699,-3.0781,-3.124,-3.1044,-3.0727,-3.0939,-3.0802,-3.045,-3.0243,-3.0002,-2.9833,-2.9729,-2.954,-2.9106,-2.8235,-2.8117,-2.8148,-2.8082,-2.7794,-2.7771,0.0,0.0,0.0,0.0,0.0,0.0,0.0,0.0,0.0,0.0,0.0,0.0,0.0,0.0,0.0,0.0,0.0,0.0,0.0,0.0,0.0,-2.6742,-2.6793,-2.7537,-2.9011,0.0,-2.9728,-3.119,-3.119,-3.1112,-3.0952,-3.0831,-3.0551,-3.0156,-3.0065,-3.0141,-3.0414,-3.1246,-3.2529,-3.3869,-3.3495,-3.3287,-3.3235,-3.3182,-3.2571,-3.1739,0.0,0.0,0.0,0.0,0.0,-2.9844,-3.0659,-3.0659,-3.0885,-3.171,-3.1819,-3.2109,-3.2936,-3.3154,-3.3328,-3.3455,-3.3444,0.0,0.0,0.0,0.0,-3.2581,-3.1984,-3.1403,-3.0821,-3.0201,-2.9292,0.0,0.0,0.0,0.0,0.0,0.0,0.0,0.0,0.0,-2.586,-2.7282,0.0,-2.9226,-2.992,-3.0247,-3.0489,-3.1339,-3.1616,-3.1597,-3.188,-3.164,-3.1218,-3.1603,-3.1733,-3.1733,-3.186,-3.1733,-3.1571,-3.1633,-3.1616,-3.1616,-3.1638,-3.169,-3.1585,-3.104,-3.0946,-3.0703,-2.9689,-2.9737,-2.9828,-2.9205,-2.9177,-2.9133,-2.863,0.0,0.0,0.0,0.0,0.0,0.0,0.0,0.0,0.0,0.0,0.0,0.0,0.0,0.0,0.0,0.0,0.0,0.0,0.0,0.0,0.0,-2.7351,0.0,0.0,0.0,-3.0306,-3.119,-3.119,-3.119,-3.1151,-3.1112,-3.1072,-3.1009,-3.109,-3.1593,-3.2433,-3.2974,-3.3771,-3.4592,-3.4284,-3.3937,-3.3495,-3.3287,-3.3093,-3.2879,0.0,0.0,0.0,0.0,0.0,0.0,0.0,-3.2111,0.0,-3.2254,-3.2254,-3.2409,-3.2893,-3.3294,-3.3549,-3.3605,-3.3577,-3.3549,-3.3549,-3.3538,-3.3404,-3.3256,-3.2925,0.0,-3.175,-3.1404,-3.0451,-2.8886,0.0,0.0,0.0,0.0,0.0,0.0,0.0,-2.5022,0.0,0.0,0.0,-2.9809,-3.0542,-3.1011,-3.1375,-3.2057,-3.2144,-3.195,-3.2504,-3.2317,-3.1896,-3.1967,-3.2003,-3.2021,-3.2283,-3.2092,-3.1897,-3.2401,-3.2453,-3.2369,-3.2636,-3.2716,-3.266,-3.2317,-3.2143,-3.1849,-3.0942,-3.0919,-3.0926,-3.0351,-3.0314,-3.0031,-2.8956,-2.8522,0.0,0.0,0.0,0.0,0.0,0.0,0.0,0.0,0.0,0.0,0.0,0.0,0.0,0.0,0.0,0.0,0.0,0.0,0.0,0.0,0.0,0.0,0.0,0.0,0.0,-3.119,-3.119,-3.119,-3.119,-3.119,-3.119,-3.1224,-3.1691,-3.232,-3.3136,-3.4125,-3.4781,-3.5207,-3.5052,-3.4847,-3.4609,-3.4382,-3.4301,-3.4185,0.0,-2.9152,0.0,0.0,-3.0965,0.0,-3.2485,-3.3341,-3.3569,-3.2627,-3.248,-3.248,-3.2536,-3.3099,-3.3509,-3.3549,-3.3491,-3.3481,-3.3481,-3.3422,-3.3393,-3.3393,-3.3393,-3.3103,-3.2469,-3.248,-3.166,0.0,0.0,0.0,0.0,0.0,0.0,0.0,0.0,0.0,0.0,0.0,-3.0004,-3.0527,-3.1109,-3.1637,-3.2162,-3.2603,-3.2504,-3.2248,-3.3042,-3.3042,-3.2586,-3.2385,-3.2283,-3.2351,-3.2702,-3.2519,-3.2282,-3.3073,-3.3073,-3.2943,-3.3334,-3.3357,-3.3262,-3.3291,-3.3118,-3.278,-3.214,-3.2067,-3.2007,-3.1516,-3.1287,-3.0782,-2.9517,-2.8992,0.0,0.0,0.0,0.0,0.0,0.0,0.0,0.0,0.0,0.0,0.0,0.0,0.0,0.0,0.0,-2.6673,-2.6038,-2.642,-2.6945,0.0,0.0,-2.8491,-2.9652,0.0,-3.0482,-3.1185,-3.1185,-3.1207,-3.119,-3.119,-3.1275,-3.1461,-3.2205,-3.2992,-3.3878,-3.5087,-3.5605,-3.5711,-3.5711,-3.5711,-3.5667,-3.5458,-3.5367,-3.5228,0.0,0.0,0.0,0.0,0.0,0.0,-3.2603,-3.388,-3.4541,-3.3587,-3.3354,-3.3284,-3.3284,-3.3357,-3.3393,-3.3422,-3.3393,-3.3393,-3.3393,-3.3393,-3.3393,-3.3393,-3.3393,-3.3357,-3.3284,-3.3343,-3.285,0.0,0.0,0.0,0.0,0.0,0.0,0.0,0.0,0.0,0.0,-3.1384,-3.2259,-3.3039,-3.3039,-3.3081,-3.3183,-3.3274,-3.3286,-3.3256,-3.3364,-3.3364,-3.3286,-3.3274,-3.3244,-3.3201,-3.3232,-3.3244,-3.3256,-3.3292,-3.3322,-3.3364,-3.3481,-3.3462,-3.3491,-3.3549,-3.368,-3.3698,-3.3411,-3.366,-3.3679,-3.2676,-3.2072,-3.1436,-3.0457,-3.0226,-2.9858,0.0,0.0,0.0,0.0,0.0,0.0,0.0,0.0,0.0,0.0,0.0,0.0,0.0,0.0,-2.6347,-2.6933,-2.6691,-2.6588,-2.6707,0.0,-2.8703,-2.8912,-3.018,-3.0918,-3.119,-3.119,-3.1196,-3.119,-3.119,-3.1546,-3.2222,-3.2983,-3.4159,-3.5586,-3.5985,-3.6122,-3.6122,-3.6019,-3.5975,-3.5932,-3.5667,-3.5577,-3.5532,0.0,0.0,0.0,0.0,0.0,0.0,0.0,-3.5235,-3.5782,-3.5395,-3.5133,-3.4957,-3.4957,-3.4885,-3.4842,-3.4842,-3.4842,-3.4643,-3.4154,-3.4117,-3.39,-3.3429,-3.3452,-3.3452,-3.3452,-3.352,-3.311,0.0,0.0,0.0,0.0,0.0,0.0,0.0,0.0,-3.0448,-3.1679,-3.2491,-3.3015,-3.3322,-3.3292,-3.331,-3.3292,-3.3322,-3.3352,-3.3352,-3.3352,-3.3274,-3.3226,-3.3304,-3.3352,-3.3352,-3.3352,-3.3352,-3.3322,-3.331,-3.3352,-3.3411,-3.3422,-3.352,-3.3633,-3.3643,-3.378,-3.3868,-3.3834,-3.3972,-3.4031,-3.3642,-3.3012,-3.2414,-3.2034,-3.1347,-3.0748,0.0,0.0,0.0,0.0,0.0,0.0,0.0,0.0,0.0,0.0,0.0,0.0,0.0,0.0,0.0,-2.7164,-2.7384,-2.7639,-2.7919,0.0,-2.9515,-3.0062,-3.061,-3.0929,-3.1002,-3.1133,-3.1156,-3.1112,-3.1765,-3.2652,-3.3626,-3.3931,-3.4701,-3.5817,-3.5905,-3.5993,-3.6079,-3.6122,-3.6122,-3.6079,-3.5888,-3.5844,-3.58,-3.3261,0.0,-3.3976,0.0,-3.5314,-3.5729,-3.585,-3.6459,-3.6906,-3.6906,-3.6885,-3.6644,-3.6079,-3.5939,-3.5833,-3.5802,-3.582,-3.5566,-3.5005,-3.4733,-3.4353,-3.3791,-3.3579,0.0,-3.3481,-3.352,-3.3276,-3.2637,-3.1783,0.0,0.0,0.0,0.0,0.0,-3.0908,-3.1686,-3.2509,-3.3128,-3.3382,-3.3322,-3.3322,-3.3322,-3.3322,-3.3322,-3.3322,-3.3322,-3.3322,-3.3274,-3.3196,-3.3292,-3.3352,-3.3411,-3.3382,-3.3382,-3.3352,-3.3322,-3.3411,-3.3452,-3.3452,-3.3549,-3.3671,-3.3671,-3.3753,-3.3842,-3.3895,-3.3972,-3.4074,-3.4148,-3.3733,-3.3343,-3.3343,-3.2428,-3.1734,-3.2024,0.0,0.0,0.0,0.0,0.0,0.0,-2.9352,-2.9234,-2.9529,0.0,0.0,0.0,0.0,0.0,-2.7636,-2.7959,0.0,0.0,0.0,0.0,0.0,-3.0754,-3.0831,-3.0831,-3.0945,-3.1127,-3.1369,-3.2645,-3.3668,-3.4506,-3.4726,-3.5176,-3.5711,-3.5773,-3.5905,-3.6019,-3.6122,-3.6208,-3.6208,-3.6105,-3.6105,-3.6062,-3.5235,-3.5927,-3.649,-3.6642,-3.6668,-3.6668,-3.6686,-3.7373,-3.7875,-3.7875,-3.846,-3.8129,-3.6188,-3.5994,-3.5951,-3.5802,-3.582,-3.582,-3.5802,-3.5041,-3.4606,0.0,0.0,-3.3393,-3.3393,-3.3481,-3.3509,-3.3491,0.0,0.0,-3.2219,0.0,-3.1327,-3.2162,-3.2112,-3.2564,-3.3393,-3.3393,-3.3393,-3.3393,-3.3393,-3.3393,-3.3393,-3.3393,-3.3393,-3.3393,-3.3393,-3.3411,-3.3411,-3.3393,-3.3393,-3.3411,-3.3322,-3.3411,-3.3481,-3.3422,-3.3491,-3.3605,-3.3605,-3.3605,-3.3605,-3.3605,-3.3643,-3.3698,-3.3698,-3.3807,-3.3947,-3.4074,-3.4148,-3.4179,-3.4179,-3.3528,-3.2924,-3.2711,0.0,0.0,0.0,0.0,0.0,0.0,-2.9802,-2.9673,-3.0337,0.0,0.0,0.0,0.0,0.0,0.0,0.0,0.0,-2.8794,-2.9437,0.0,-2.9711,-3.0366,-3.0692,-3.0692,-3.0551,-3.1057,-3.2143,-3.3753,-3.4472,-3.4539,-3.5284,-3.5605,-3.5622,-3.5773,-3.5905,-3.6019,-3.6122,-3.6251,-3.6301,-3.6301,-3.6301,-3.6259,-3.6244,-3.6467,-3.6634,-3.6686,-3.7151,-3.7522,-3.7522,-3.8191,-3.8711,-3.8711,-3.8906,-3.8775,-3.8055,-3.7772,-3.7571,0.0,-3.7431,-3.7196,0.0,-3.6363,-3.5747,-3.4661,-3.4383,-3.4043,-3.3538,-3.3605,-3.3643,-3.3698,0.0,0.0,0.0,-3.2074,-3.2356,-3.3166,-3.3138,-3.3255,-3.3481,-3.3481,-3.3452,-3.3393,-3.3393,-3.3393,-3.3393,-3.3393,-3.3393,-3.3393,-3.3393,-3.3393,-3.3393,-3.3393,-3.3393,-3.3411,-3.3382,-3.3411,-3.3422,-3.3411,-3.3422,-3.3452,-3.3452,-3.3452,-3.3452,-3.3452,-3.3491,-3.3577,-3.3633,-3.378,-3.3921,-3.3947,-3.4049,-3.4124,-3.4124,-3.3969,-3.3783,-3.3734,-3.3115,0.0,0.0,0.0,0.0,0.0,-3.1144,-3.1078,0.0,-3.1029,0.0,0.0,0.0,0.0,0.0,0.0,0.0,0.0,-3.0523,0.0,-3.0784,-3.0818,-3.1041,-3.1441,-3.1574,-3.2295,-3.3607,-3.4226,-3.4749,-3.5183,-3.5476,-3.5594,-3.552,-3.5583,-3.5611,-3.5656,-3.5878,-3.5993,-3.6105,-3.6259,-3.6301,-3.6301,-3.7177,-3.7392,-3.7596,-3.7596,-3.8024,-3.8339,-3.8339,-3.8785,-3.9101,-3.9101,-3.9101,-3.9045,-3.8921,-3.8713,0.0,-3.8289,-3.8241,-3.7975,-3.7468,-3.7192,-3.6544,-3.5548,-3.5296,-3.4793,-3.4022,-3.4099,0.0,-3.378,-3.324,-3.2975,-3.2921,-3.2894,-3.3168,-3.3633,-3.3605,-3.3577,-3.352,-3.352,-3.3509,-3.3422,-3.3422,-3.3422,-3.3393,-3.3393,-3.3393,-3.3393,-3.3393,-3.3393,-3.3393,-3.3393,-3.3393,-3.3393,-3.3393,-3.3393,-3.3393,-3.3393,-3.3393,-3.3393,-3.3393,-3.3393,-3.3393,-3.3393,-3.3422,-3.3481,-3.3549,-3.3671,-3.3807,-3.3842,-3.3947,-3.4049,-3.4099,-3.4124,-3.4173,-3.4197,-3.377,-3.3436,-3.3436,0.0,0.0,0.0,0.0,0.0,0.0,-3.204,-3.2078,0.0,0.0,0.0,0.0,0.0,0.0,-3.1444,-3.1636,0.0,-3.1679,-3.1649,-3.1782,-3.2068,-3.2622,-3.3335,-3.4181,-3.4617,-3.502,-3.5446,-3.5458,-3.5458,-3.5446,-3.5446,-3.5429,-3.5475,-3.5639,-3.5844,-3.6019,-3.6191,-3.6259,-3.6301,-3.8074,-3.8608,0.0,0.0,-3.9129,0.0,-3.9101,-3.9101,-3.9101,-3.9101,-3.9101,-3.9045,-3.8921,-3.891,-3.8773,-3.8446,0.0,0.0,0.0,-3.7519,-3.7065,-3.7011,-3.6349,-3.5599,-3.4818,-3.4856,-3.4485,-3.3698,-3.378,-3.3807,-3.3807,-3.3726,-3.3698,-3.3698,-3.3643,-3.3605,-3.3605,-3.3605,-3.3577,-3.3509,-3.3509,-3.3481,-3.3393,-3.3393,-3.3393,-3.3393,-3.3393,-3.3393,-3.3393,-3.3393,-3.3393,-3.3393,-3.3393,-3.3393,-3.3393,-3.3393,-3.3393,-3.3393,-3.3393,-3.3393,-3.3411,-3.3465,-3.3538,-3.3586,-3.3644,-3.3676,-3.3706,-3.3844,-3.3897,-3.3921,-3.4049,-3.4099,-3.4124,-3.4173,-3.4197,-3.4197,-3.4197,0.0,0.0,0.0,0.0,0.0,0.0,-3.2847,-3.3167,0.0,0.0,0.0,0.0,0.0,-3.1505,-3.2702,-3.2759,-3.2681,-3.2451,-3.286,-3.2942,-3.2752,-3.3794,-3.4253,-3.4134,-3.4973,-3.5291,-3.5291,-3.5308,-3.5291,-3.5291,-3.5291,-3.5321,-3.5379,-3.5515,-3.5756,-3.5975,-3.6122,-3.6233,-3.6301,0.0,0.0,-3.9165,-3.9376,-3.9245,-3.9101,-3.9101,-3.9101,-3.9101,-3.9101,-3.9101,-3.9101,-3.9045,-3.895,-3.8862,-3.8773,-3.8528,-3.8336,-3.8336,-3.8092,-3.7631,-3.7047,-3.683,-3.639,-3.5623,-3.5107,-3.4493,-3.378,-3.3788,-3.3807,-3.3807,-3.378,-3.378,-3.378,-3.3753,-3.3726,-3.3671,-3.3671,-3.3633,-3.3577,-3.3577,-3.3577,-3.3549,-3.3549,-3.3549,-3.3549,-3.3549,-3.3549,-3.3549,-3.3549,-3.3549,-3.3549,-3.3549,-3.3549,-3.352,-3.3422,-3.3393,-3.3393,-3.3393,-3.3393,-3.3556,-3.4172,-3.4787,-3.524,-3.524,-3.4842,-3.4448,-3.4477,-3.4137,-3.3815,-3.3868,-3.3947,-3.4049,-3.4124,-3.4124,-3.4148,-3.4197,-3.4197,0.0,0.0,-3.3802,-3.3802,-3.3852,-3.3802,-3.3845,0.0,0.0,0.0,0.0,-3.3545,-3.325,-3.3148,-3.3615,-3.3809,-3.3745,-3.4333,-3.4729,-3.4853,-3.5241,-3.5324,-3.5081,-3.5402,-3.5412,-3.5152,-3.5245,-3.5245,-3.5152,-3.5152,-3.5135,-3.5182,-3.5379,-3.556,-3.5711,-3.5975,-3.6122,-3.6208,-3.9797,-3.9595,-3.947,-3.9614,-3.9458,-3.9272,-3.9272,-3.9272,-3.9272,-3.9272,-3.9272,-3.9272,-3.9272,-3.9101,-3.9007,-3.9007,-3.8713,-3.8528,-3.851,-3.8415,-3.8186,-3.7731,-3.7794,-3.746,-3.6687,-3.6259,-3.5454,-3.4303,-3.4303,-3.4147,-3.3807,-3.3807,-3.3807,-3.3807,-3.3807,-3.378,-3.3753,-3.3753,-3.3698,-3.3661,-3.3661,-3.3633,-3.3605,-3.3605,-3.3605,-3.3605,-3.3605,-3.3605,-3.3605,-3.3605,-3.3605,-3.3605,-3.3605,-3.3605,-3.3577,-3.3491,-3.3481,-3.3513,-3.3846,-3.3954,-3.4154,-3.495,-3.5494,-3.582,-3.582,-3.5489,-3.5211,-3.5242,-3.4998,-3.4786,-3.488,-3.4651,-3.4492,-3.4615,-3.4333,-3.4124,-3.4148,-3.4173,0.0,-3.4197,-3.4173,-3.4173,-3.4197,-3.4173,-3.429,-3.4654,-3.4266,0.0,-3.5192,-3.5266,-3.5003,-3.433,-3.4989,-3.5305,-3.5246,-3.5702,-3.6076,-3.6312,-3.6191,-3.5933,-3.5671,-3.5515,-3.5321,-3.4994,-3.5105,-3.5105,-3.4994,-3.4994,-3.4994,-3.5041,-3.5228,-3.535,-3.5515,-3.5756,-3.5932,-3.6122,-3.9944,-3.984,-3.9819,-3.984,-3.9702,-3.9556,-3.9556,-3.9556,-3.9556,-3.9556,-3.9556,-3.9556,-3.9556,-3.9305,-3.9156,-3.9156,-3.8939,-3.8732,-3.8664,-3.8634,-3.8634,-3.8585,-3.8713,-3.846,-3.775,-3.761,-3.6743,-3.5135,-3.5117,-3.4797,-3.4201,-3.4174,-3.4174,-3.4201,-3.4072,-3.4017,-3.4017,-3.3889,-3.378,-3.3726,-3.3726,-3.3671,-3.3661,-3.3661,-3.3643,-3.3643,-3.3643,-3.3661,-3.3661,-3.3661,-3.3661,-3.3661,-3.3661,-3.3734,-3.3844,-3.3816,-3.3879,-3.4029,-3.4504,-3.48,-3.5131,-3.582,-3.6073,-3.6164,-3.6164,-3.6073,-3.5983,-3.6028,-3.5968,-3.5939,-3.6113,-3.5604,-3.522,-3.5395,-3.4847,-3.4419,-3.4444,0.0,-3.4563,-3.4563,-3.4563,-3.4563,-3.4563,-3.4563,-3.486,-3.5627,-3.5683,-3.5962,-3.6649,-3.6816,-3.6556,-3.5869,-3.6519,-3.6875,-3.6897,-3.7004,-3.7172,-3.738,-3.6911,-3.6516,-3.6187,-3.5749,-3.5379,-3.5131,-3.5024,-3.4994,-3.4977,-3.4947,-3.4899,-3.4899,-3.5041,-3.5211,-3.5379,-3.5532,-3.5756,-3.5932,-4.0372,-4.0082,-3.9861,-4.0101,-3.9922,-3.9754,-3.9754,-3.9754,-3.9754,-3.9754,-3.9754,-3.9754,-3.9754,-3.9561,-3.9452,-3.9452,-3.9192,-3.9007,-3.8862,-3.8732,-3.867,-3.8585,-3.8615,-3.856,-3.845,-3.7868,-3.7163,-3.6261,-3.6084,-3.6019,-3.5984,-3.5834,-3.5834,-3.5965,-3.5285,-3.5026,-3.5024,-3.4234,-3.3868,-3.3868,-3.3807,-3.3815,-3.3842,-3.3842,-3.3895,-3.3921,-3.3868,-3.3842,-3.3842,-3.3842,-3.3842,-3.3868,-3.3921,-3.441,-3.4917,-3.4825,-3.5292,-3.5685,-3.4984,-3.5703,-3.6731,-3.6794,-3.7305,-3.783,-3.783,-3.7286,-3.6798,-3.683,-3.6318,-3.5926,-3.5939,-3.5891,-3.5889,-3.6046,-3.5946,-3.5929,-3.6103,0.0,-3.6149,-3.6149,-3.6149,-3.6149,-3.6149,-3.6202,-3.6284,-3.6414,-3.6493,-3.6556,-3.6686,-3.7336,-3.7652,-3.7522,-3.7652,-3.8042,-3.8683,-3.8334,-3.8177,-3.819,-3.7736,-3.7398,-3.7159,-3.6711,-3.6429,-3.6312,-3.5588,-3.535,-3.5453,-3.5071,-3.4899,-3.4899,-3.5041,-3.5135,-3.5182,-3.5429,-3.5566,-3.5667,-4.0473,-4.0319,-4.0212,-4.0339,-4.0157,-4.0022,-4.0022,-4.0022,-4.0022,-4.0022,-3.9901,-3.9797,-3.9797,-3.947,-3.9298,-3.9298,-3.9165,-3.9073,-3.8989,-3.895,-3.8892,-3.8855,-3.8855,-3.8844,-3.8755,-3.8453,-3.7893,-3.7081,-3.6977,-3.6785,-3.6436,-3.6362,-3.6362,-3.6445,-3.6067,-3.591,-3.5927,-3.5467,-3.5301,-3.5319,-3.5266,-3.5274,-3.5301,-3.5301,-3.5301,-3.5328,-3.5301,-3.5301,-3.5301,-3.5301,-3.5301,-3.5319,-3.5346,-3.5605,-3.5883,-3.5837,-3.6266,-3.6717,-3.6362,-3.7052,-3.7854,-3.7758,-3.8031,-3.8289,-3.8225,-3.7902,-3.7631,-3.7631,-3.7374,-3.7152,-3.7166,-3.6867,-3.6619,-3.6723,-3.6446,0.0,0.0,-3.6436,-3.6509,-3.6509,-3.6509,-3.6509,-3.6509,-3.6564,-3.6776,-3.7202,-3.7302,-3.7541,-3.7968,-3.8339,-3.8544,-3.8544,-3.8544,-3.8711,-3.9101,-3.8894,-3.8789,-3.8759,-3.8305,-3.7975,-3.7769,-3.7288,-3.697,-3.6781,-3.6377,-3.6205,-3.6096,-3.5681,-3.5419,-3.5241,-3.5071,-3.5058,-3.5135,-3.5291,-3.5475,-3.5549,-4.0539,-4.0519,-4.0519,-4.0504,-4.0372,-4.0269,-4.0269,-4.0269,-4.0269,-4.0269,-4.0082,-3.9964,-3.9964,-3.9524,-3.9253,-3.9253,-3.9165,-3.9101,-3.9101,-3.9101,-3.9101,-3.9101,-3.9101,-3.9045,-3.895,-3.895,-3.8625,-3.7958,-3.7929,-3.7626,-3.7073,-3.7045,-3.7045,-3.7054,-3.6869,-3.6823,-3.6832,-3.6619,-3.6527,-3.6527,-3.6518,-3.65,-3.6527,-3.6527,-3.6527,-3.6527,-3.6527,-3.6527,-3.6527,-3.6527,-3.6527,-3.6527,-3.6589,-3.6692,-3.6804,-3.684,-3.7219,-3.7644,-3.7753,-3.8193,-3.8541,-3.8478,-3.8465,-3.8433,-3.8322,-3.8289,-3.8289,-3.8241,-3.8274,-3.8307,-3.8274,-3.7812,-3.7458,-3.7502,0.0,0.0,0.0,-3.6961,-3.7036,-3.7036,-3.7007,-3.7026,-3.7036,-3.7091,-3.7405,-3.8016,-3.8136,-3.8451,-3.9064,-3.9073,-3.9073,-3.9073,-3.9101,-3.9101,-3.9101,-3.9101,-3.9101,-3.9101,-3.873,-3.848,-3.8319,-3.7855,-3.7542,-3.7417,-3.718,-3.7011,-3.6816,-3.6377,-3.6079,-3.5873,-3.5419,-3.5345,-3.5453,-3.5515,-3.5622,-3.5773,-4.0603,-4.0598,-4.0559,-4.0504,-4.0489,-4.0473,-4.0473,-4.0473,-4.0473,-4.0473,-4.0473,-4.0457,-4.0457,-4.0024,-3.9754,-3.9754,-3.9364,-3.9101,-3.9101,-3.9101,-3.9101,-3.9101,-3.9101,-3.9101,-3.9073,-3.9073,-3.9036,-3.898,-3.8857,-3.881,-3.8812,-3.8696,-3.8696,-3.8775,-3.8035,-3.7738,-3.7718,-3.6941,-3.6581,-3.6581,-3.6527,-3.6527,-3.6581,-3.6581,-3.6634,-3.666,-3.6607,-3.6581,-3.6581,-3.6581,-3.6581,-3.6634,-3.6868,-3.7305,-3.7738,-3.7935,-3.8366,-3.8741,-3.873,-3.8737,-3.8743,-3.8634,-3.8621,-3.8658,-3.8572,-3.8554,-3.8541,-3.8415,-3.8478,-3.851,-3.8241,-3.83,-3.8418,-3.8511,0.0,0.0,-3.8783,-3.8696,-3.8637,-3.8637,-3.8584,-3.8566,-3.8608,-3.8696,-3.8773,-3.8886,-3.8952,-3.9045,-3.9101,-3.9036,-3.9007,-3.9007,-3.9073,-3.9101,-3.9101,-3.9101,-3.9101,-3.9101,-3.9055,-3.9027,-3.9027,-3.8542,-3.8436,-3.8615,-3.7771,-3.747,-3.7578,-3.7066,-3.6819,-3.6798,-3.6475,-3.6388,-3.6388,-3.6316,-3.6374,-3.6557,-4.0612,-4.0564,-4.0534,-4.0573,-4.0527,-4.0495,-4.0489,-4.0489,-4.0489,-4.0489,-4.0389,-4.0321,-4.0321,-4.0003,-3.9797,-3.9797,-3.9641,-3.9524,-3.9524,-3.9524,-3.9396,-3.9129,-3.9101,-3.9101,-3.9101,-3.9101,-3.9101,-3.9101,-3.9045,-3.9036,-3.9045,-3.8989,-3.9017,-3.9045,-3.873,-3.8628,-3.8618,-3.8294,-3.8253,-3.8408,-3.8364,-3.8446,-3.8578,-3.8578,-3.8602,-3.862,-3.8446,-3.839,-3.839,-3.839,-3.839,-3.844,-3.8652,-3.8878,-3.9024,-3.897,-3.8984,-3.9017,-3.8989,-3.895,-3.8892,-3.8803,-3.8822,-3.8773,-3.8615,-3.8585,-3.8603,-3.8578,-3.859,-3.8572,-3.8533,-3.8483,-3.851,-3.8695,0.0,-3.8713,-3.8892,-3.8921,-3.8892,-3.8822,-3.8762,-3.875,-3.875,-3.8792,-3.8881,-3.8921,-3.9007,-3.9064,-3.9101,-3.9073,-3.9045,-3.9045,-3.9073,-3.9101,-3.9101,-3.9101,-3.9101,-3.9101,-3.9101,-3.9101,-3.9101,-3.8923,-3.8884,-3.896,-3.8603,-3.8418,-3.8342,-3.7855,-3.7542,-3.7344,-3.6973,-3.6798,-3.6738,-3.6812,-3.6768,-3.6684,-4.0635,-4.0593,-4.0564,-4.0603,-4.0558,-4.0543,-4.0534,-4.0534,-4.0534,-4.0534,-4.0389,-4.0304,-4.0321,-4.0062,-3.9901,-3.9922,-3.984,-3.9797,-3.9797,-3.9797,-3.9637,-3.9245,-3.9279,-3.9305,-3.9219,-3.9279,-3.9279,-3.9219,-3.9219,-3.9219,-3.9219,-3.9156,-3.9137,-3.9219,-3.9219,-3.9219,-3.9227,-3.9287,-3.9421,-3.9637,-3.9609,-3.9683,-3.9819,-3.9819,-3.9797,-3.9775,-3.9637,-3.9585,-3.9585,-3.9585,-3.9585,-3.9632,-3.9859,-3.9922,-3.988,-3.9679,-3.9464,-3.9313,-3.9313,-3.9305,-3.92,-3.9017,-3.895,-3.895,-3.8796,-3.8766,-3.8755,-3.8762,-3.8773,-3.8755,-3.8689,-3.864,-3.8634,-3.8833,-3.8785,-3.8815,-3.9026,-3.9036,-3.9007,-3.8921,-3.8921,-3.8881,-3.881,-3.8822,-3.8862,-3.891,-3.8921,-3.8979,-3.9017,-3.9073,-3.9101,-3.9073,-3.9101,-3.9101,-3.9101,-3.9101,-3.9101,-3.9101,-3.9101,-3.9101,-3.9101,-3.9101,-3.9101,-3.9101,-3.9101,-3.9017,-3.8862,-3.853,-3.8255,-3.8059,-3.7665,-3.7471,-3.7453,-3.7488,-3.7397,-3.7268,-4.0713,-4.0707,-4.0681,-4.0602,-4.0588,-4.0588,-4.0588,-4.0588,-4.0588,-4.0588,-4.0549,-4.0523,-4.0588,-4.0304,-4.012,-4.0196,-3.9963,-3.9797,-3.9797,-3.9797,-3.9728,-3.9508,-3.9705,-3.9705,-3.9526,-3.9705,-3.9705,-3.9483,-3.9483,-3.9483,-3.9502,-3.9219,-3.9245,-3.9483,-3.9483,-3.9513,-3.9524,-3.9731,-3.9823,-3.9907,-3.9842,-3.984,-3.9901,-3.9819,-3.9819,-3.9819,-3.9797,-3.9797,-3.9797,-3.9797,-3.9797,-3.984,-4.012,-4.0214,-4.0139,-3.9882,-3.9797,-3.9797,-3.9797,-3.9797,-3.9687,-3.9227,-3.9101,-3.9101,-3.9101,-3.9101,-3.9073,-3.8921,-3.9007,-3.9017,-3.875,-3.887,-3.9007,-3.8989,-3.9007,-3.911,-3.9346,-3.9248,-3.9129,-3.9183,-3.9129,-3.9073,-3.9007,-3.8979,-3.8979,-3.891,-3.891,-3.891,-3.891,-3.9036,-3.9073,-3.9007,-3.9045,-3.9101,-3.9101,-3.9101,-3.9101,-3.9101,-3.9101,-3.9101,-3.9101,-3.9101,-3.9101,-3.9101,-3.9101,-3.9101,-3.9101,-3.9036,-3.8979,-3.8979,-3.8725,-3.8615,-3.8585,-3.8446,-3.8446,-3.851,-4.0759,-4.0694,-4.0648,-4.0668,-4.0626,-4.0598,-4.0607,-4.0588,-4.0588,-4.0588,-4.0574,-4.0579,-4.0593,-4.0454,-4.0389,-4.0425,-4.0286,-4.0233,-4.0288,-4.0288,-4.0196,-4.0001,-3.988,-3.9775,-3.9728,-3.9775,-3.9775,-3.9705,-3.9705,-3.9705,-3.9705,-3.9618,-3.9618,-3.9705,-3.9705,-3.9709,-3.9731,-3.9819,-3.9964,-4.01,-4.0101,-4.0212,-4.0372,-4.0319,-4.0283,-4.0266,-4.012,-4.0081,-4.0081,-4.0081,-4.0081,-4.012,-4.0339,-4.0321,-4.0177,-4.0101,-3.9943,-3.9797,-3.9797,-3.9797,-3.9775,-3.9618,-3.9595,-3.9566,-3.9408,-3.9376,-3.9324,-3.9101,-3.9073,-3.9073,-3.9007,-3.895,-3.8979,-3.9129,-3.9073,-3.9045,-3.9229,-3.9301,-3.9275,-3.9129,-3.9156,-3.9129,-3.9073,-3.9073,-3.9045,-3.8997,-3.8939,-3.891,-3.891,-3.8921,-3.895,-3.8921,-3.895,-3.895,-3.895,-3.9045,-3.9101,-3.9101,-3.9101,-3.9101,-3.9101,-3.9101,-3.9101,-3.9101,-3.9101,-3.9101,-3.9101,-3.9073,-3.9073,-3.9045,-3.897,-3.8931,-3.8892,-3.8833,-3.8725,-3.8554,-4.079,-4.0726,-4.0681,-4.0733,-4.0706,-4.0679,-4.0668,-4.0681,-4.0681,-4.0681,-4.0635,-4.0621,-4.0654,-4.0583,-4.0539,-4.0534,-4.0489,-4.046,-4.0449,-4.0482,-4.0427,-4.0307,-4.012,-4.0002,-3.9922,-4.0022,-4.0022,-3.9922,-3.9943,-3.9963,-3.9963,-3.984,-3.9861,-3.9963,-3.9963,-3.9963,-3.9964,-4.0082,-4.0211,-4.0367,-4.0334,-4.0422,-4.0588,-4.0523,-4.0489,-4.0489,-4.0356,-4.0321,-4.0321,-4.0321,-4.0321,-4.0339,-4.0457,-4.0425,-4.0321,-4.0321,-4.0194,-4.0082,-4.0082,-4.0082,-4.0082,-4.0082,-3.9944,-3.9775,-3.9656,-3.9632,-3.9585,-3.9414,-3.9305,-3.9245,-3.9245,-3.9101,-3.9036,-3.9129,-3.9101,-3.9073,-3.9183,-3.9256,-3.9301,-3.9256,-3.9283,-3.9283,-3.921,-3.9165,-3.9156,-3.9064,-3.9036,-3.9007,-3.8921,-3.895,-3.895,-3.8892,-3.891,-3.891,-3.891,-3.8979,-3.9017,-3.9045,-3.9073,-3.9101,-3.9101,-3.9101,-3.9101,-3.9101,-3.9101,-3.9101,-3.9101,-3.9101,-3.9101,-3.9101,-3.9101,-3.9073,-3.9036,-3.9036,-3.8931,-3.8796,-4.079,-4.079,-4.079,-4.079,-4.079,-4.079,-4.079,-4.079,-4.079,-4.079,-4.0681,-4.0635,-4.07,-4.0631,-4.0603,-4.0607,-4.0593,-4.0519,-4.0396,-4.0444,-4.046,-4.0396,-4.0379,-4.0307,-4.012,-4.036,-4.0379,-4.0139,-4.0196,-4.0214,-4.0233,-3.9983,-3.9983,-4.0233,-4.0233,-4.0232,-4.0229,-4.0422,-4.0549,-4.0588,-4.0534,-4.0558,-4.0588,-4.0523,-4.0489,-4.0489,-4.0489,-4.0489,-4.0489,-4.0489,-4.0489,-4.0489,-4.0489,-4.0489,-4.0489,-4.0489,-4.0489,-4.0489,-4.0489,-4.0489,-4.0489,-4.0489,-4.0194,-3.9861,-3.984,-3.984,-3.9819,-3.9797,-3.9637,-3.9532,-3.9532,-3.9305,-3.9156,-3.9156,-3.9129,-3.9129,-3.9183,-3.9183,-3.9283,-3.9451,-3.9495,-3.9451,-3.9317,-3.9298,-3.9245,-3.9129,-3.9156,-3.9129,-3.9007,-3.9073,-3.9045,-3.8921,-3.891,-3.891,-3.891,-3.8892,-3.8939,-3.8979,-3.9045,-3.9101,-3.9101,-3.9101,-3.9101,-3.9101,-3.9101,-3.9101,-3.9101,-3.9101,-3.9101,-3.9101,-3.9101,-3.9101,-3.9101,-3.9101,-3.9101,-3.9101,-4.079,-4.079,-4.079,-4.079,-4.079,-4.079,-4.079,-4.079,-4.079,-4.079,-4.0759,-4.0759,-4.0778,-4.0668,-4.0607,-4.0588,-4.0504,-4.0411,-4.0325,-4.0342,-4.036,-4.0398,-4.0362,-4.0307,-4.0252,-4.0362,-4.0432,-4.0413,-4.0379,-4.0377,-4.0441,-4.0377,-4.0394,-4.0422,-4.0422,-4.0422,-4.0438,-4.0539,-4.0588,-4.0603,-4.0588,-4.0592,-4.0588,-4.0523,-4.0489,-4.0489,-4.0489,-4.0489,-4.0489,-4.0489,-4.0489,-4.0489,-4.0489,-4.0489,-4.0489,-4.0489,-4.0489,-4.0489,-4.0489,-4.0489,-4.0489,-4.0489,-4.0422,-4.0302,-4.0158,-4.012,-4.0062,-3.984,-3.9754,-3.9731,-3.9731,-3.9561,-3.9408,-3.9408,-3.9245,-3.9101,-3.9129,-3.9156,-3.921,-3.9256,-3.9373,-3.9418,-3.9373,-3.9283,-3.921,-3.9183,-3.9156,-3.9101,-3.9073,-3.9101,-3.9073,-3.9045,-3.895,-3.891,-3.891,-3.8851,-3.8862,-3.8979,-3.9007,-3.9064,-3.9101,-3.9101,-3.9101,-3.9101,-3.9101,-3.9101,-3.9101,-3.9101,-3.9101,-3.9101,-3.9101,-3.9101,-3.9101,-3.9101,-3.9101,-3.9101,-4.079,-4.079,-4.079,-4.079,-4.079,-4.079,-4.079,-4.079,-4.079,-4.079,-4.079,-4.079,-4.079,-4.0746,-4.0654,-4.0564,-4.0569,-4.0527,-4.036,-4.0394,-4.0394,-4.0396,-4.0345,-4.0309,-4.0309,-4.0327,-4.0363,-4.0396,-4.0396,-4.0413,-4.0444,-4.0466,-4.0447,-4.0444,-4.0495,-4.0495,-4.0511,-4.0543,-4.0539,-4.0539,-4.0539,-4.0539,-4.0539,-4.0504,-4.0489,-4.0489,-4.0489,-4.0489,-4.0489,-4.0489,-4.0489,-4.0489,-4.0489,-4.0489,-4.0489,-4.0489,-4.0489,-4.0489,-4.0489,-4.0489,-4.0489,-4.0489,-4.0489,-4.0588,-4.0893,-4.0645,-4.0419,-4.0711,-4.0367,-3.9983,-3.9983,-3.9794,-3.9609,-3.9526,-3.9401,-3.9245,-3.9129,-3.9129,-3.9156,-3.9183,-3.9256,-3.9328,-3.9373,-3.9346,-3.9301,-3.9354,-3.9301,-3.9256,-3.9192,-3.921,-3.9183,-3.9101,-3.9017,-3.9007,-3.9007,-3.8892,-3.891,-3.8979,-3.8968,-3.8979,-3.9007,-3.9036,-3.9045,-3.9045,-3.9073,-3.9101,-3.9101,-3.9101,-3.9101,-3.9101,-3.9101,-3.9073,-3.9045,-3.9045,-3.9017,-3.8989,-4.079,-4.079,-4.079,-4.079,-4.079,-4.079,-4.079,-4.079,-4.079,-4.079,-4.079,-4.079,-4.079,-4.079,-4.072,-4.0534,-4.0673,-4.0679,-4.0427,-4.0476,-4.0492,-4.0411,-4.0363,-4.0328,-4.0328,-4.0328,-4.0309,-4.0307,-4.0344,-4.0398,-4.0398,-4.0379,-4.0379,-4.0415,-4.0449,-4.0466,-4.0466,-4.0476,-4.0473,-4.0473,-4.0473,-4.0473,-4.0473,-4.0473,-4.0473,-4.0473,-4.0473,-4.0473,-4.0473,-4.0508,-4.0508,-4.0523,-4.0519,-4.0519,-4.0534,-4.0534,-4.0534,-4.0534,-4.0534,-4.0534,-4.0534,-4.0534,-4.0534,-4.0766,-4.1651,-4.1139,-4.07,-4.1431,-4.0874,-4.0251,-4.0251,-4.0042,-3.9816,-3.9651,-3.958,-3.9458,-3.9192,-3.9183,-3.9183,-3.9183,-3.9183,-3.9229,-3.9346,-3.9346,-3.9373,-3.9425,-3.9469,-3.9451,-3.9317,-3.9343,-3.929,-3.9156,-3.9156,-3.911,-3.911,-3.9007,-3.895,-3.9007,-3.895,-3.8921,-3.8892,-3.8968,-3.8979,-3.9007,-3.9045,-3.9101,-3.9101,-3.9073,-3.9073,-3.9073,-3.9073,-3.9036,-3.8979,-3.8979,-3.8968,-3.891,-4.079,-4.079,-4.079,-4.079,-4.079,-4.079,-4.079,-4.079,-4.079,-4.079,-4.079,-4.079,-4.079,-4.079,-4.0746,-4.0607,-4.0621,-4.0593,-4.0489,-4.0489,-4.0489,-4.0492,-4.0492,-4.0476,-4.0476,-4.043,-4.0362,-4.0307,-4.0309,-4.0346,-4.0398,-4.0325,-4.0342,-4.0415,-4.0415,-4.0415,-4.0415,-4.0413,-4.0413,-4.0413,-4.0413,-4.0413,-4.0413,-4.0413,-4.0413,-4.0413,-4.0413,-4.0413,-4.0413,-4.0482,-4.0546,-4.0588,-4.0579,-4.0615,-4.0668,-4.0668,-4.0668,-4.0668,-4.0668,-4.0668,-4.0668,-4.0668,-4.0668,-4.09,-4.177,-4.121,-4.0527,-4.0642,-4.055,-4.0457,-4.0457,-4.0304,-4.0139,-4.0101,-3.9901,-3.9683,-3.9483,-3.9452,-3.9376,-3.9156,-3.9129,-3.9129,-3.9129,-3.9183,-3.921,-3.9256,-3.9346,-3.9418,-3.9373,-3.9425,-3.9451,-3.9444,-3.9317,-3.9272,-3.9272,-3.9156,-3.9073,-3.9073,-3.9073,-3.8989,-3.891,-3.891,-3.8968,-3.8979,-3.9007,-3.9064,-3.9101,-3.9036,-3.9007,-3.9007,-3.895,-3.8921,-3.8892,-3.8892,-3.891,-3.891,-4.079,-4.079,-4.079,-4.079,-4.079,-4.079,-4.079,-4.079,-4.079,-4.079,-4.079,-4.079,-4.079,-4.079,-4.0746,-4.0621,-4.0668,-4.0668,-4.0564,-4.0564,-4.0564,-4.0564,-4.0519,-4.0489,-4.0489,-4.0476,-4.0444,-4.0408,-4.0327,-4.0329,-4.0346,-4.0309,-4.0309,-4.0346,-4.0344,-4.0342,-4.0362,-4.0379,-4.0398,-4.0398,-4.0398,-4.0413,-4.046,-4.046,-4.0476,-4.0504,-4.0504,-4.0504,-4.0523,-4.0539,-4.0569,-4.0612,-4.064,-4.0681,-4.0707,-4.0694,-4.0694,-4.0694,-4.0694,-4.0694,-4.0694,-4.0694,-4.0694,-4.079,-4.1197,-4.0926,-4.0737,-4.1238,-4.0921,-4.0564,-4.0564,-4.0454,-4.0321,-4.0214,-4.0101,-3.9943,-3.9705,-3.966,-3.9585,-3.935,-3.9324,-3.9272,-3.9129,-3.9129,-3.9156,-3.9183,-3.9256,-3.9328,-3.9391,-3.9418,-3.9444,-3.9444,-3.9399,-3.9354,-3.9354,-3.9202,-3.9129,-3.9156,-3.9073,-3.9007,-3.891,-3.8921,-3.8921,-3.891,-3.8939,-3.895,-3.8979,-3.895,-3.8921,-3.8921,-3.891,-3.8881,-3.8851,-3.8792,-3.878,-3.878]},{"header":{"parameterUnit":"m.s-1","parameterCategory":1,"la1":30.6,"la2":28.766,"lo1":-90.7593,"lo2":-88.6598,"dy":0.0162,"dx":0.0183,"nx":116,"ny":114,"refTime":"2023-03-03T06:00:00:Z","depth":0,"parameterNumber":3,"parameterNumberName":"V-component_of_WINDS"},"data":[0.0,0.0,0.0,0.0,0.0,0.0,0.0,0.0,0.0,0.0,0.0,0.0,0.0,0.0,0.0,0.0,0.0,0.0,0.0,0.0,0.0,0.0,0.0,0.0,0.0,0.0,0.0,0.0,0.0,0.0,0.0,0.0,0.0,0.0,0.0,0.0,0.0,0.0,0.0,0.0,0.0,0.0,0.0,0.0,0.0,0.0,0.0,0.0,0.0,0.0,0.0,0.0,0.0,0.0,0.0,0.0,0.0,0.0,0.0,0.0,0.0,0.0,0.0,0.0,0.0,0.0,0.0,0.0,0.0,0.0,0.0,0.0,0.0,0.0,0.0,0.0,0.0,0.0,0.0,0.0,0.0,0.0,0.0,0.0,0.0,0.0,0.0,0.0,0.0,0.0,0.0,0.0,0.0,0.0,0.0,0.0,0.0,0.0,0.0,0.0,0.0,0.0,0.0,0.0,0.0,0.0,0.0,0.0,0.0,0.0,0.0,0.0,0.0,0.0,0.0,0.0,0.0,0.0,0.0,0.0,0.0,0.0,0.0,0.0,0.0,0.0,0.0,0.0,0.0,0.0,0.0,0.0,0.0,0.0,0.0,0.0,0.0,0.0,0.0,0.0,0.0,0.0,0.0,0.0,0.0,0.0,0.0,0.0,0.0,0.0,0.0,0.0,0.0,0.0,0.0,0.0,0.0,0.0,0.0,0.0,0.0,0.0,0.0,0.0,0.0,0.0,0.0,0.0,0.0,0.0,0.0,0.0,0.0,0.0,0.0,0.0,0.0,0.0,0.0,0.0,0.0,0.0,0.0,0.0,0.0,0.0,0.0,0.0,0.0,0.0,0.0,0.0,0.0,0.0,0.0,0.0,0.0,0.0,0.0,0.0,0.0,0.0,0.0,0.0,0.0,0.0,0.0,0.0,0.0,0.0,0.0,0.0,0.0,0.0,0.0,0.0,0.0,0.0,0.0,0.0,0.0,0.0,0.0,0.0,0.0,0.0,0.0,0.0,0.0,0.0,0.0,0.0,0.0,0.0,0.0,0.0,0.0,0.0,0.0,0.0,0.0,0.0,0.0,0.0,0.0,0.0,0.0,0.0,0.0,0.0,0.0,0.0,0.0,0.0,0.0,0.0,0.0,0.0,0.0,0.0,0.0,0.0,0.0,0.0,0.0,0.0,0.0,0.0,0.0,0.0,0.0,0.0,0.0,0.0,0.0,0.0,0.0,0.0,0.0,0.0,0.0,0.0,0.0,0.0,0.0,0.0,0.0,0.0,0.0,0.0,0.0,0.0,0.0,0.0,0.0,0.0,0.0,0.0,0.0,0.0,0.0,0.0,0.0,0.0,0.0,0.0,0.0,0.0,0.0,0.0,0.0,0.0,0.0,0.0,0.0,0.0,0.0,0.0,0.0,0.0,0.0,0.0,0.0,0.0,0.0,0.0,0.0,0.0,0.0,0.0,0.0,0.0,0.0,0.0,0.0,0.0,0.0,0.0,0.0,0.0,0.0,0.0,0.0,0.0,0.0,0.0,0.0,0.0,0.0,0.0,0.0,0.0,0.0,0.0,0.0,0.0,0.0,0.0,0.0,0.0,0.0,0.0,0.0,0.0,0.0,0.0,0.0,0.0,0.0,0.0,0.0,0.0,0.0,0.0,0.0,0.0,0.0,0.0,0.0,0.0,0.0,0.0,0.0,0.0,0.0,0.0,0.0,0.0,0.0,0.0,0.0,0.0,0.0,0.0,0.0,0.0,0.0,0.0,0.0,0.0,0.0,0.0,0.0,0.0,0.0,0.0,0.0,0.0,0.0,0.0,0.0,0.0,0.0,0.0,0.0,0.0,0.0,0.0,0.0,0.0,0.0,0.0,0.0,0.0,0.0,0.0,0.0,0.0,0.0,0.0,0.0,0.0,0.0,0.0,0.0,0.0,0.0,0.0,0.0,0.0,0.0,0.0,0.0,0.0,0.0,0.0,0.0,0.0,0.0,0.0,0.0,0.0,0.0,0.0,0.0,0.0,0.0,0.0,0.0,0.0,0.0,0.0,0.0,0.0,0.0,0.0,0.0,0.0,0.0,0.0,0.0,0.0,0.0,0.0,0.0,0.0,0.0,0.0,0.0,0.0,0.0,0.0,0.0,0.0,0.0,0.0,0.0,0.0,0.0,0.0,0.0,0.0,0.0,0.0,0.0,0.0,0.0,0.0,0.0,0.0,0.0,0.0,0.0,0.0,0.0,0.0,0.0,0.0,0.0,0.0,0.0,0.0,0.0,0.0,0.0,0.0,0.0,0.0,0.0,0.0,0.0,0.0,0.0,0.0,0.0,0.0,0.0,0.0,0.0,0.0,0.0,0.0,0.0,0.0,0.0,0.0,0.0,0.0,0.0,0.0,0.0,0.0,0.0,0.0,0.0,0.0,0.0,0.0,0.0,0.0,0.0,0.0,0.0,0.0,0.0,0.0,0.0,0.0,0.0,0.0,0.0,0.0,0.0,0.0,0.0,0.0,0.0,0.0,0.0,0.0,0.0,0.0,0.0,0.0,0.0,0.0,0.0,0.0,0.0,0.0,0.0,0.0,0.0,0.0,0.0,0.0,0.0,0.0,0.0,0.0,0.0,0.0,0.0,0.0,0.0,0.0,0.0,0.0,0.0,0.0,0.0,0.0,0.0,0.0,0.0,0.0,0.0,0.0,0.0,0.0,0.0,0.0,0.0,0.0,0.0,0.0,0.0,0.0,0.0,0.0,0.0,0.0,0.0,0.0,0.0,0.0,0.0,0.0,0.0,0.0,0.0,0.0,0.0,0.0,0.0,0.0,0.0,0.0,0.0,0.0,0.0,0.0,0.0,0.0,0.0,0.0,0.0,0.0,0.0,0.0,0.0,0.0,0.0,0.0,0.0,0.0,0.0,0.0,0.0,0.0,0.0,0.0,0.0,0.0,0.0,0.0,0.0,0.0,0.0,0.0,0.0,0.0,0.0,0.0,0.0,0.0,0.0,0.0,0.0,0.0,0.0,0.0,0.0,0.0,0.0,0.0,0.0,0.0,0.0,0.0,0.0,0.0,0.0,0.0,0.0,0.0,0.0,0.0,0.0,0.0,0.0,0.0,0.0,0.0,0.0,0.0,0.0,0.0,0.0,0.0,0.0,0.0,0.0,0.0,0.0,0.0,0.0,0.0,0.0,0.0,0.0,0.0,0.0,0.0,0.0,0.0,0.0,0.0,0.0,0.0,0.0,0.0,0.0,0.0,0.0,0.0,0.0,0.0,0.0,0.0,0.0,0.0,0.0,0.0,0.0,0.0,0.0,0.0,0.0,0.0,0.0,0.0,0.0,0.0,0.0,0.0,0.0,0.0,0.0,0.0,0.0,0.0,0.0,0.0,0.0,0.0,0.0,0.0,0.0,0.0,0.0,0.0,0.0,0.0,0.0,0.0,0.0,0.0,0.0,0.0,0.0,0.0,0.0,0.0,0.0,0.0,0.0,0.0,0.0,0.0,0.0,0.0,0.0,0.0,0.0,0.0,0.0,0.0,0.0,0.0,0.0,0.0,0.0,0.0,0.0,0.0,0.0,0.0,0.0,0.0,0.0,0.0,0.0,0.0,0.0,0.0,0.0,0.0,0.0,0.0,0.0,0.0,0.0,0.0,0.0,0.0,0.0,0.0,0.0,0.0,0.0,0.0,0.0,0.0,0.0,0.0,0.0,0.0,0.0,0.0,0.0,0.0,0.0,0.0,0.0,0.0,0.0,0.0,0.0,0.0,0.0,0.0,0.0,0.0,0.0,0.0,0.0,0.0,0.0,0.0,0.0,0.0,0.0,0.0,0.0,0.0,0.0,0.0,0.0,0.0,0.0,0.0,0.0,0.0,0.0,0.0,0.0,0.0,0.0,0.0,0.0,0.0,0.0,0.0,0.0,0.0,0.0,0.0,0.0,0.0,0.0,0.0,0.0,0.0,0.0,0.0,0.0,0.0,0.0,0.0,0.0,0.0,0.0,0.0,0.0,0.0,0.0,0.0,0.0,0.0,0.0,0.0,0.0,0.0,0.0,0.0,0.0,0.0,0.0,0.0,0.0,0.0,0.0,0.0,0.0,0.0,0.0,0.0,0.0,0.0,0.0,0.0,0.0,0.0,0.0,0.0,0.0,0.0,0.0,0.0,0.0,0.0,0.0,0.0,0.0,0.0,0.0,0.0,0.0,0.0,0.0,0.0,0.0,0.0,0.0,0.0,0.0,0.0,0.0,0.0,0.0,0.0,0.0,0.0,0.0,0.0,0.0,0.0,0.0,0.0,0.0,0.0,0.0,0.0,0.0,0.0,0.0,0.0,0.0,0.0,0.0,0.0,0.0,0.0,0.0,0.0,0.0,0.0,0.0,0.0,0.0,0.0,0.0,0.0,0.0,0.0,0.0,0.0,0.0,0.0,0.0,0.0,0.0,0.0,0.0,0.0,0.0,0.0,0.0,0.0,0.0,0.0,0.0,0.0,0.0,0.0,0.0,0.0,0.0,0.0,0.0,0.0,0.0,0.0,0.0,0.0,0.0,0.0,0.0,0.0,0.0,0.0,0.0,0.0,0.0,0.0,0.0,0.0,0.0,0.0,0.0,0.0,0.0,0.0,0.0,0.0,0.0,0.0,0.0,0.0,0.0,0.0,0.0,0.0,0.0,0.0,0.0,0.0,0.0,0.0,0.0,0.0,0.0,0.0,0.0,0.0,0.0,0.0,0.0,0.0,0.0,0.0,0.0,0.0,0.0,0.0,0.0,0.0,0.0,0.0,0.0,0.0,0.0,0.0,0.0,0.0,0.0,0.0,0.0,0.0,0.0,0.0,0.0,0.0,0.0,0.0,0.0,0.0,0.0,0.0,0.0,0.0,0.0,0.0,0.0,0.0,0.0,0.0,0.0,0.0,0.0,0.0,0.0,0.0,0.0,0.0,0.0,0.0,0.0,0.0,0.0,0.0,0.0,0.0,0.0,0.0,0.0,0.0,0.0,0.0,0.0,0.0,0.0,0.0,0.0,0.0,0.0,0.0,0.0,0.0,0.0,0.0,0.0,0.0,0.0,0.0,0.0,0.0,0.0,0.0,0.0,0.0,0.0,0.0,0.0,0.0,0.0,0.0,0.0,0.0,0.0,0.0,0.0,0.0,0.0,0.0,0.0,0.0,0.0,0.0,0.0,0.0,0.0,0.0,0.0,0.0,0.0,0.0,0.0,0.0,0.0,0.0,0.0,0.0,0.0,0.0,0.0,0.0,0.0,0.0,0.0,0.0,0.0,0.0,0.0,0.0,0.0,0.0,0.0,0.0,0.0,0.0,0.0,0.0,0.0,0.0,0.0,0.0,0.0,0.0,0.0,0.0,0.0,0.0,0.0,0.0,0.0,0.0,0.0,0.0,0.0,0.0,0.0,0.0,0.0,0.0,0.0,0.0,0.0,0.0,0.0,0.0,0.0,0.0,0.0,0.0,0.0,0.0,0.0,0.0,0.0,0.0,0.0,0.0,0.0,0.0,0.0,0.0,0.0,0.0,0.0,0.0,0.0,0.0,0.0,0.0,0.0,0.0,0.0,0.0,0.0,0.0,0.0,0.0,0.0,0.0,0.0,0.0,0.0,0.0,0.0,0.0,0.0,0.0,0.0,0.0,0.0,0.0,0.0,0.0,0.0,0.0,0.0,0.0,0.0,0.0,0.0,0.0,0.0,0.0,0.0,0.0,0.0,0.0,0.0,0.0,0.0,0.0,0.0,0.0,0.0,0.0,0.0,0.0,0.0,0.0,0.0,0.0,0.0,0.0,0.0,0.0,0.0,0.0,0.0,0.0,0.0,0.0,0.0,0.0,0.0,0.0,0.0,0.0,0.0,0.0,0.0,0.0,0.0,0.0,0.0,0.0,0.0,0.0,0.0,0.0,0.0,0.0,0.0,0.0,0.0,0.0,0.0,0.0,0.0,0.0,0.0,0.0,0.0,0.0,0.0,0.0,0.0,0.0,0.0,0.0,0.0,0.0,0.0,0.0,0.0,0.0,0.0,0.0,0.0,0.0,0.0,0.0,0.0,0.0,0.0,0.0,0.0,0.0,0.0,0.0,0.0,0.0,0.0,0.0,-2.6801,0.0,0.0,0.0,0.0,0.0,0.0,0.0,0.0,0.0,0.0,0.0,0.0,0.0,0.0,0.0,0.0,0.0,0.0,0.0,0.0,0.0,0.0,0.0,0.0,0.0,0.0,0.0,0.0,0.0,0.0,0.0,0.0,0.0,0.0,0.0,0.0,0.0,0.0,0.0,0.0,0.0,0.0,0.0,0.0,0.0,0.0,0.0,0.0,0.0,0.0,0.0,0.0,0.0,0.0,0.0,0.0,0.0,0.0,0.0,0.0,0.0,0.0,0.0,0.0,0.0,0.0,0.0,0.0,0.0,0.0,0.0,0.0,0.0,0.0,0.0,0.0,0.0,0.0,0.0,0.0,0.0,0.0,0.0,0.0,0.0,0.0,0.0,0.0,0.0,0.0,0.0,0.0,0.0,0.0,0.0,0.0,0.0,0.0,0.0,0.0,0.0,0.0,0.0,0.0,0.0,0.0,0.0,0.0,0.0,0.0,0.0,0.0,0.0,0.0,0.0,0.0,-2.7108,0.0,0.0,0.0,0.0,0.0,0.0,0.0,0.0,0.0,0.0,0.0,0.0,0.0,0.0,0.0,0.0,0.0,0.0,0.0,0.0,0.0,0.0,0.0,0.0,0.0,0.0,0.0,0.0,0.0,0.0,0.0,0.0,0.0,0.0,0.0,0.0,0.0,0.0,0.0,0.0,0.0,0.0,0.0,0.0,0.0,0.0,0.0,0.0,0.0,0.0,0.0,0.0,0.0,0.0,0.0,0.0,0.0,0.0,0.0,0.0,0.0,0.0,0.0,0.0,0.0,0.0,0.0,0.0,0.0,0.0,0.0,0.0,0.0,0.0,0.0,0.0,0.0,0.0,0.0,0.0,0.0,0.0,0.0,0.0,0.0,0.0,0.0,0.0,0.0,0.0,0.0,0.0,0.0,0.0,0.0,0.0,0.0,0.0,0.0,0.0,0.0,0.0,0.0,0.0,0.0,0.0,0.0,0.0,-2.8309,-2.9172,-2.988,-3.0039,-3.0452,-3.0937,-2.9323,-2.8849,-2.9246,0.0,0.0,0.0,0.0,0.0,0.0,0.0,0.0,0.0,0.0,0.0,0.0,0.0,0.0,0.0,0.0,0.0,0.0,0.0,0.0,0.0,0.0,0.0,0.0,0.0,0.0,0.0,0.0,0.0,0.0,0.0,0.0,0.0,0.0,0.0,0.0,0.0,0.0,0.0,-2.1648,-2.1768,-2.2073,-2.2579,-2.2198,0.0,0.0,0.0,0.0,0.0,0.0,0.0,0.0,0.0,0.0,0.0,0.0,0.0,0.0,0.0,0.0,0.0,0.0,0.0,0.0,0.0,0.0,0.0,0.0,0.0,0.0,0.0,0.0,0.0,0.0,0.0,0.0,0.0,0.0,0.0,0.0,0.0,0.0,0.0,0.0,0.0,0.0,0.0,-2.3935,-2.3828,0.0,0.0,0.0,0.0,0.0,0.0,0.0,0.0,0.0,0.0,0.0,0.0,0.0,-2.7761,-2.7635,-2.8672,-2.95,-3.0076,-3.1084,-3.1614,-3.1727,-3.1785,-3.184,-3.1873,-3.082,0.0,-2.9372,-2.9388,0.0,0.0,0.0,0.0,0.0,0.0,0.0,0.0,0.0,0.0,0.0,0.0,0.0,0.0,0.0,0.0,0.0,0.0,0.0,0.0,0.0,0.0,0.0,0.0,0.0,0.0,0.0,0.0,0.0,0.0,0.0,0.0,0.0,0.0,0.0,0.0,-2.0094,-2.0656,-2.1213,-2.1888,-2.2398,-2.2764,-2.2571,-2.2444,-2.2337,-2.2583,0.0,0.0,0.0,0.0,0.0,0.0,0.0,0.0,0.0,0.0,0.0,0.0,0.0,0.0,0.0,0.0,0.0,0.0,0.0,0.0,0.0,0.0,0.0,0.0,0.0,0.0,0.0,0.0,0.0,0.0,0.0,0.0,0.0,0.0,0.0,0.0,0.0,0.0,0.0,-2.434,-2.465,-2.4523,-2.4969,-2.5187,0.0,0.0,0.0,0.0,0.0,0.0,0.0,0.0,0.0,-2.8456,-2.9338,-2.9867,-3.0002,-3.0607,-3.1084,-3.146,-3.1877,-3.2367,-3.2837,-3.2837,-3.2816,-3.2735,-3.2339,-3.164,-3.0735,-2.98,-2.9579,-2.983,0.0,0.0,0.0,0.0,-2.9409,-2.939,0.0,0.0,0.0,0.0,0.0,0.0,0.0,0.0,0.0,0.0,0.0,0.0,0.0,0.0,0.0,-1.8589,0.0,0.0,0.0,0.0,0.0,0.0,0.0,0.0,0.0,0.0,0.0,0.0,-1.9422,-1.992,-2.0544,-2.1484,-2.1996,-2.2202,-2.2435,-2.2656,-2.2882,-2.2989,-2.2848,0.0,0.0,0.0,0.0,0.0,0.0,0.0,0.0,0.0,0.0,0.0,0.0,0.0,0.0,0.0,0.0,0.0,0.0,0.0,0.0,0.0,0.0,0.0,0.0,0.0,0.0,0.0,0.0,0.0,0.0,0.0,0.0,0.0,0.0,0.0,0.0,0.0,0.0,-2.4714,-2.5139,-2.5071,-2.5808,-2.6063,0.0,0.0,0.0,0.0,0.0,0.0,-2.8368,-2.9381,-2.9814,-2.9623,-3.0783,-3.15,-3.1704,-3.2244,-3.2537,-3.262,-3.3029,-3.3593,-3.4314,-3.4314,-3.4274,-3.4214,-3.4008,-3.3534,-3.2758,-3.0828,-3.0265,-3.057,-3.0154,-2.9894,-2.9747,-2.9943,-3.0018,-3.0039,0.0,0.0,0.0,0.0,0.0,0.0,0.0,0.0,0.0,0.0,0.0,0.0,0.0,0.0,-1.8921,-1.8273,-1.8801,-1.8988,0.0,0.0,0.0,0.0,0.0,0.0,0.0,0.0,0.0,-1.9099,-1.9378,-1.9628,-1.9853,-2.0171,-2.0394,-2.0545,-2.1444,-2.199,-2.2282,-2.2858,-2.2711,-2.2099,0.0,0.0,0.0,0.0,0.0,0.0,0.0,0.0,0.0,0.0,0.0,0.0,0.0,0.0,0.0,0.0,0.0,0.0,0.0,0.0,0.0,0.0,0.0,0.0,0.0,0.0,0.0,0.0,0.0,0.0,0.0,0.0,0.0,0.0,0.0,0.0,0.0,0.0,0.0,-2.5018,-2.5664,0.0,0.0,0.0,0.0,-2.827,-2.8386,-2.8833,-2.9668,-3.0088,-3.0669,-3.1533,-3.1644,-3.1723,-3.1808,-3.3018,-3.3747,-3.4018,-3.5551,-3.6426,-3.6721,-3.6721,-3.6745,-3.6756,-3.5923,-3.5591,-3.5417,-3.2842,-3.1747,-3.1715,-3.1693,-3.1663,-3.1649,-3.1654,-3.1727,-3.1775,0.0,0.0,0.0,0.0,0.0,0.0,0.0,0.0,0.0,0.0,0.0,0.0,0.0,-1.8666,-1.954,-1.9749,-1.9937,-2.0155,-2.0383,0.0,0.0,0.0,0.0,0.0,0.0,0.0,-1.7861,-1.7883,-1.9052,-1.9786,-2.0094,-2.1173,-2.1668,-2.1695,-2.2038,-2.2375,-2.2746,-2.3165,-2.3165,-2.2868,-2.2909,-2.3028,0.0,0.0,0.0,0.0,0.0,0.0,0.0,0.0,0.0,0.0,0.0,0.0,0.0,0.0,0.0,0.0,0.0,0.0,0.0,0.0,0.0,0.0,0.0,0.0,0.0,0.0,0.0,0.0,0.0,0.0,0.0,0.0,0.0,0.0,0.0,0.0,0.0,-2.5027,-2.6213,0.0,-2.6935,-2.807,-2.8961,-2.9344,-2.9834,-3.0329,-3.0808,-3.0775,-3.1352,-3.2684,-3.273,-3.335,-3.4629,-3.4532,-3.4631,-3.4934,-3.4829,-3.5151,-3.5926,-3.5926,-3.6347,-3.7042,-3.6733,-3.6574,-3.6451,-3.5511,-3.4489,-3.3464,-3.3385,-3.3351,-3.3327,-3.3351,-3.3361,-3.3366,0.0,0.0,0.0,0.0,0.0,0.0,0.0,0.0,0.0,0.0,0.0,-1.7195,-1.7996,-1.911,-1.9949,-2.0395,-2.063,-2.0717,-2.0639,0.0,0.0,0.0,0.0,0.0,0.0,-1.7834,-1.7926,-1.7927,-1.9036,-1.9786,-2.012,-2.1155,-2.1613,-2.1586,-2.1841,-2.2184,-2.2586,-2.3147,-2.3422,-2.3464,-2.3343,-2.3422,-2.3469,0.0,0.0,0.0,0.0,0.0,0.0,0.0,0.0,0.0,0.0,0.0,0.0,0.0,0.0,0.0,0.0,0.0,0.0,0.0,0.0,0.0,0.0,0.0,0.0,0.0,0.0,0.0,0.0,0.0,0.0,0.0,0.0,0.0,0.0,0.0,-2.5673,-2.6126,-2.7429,-2.827,-2.8182,-2.9314,-3.0197,-3.0577,-3.1057,-3.1628,-3.232,-3.2256,-3.2817,-3.4087,-3.4105,-3.4606,-3.5615,-3.5478,-3.5294,-3.5091,-3.5275,-3.5662,-3.6207,-3.6582,-3.7163,-3.7906,-3.7901,-3.7847,-3.7773,-3.7748,-3.7063,-3.5957,-3.5312,-3.5057,-3.5043,-3.5045,-3.5058,-3.5131,0.0,0.0,0.0,0.0,0.0,0.0,0.0,0.0,0.0,0.0,-1.6578,-1.7566,-1.9023,-1.9788,-2.0189,-2.0135,-2.0648,-2.0463,-1.919,-1.875,0.0,0.0,0.0,0.0,-1.8952,-1.8354,-1.8448,-1.9323,-1.9416,-1.9634,-1.995,-1.9984,-2.0026,-2.0103,-2.0795,-2.1353,-2.1791,-2.2733,-2.3405,-2.378,-2.3196,-2.3417,-2.3909,0.0,0.0,0.0,0.0,0.0,0.0,0.0,0.0,0.0,0.0,0.0,0.0,0.0,0.0,0.0,0.0,0.0,0.0,0.0,0.0,0.0,0.0,0.0,0.0,0.0,0.0,0.0,0.0,0.0,0.0,0.0,0.0,0.0,-2.5749,-2.6092,-2.6688,-2.8276,-2.9196,-2.9719,-2.9737,-3.0495,-3.1279,-3.202,-3.2092,-3.2714,-3.4175,-3.446,-3.4927,-3.5716,-3.5716,-3.5336,-3.4612,-3.5803,-3.5787,-3.4604,-3.7166,-3.8157,-3.772,-3.8831,-3.9384,-3.9495,-3.9488,-3.9488,-3.9495,-3.9418,-3.9328,-3.9034,-3.7421,-3.6764,-3.6779,-3.676,-3.6863,-3.6994,0.0,0.0,0.0,0.0,0.0,0.0,0.0,0.0,0.0,0.0,-1.6613,-1.765,-1.8979,-1.9747,-2.0273,-2.0579,-2.0745,-2.0495,-1.9657,0.0,0.0,0.0,0.0,0.0,-1.834,-1.8729,-1.9154,-1.9595,-2.0643,-2.1033,-2.0856,-2.1787,-2.2022,-2.1657,-2.1743,-2.2031,-2.2565,-2.3548,-2.423,-2.4614,-2.4074,-2.3969,-2.4079,0.0,0.0,0.0,0.0,0.0,0.0,0.0,0.0,0.0,0.0,0.0,0.0,0.0,0.0,0.0,0.0,0.0,0.0,0.0,0.0,0.0,0.0,0.0,0.0,0.0,0.0,0.0,0.0,0.0,0.0,0.0,0.0,-2.519,-2.5303,-2.5749,-2.6495,-2.7567,-2.8853,-2.9891,-3.0586,-3.1784,-3.278,-3.3544,-3.4181,-3.4652,-3.4916,-3.4544,-3.4882,-3.6163,-3.5643,-3.5921,-3.7105,-3.6627,-3.6341,-3.624,-3.6149,-3.6457,-3.7119,-3.7698,-3.8414,-3.9208,-3.9477,-3.9514,-3.9421,-3.941,-3.9301,-3.9073,-3.8637,-3.8451,-3.8459,-3.8566,-3.8677,-3.8801,0.0,0.0,0.0,0.0,0.0,0.0,0.0,0.0,0.0,0.0,-1.685,-1.7817,-1.9156,-1.996,-2.0512,-2.0794,-2.0751,-2.041,-1.967,0.0,0.0,0.0,0.0,-1.792,-1.8529,-1.9325,-1.9813,-1.9992,-2.1667,-2.2148,-2.1452,-2.2512,-2.2768,-2.2394,-2.2203,-2.2409,-2.2954,-2.3957,-2.4617,-2.4972,-2.5134,-2.5018,-2.4615,-2.3544,-2.2723,-2.2186,-2.225,-2.1452,-2.041,-2.083,0.0,0.0,0.0,0.0,0.0,0.0,0.0,0.0,0.0,0.0,0.0,0.0,0.0,0.0,0.0,0.0,0.0,0.0,0.0,0.0,0.0,0.0,0.0,0.0,-2.5876,-2.6682,-2.6922,-2.7337,-2.8066,-2.923,-3.0161,-3.1145,-3.2358,-3.3208,-3.4011,-3.4771,-3.5289,-3.5684,-3.5856,-3.5172,-3.5316,-3.6468,-3.6057,-3.6357,-3.7426,-3.7111,-3.6844,-3.6658,-3.6481,-3.6576,-3.6898,-3.7729,-3.847,0.0,-3.9445,-3.952,-3.9402,-3.941,-3.9275,0.0,0.0,0.0,0.0,0.0,-3.9526,-3.9599,0.0,0.0,0.0,0.0,0.0,0.0,0.0,0.0,0.0,0.0,0.0,-1.7949,-1.9441,-2.0289,-2.073,-2.0684,-2.0566,-2.0131,0.0,0.0,0.0,-1.7096,-1.7103,-1.7765,-1.9099,-1.9997,-2.054,-2.0724,-2.2639,-2.2998,-2.199,-2.2578,-2.2692,-2.2487,-2.236,-2.2535,-2.303,-2.4025,-2.4688,-2.5122,-2.6133,-2.6101,-2.524,-2.3517,-2.2366,-2.1679,-2.158,-2.135,-2.109,-2.1215,0.0,0.0,0.0,0.0,0.0,0.0,0.0,0.0,0.0,0.0,0.0,0.0,0.0,0.0,0.0,0.0,0.0,0.0,0.0,0.0,0.0,0.0,0.0,0.0,-2.6664,-2.8232,-2.9773,-3.0134,-3.073,-3.2083,-3.2358,-3.3056,-3.4483,-3.47,-3.506,-3.5778,-3.5833,-3.614,-3.6741,0.0,0.0,0.0,0.0,-3.6786,-3.6646,-3.7345,-3.7292,-3.6452,-3.7538,-3.7652,-3.6924,-3.8394,-3.9036,-3.9046,-3.9439,-3.952,-3.9391,-3.9391,-3.9275,-3.9129,-3.9129,-3.9219,-3.9357,-3.9623,-3.9717,-3.9739,0.0,0.0,0.0,0.0,0.0,0.0,0.0,0.0,0.0,-1.6115,-1.6961,-1.7915,-1.928,-1.996,-2.0211,-1.9925,-1.9877,-1.9379,0.0,0.0,-1.6622,-1.6992,-1.7577,-1.8335,-1.9318,-2.0701,-2.1867,-2.2735,-2.3455,-2.3569,-2.3085,-2.3056,-2.2858,-2.2487,-2.2349,-2.2515,-2.2894,-2.3807,-2.4807,-2.5823,-2.6154,-2.5764,-2.4976,-2.4595,-2.3538,-2.2309,-2.2873,-2.2347,-2.1386,-2.1213,-2.069,-1.9914,-1.8795,0.0,0.0,0.0,0.0,0.0,0.0,0.0,0.0,0.0,0.0,0.0,0.0,0.0,0.0,0.0,0.0,0.0,0.0,0.0,0.0,-2.7565,-2.9098,-3.0484,-3.1506,-3.2751,-3.3485,-3.3183,-3.3695,-3.4442,-3.5462,-3.6031,-3.6414,-3.6594,-3.6678,-3.675,-3.6728,-3.6618,0.0,-3.6556,-3.7289,-3.7612,-3.747,-3.7632,-3.7596,-3.7453,0.0,0.0,-3.7453,-3.8305,-3.8656,-3.8635,-3.9272,-3.9399,-3.9256,-3.9256,-3.9237,-3.9272,-3.9272,-3.9427,-3.9647,-3.9693,-3.9781,-3.9867,0.0,0.0,0.0,0.0,0.0,0.0,0.0,0.0,0.0,0.0,-1.6089,-1.7015,-1.8404,-1.9166,-1.9477,-1.9271,-1.8935,0.0,0.0,-1.695,-1.6717,-1.6991,-1.7704,-1.8481,-1.935,-2.0878,-2.1936,-2.2468,-2.3405,-2.3499,-2.2702,-2.3042,-2.2987,-2.2605,-2.2605,-2.2685,-2.2903,-2.3901,-2.4633,-2.5198,-2.5811,-2.5488,-2.467,-2.4841,-2.3831,-2.2393,-2.3173,-2.2714,-2.1813,-2.2293,-2.1979,-2.1273,-2.0541,-2.0062,-1.9608,0.0,0.0,0.0,0.0,0.0,0.0,0.0,0.0,0.0,0.0,0.0,0.0,0.0,0.0,-2.4444,0.0,0.0,-2.8208,-2.9368,-3.0589,-3.1822,-3.2991,-3.3867,-3.429,-3.4015,-3.4684,-3.5467,-3.6212,-3.666,-3.6877,-3.6829,-3.7308,-3.738,-3.6865,-3.6829,-3.6744,-3.6658,-3.7072,-3.7253,-3.7112,-3.7506,-3.7631,-3.7503,-3.7487,-3.745,-3.7356,-3.7969,-3.8201,-3.8182,-3.8711,-3.8942,-3.897,-3.9165,-3.9298,-3.9401,-3.9458,-3.958,-3.9717,-3.9781,-3.9826,-3.9889,0.0,0.0,0.0,0.0,0.0,0.0,0.0,0.0,0.0,0.0,-1.5298,-1.6135,-1.7469,-1.8288,-1.874,0.0,0.0,0.0,0.0,-1.7087,-1.6965,-1.7043,-1.7896,-1.8697,-1.9367,-2.1055,-2.2005,-2.2153,-2.324,-2.3316,-2.2463,-2.2916,-2.2949,-2.2659,-2.279,-2.2868,-2.2928,-2.3794,-2.4204,-2.4373,-2.5244,-2.5113,-2.4421,-2.4706,-2.37,-2.2238,-2.3076,-2.277,-2.2177,-2.3127,-2.3209,-2.2799,-2.2278,-2.1432,-2.0448,-1.9504,-1.9235,0.0,0.0,0.0,0.0,0.0,0.0,0.0,0.0,0.0,-2.2401,-2.4588,-2.5436,-2.6291,-2.7864,-2.9196,-3.0202,-3.0742,-3.1733,-3.284,-3.4031,-3.4383,-3.4673,-3.4979,-3.5575,-3.623,-3.6973,-3.6985,-3.7,-3.7079,-3.7489,-3.7504,-3.6997,-3.6862,-3.6777,-3.6795,-3.689,-3.6894,-3.6789,-3.7381,-3.7595,-3.7372,-3.7413,-3.7358,-3.7188,-3.7717,-3.7882,-3.7875,-3.8227,-3.8499,-3.8748,-3.9119,-3.9376,-3.9526,-3.967,-3.9739,-3.9739,-3.9867,-3.9889,-3.9889,0.0,0.0,0.0,0.0,0.0,0.0,0.0,0.0,0.0,0.0,0.0,0.0,0.0,0.0,0.0,0.0,0.0,0.0,-1.77,-1.7303,-1.7117,-1.7167,-1.8578,-1.9431,-1.9664,-2.1774,-2.3262,-2.4101,-2.3474,-2.3522,-2.413,-2.3016,-2.2518,-2.2542,-2.2605,-2.2712,-2.2816,-2.2877,-2.345,-2.4294,-2.4433,-2.4441,-2.4396,-2.4445,-2.3411,-2.206,-2.2911,-2.2723,-2.2112,-2.2246,-2.2235,-2.2002,-2.1282,-2.0943,-2.0582,-1.9594,0.0,-1.9142,-1.7997,-1.8461,-1.9654,-2.1272,-2.1339,-2.167,0.0,0.0,-2.4721,-2.7746,-2.8388,-2.8809,-3.026,-3.1096,-3.1596,-3.1637,-3.2957,-3.4014,-3.4193,-3.4914,-3.5699,-3.6386,-3.6548,-3.6942,-3.7785,-3.7226,-3.7151,-3.7993,-3.6834,-3.6295,-3.6793,-3.6829,-3.6762,-3.6694,-3.7395,-3.7773,-3.772,-3.7703,-3.7667,-3.7631,-3.7609,-3.7571,-3.7558,-3.7911,-3.8043,-3.8,-3.8267,-3.8541,-3.8803,-3.9082,-3.935,-3.9526,-3.9781,-3.9889,-3.9889,-3.9889,-3.9889,-3.9889,0.0,0.0,0.0,0.0,0.0,0.0,0.0,0.0,0.0,0.0,0.0,0.0,0.0,0.0,0.0,0.0,0.0,0.0,-1.7789,-1.7695,-1.7564,-1.7361,-1.8368,-1.919,-1.9796,-2.1189,-2.2245,-2.2996,-2.2727,-2.2803,-2.3236,-2.2694,-2.2515,-2.2605,-2.2738,-2.279,-2.2816,-2.2764,-2.2989,-2.3371,-2.3371,-2.3389,-2.3388,-2.3028,-2.2468,-2.1941,-2.274,-2.2634,0.0,0.0,-2.2447,-2.2074,-2.1799,-2.1369,-2.077,-1.9721,-1.9725,0.0,-2.0835,-2.095,-2.1366,0.0,-2.3552,-2.3804,-2.5437,-2.5594,-2.5914,-2.7875,-2.8828,-2.9652,-3.0758,-3.1768,-3.2608,0.0,-3.3749,-3.45,-3.5379,-3.5856,-3.6393,-3.7148,-3.686,-3.6768,-3.7178,-3.734,-3.7212,-3.6717,-3.6901,-3.6991,-3.6913,-3.7246,-3.743,-3.7413,-3.7631,-3.7757,-3.7739,-3.7649,-3.7595,-3.7522,-3.7521,-3.7447,-3.7447,-3.7609,-3.7702,-3.7667,-3.7931,-3.8234,-3.8548,-3.9027,-3.9364,-3.9647,-3.987,-3.9954,-3.9954,-3.9911,-3.9889,-3.9889,0.0,0.0,0.0,0.0,0.0,0.0,0.0,0.0,0.0,0.0,0.0,0.0,0.0,0.0,0.0,0.0,0.0,0.0,0.0,-1.8067,-1.7912,-1.7819,-1.8294,-1.9002,-1.9976,-2.0771,-2.1562,-2.2346,-2.2281,-2.2355,-2.2552,-2.2518,-2.2542,-2.2596,-2.2764,-2.2816,-2.2764,-2.2764,-2.2738,-2.2694,-2.2488,-2.2565,-2.2634,-2.1791,-2.1638,-2.1864,-2.2244,-2.2101,0.0,0.0,-2.2286,-2.1896,-2.1957,-2.1402,-2.0604,-2.0,-2.013,-2.0825,-2.247,0.0,0.0,-2.4581,-2.5149,-2.5488,-2.6189,-2.6441,-2.6879,-2.8227,-2.9334,-3.0378,-3.1345,-3.2265,-3.308,-3.3669,-3.4002,-3.4572,-3.5631,-3.6039,-3.6414,-3.697,-3.6557,-3.6251,-3.6269,-3.6858,-3.6872,-3.5984,-3.6944,-3.7448,-3.7223,-3.761,-3.7846,-3.7846,-3.7721,-3.7649,-3.7613,-3.7613,-3.754,-3.7466,-3.7469,-3.7432,-3.7372,-3.7432,-3.7469,-3.7466,-3.7667,-3.7982,-3.8373,-3.8849,-3.9301,-3.9717,-3.987,-3.9975,-3.9996,-3.9933,-3.9889,-3.9889,0.0,0.0,0.0,0.0,0.0,0.0,0.0,0.0,0.0,0.0,0.0,0.0,0.0,0.0,0.0,0.0,0.0,0.0,0.0,-1.8377,-1.807,-1.8651,-1.8684,-1.9159,-2.0176,-2.0986,-2.2004,-2.3257,-2.2677,-2.2591,-2.2979,-2.2643,-2.2432,-2.2338,-2.2579,-2.2712,-2.2712,-2.2712,-2.2712,-2.2643,-2.1994,-2.2175,-2.2643,-2.119,-2.1173,-2.182,-2.1264,0.0,0.0,0.0,-2.1107,-2.105,-2.1117,-2.0504,0.0,-2.0477,-2.0407,0.0,0.0,0.0,-2.3407,-2.4461,-2.5291,-2.6079,-2.6813,-2.7144,-2.7817,-2.9804,-3.0628,-3.1355,-3.2603,-3.288,-3.2916,-3.292,-3.3645,-3.4228,-3.4282,-3.5011,-3.5562,-3.5547,-3.5562,-3.5444,0.0,-3.5429,-3.59,-3.6687,-3.6746,-3.7019,-3.7632,-3.7703,-3.7703,-3.7703,-3.7649,-3.7649,-3.7703,-3.7649,-3.7577,-3.7577,-3.7577,-3.7577,-3.7577,-3.7577,-3.7577,-3.7577,-3.7613,-3.7949,-3.851,-3.864,-3.9109,-3.9717,-3.9781,-3.9889,-3.9996,-3.9933,-3.9889,-3.9889,0.0,0.0,0.0,0.0,0.0,0.0,0.0,0.0,0.0,0.0,0.0,0.0,0.0,0.0,0.0,0.0,0.0,0.0,0.0,-1.87,-1.8423,-1.8365,-1.8111,-1.8434,-1.945,-2.0267,-2.1131,-2.2031,-2.2231,-2.2485,-2.2717,-2.2562,-2.2542,-2.2632,-2.2764,-2.2842,-2.2842,-2.2842,-2.2842,-2.2807,-2.259,-2.2347,-2.2024,-2.1092,-2.0825,-2.0877,0.0,0.0,0.0,0.0,0.0,0.0,-2.0276,0.0,0.0,-2.0935,0.0,0.0,0.0,0.0,-2.5183,-2.6068,-2.6328,-2.6525,-2.7144,-2.7908,-2.851,-2.8529,-2.9621,-3.0505,-3.0234,-3.1119,-3.2069,-3.255,-3.3512,-3.4408,-3.4927,-3.5298,-3.5442,-3.5273,-3.4876,0.0,0.0,0.0,0.0,-3.6521,-3.7005,-3.7453,-3.7792,-3.7757,-3.7703,-3.7703,-3.7667,-3.7649,-3.7649,-3.7613,-3.7577,-3.7577,-3.7577,-3.7577,-3.7577,-3.7577,-3.7577,-3.7577,-3.7577,-3.7845,-3.8267,-3.8511,-3.8943,-3.9451,-3.9698,-3.987,-3.9996,-3.9933,-3.9889,-3.9889,0.0,0.0,0.0,0.0,0.0,0.0,0.0,0.0,0.0,0.0,0.0,0.0,0.0,0.0,0.0,0.0,0.0,0.0,0.0,0.0,-1.8363,-1.8006,-1.7838,-1.8143,-1.886,-1.9512,-2.0328,-2.137,-2.1749,-2.2122,-2.2443,-2.2542,-2.2605,-2.2712,-2.285,-2.2944,-2.2927,-2.2623,-2.2526,-2.2481,-2.1861,-2.1513,-2.1201,-2.0182,-1.9911,0.0,0.0,0.0,0.0,0.0,0.0,0.0,0.0,0.0,0.0,0.0,0.0,0.0,0.0,-2.5109,-2.6004,-2.6798,-2.6756,-2.6632,-2.7099,-2.7792,-2.8224,-2.783,-2.886,-2.9647,-2.9232,-3.0299,-3.1401,-3.1894,-3.2854,-3.3713,-3.4413,-3.4898,-3.508,-3.4795,-3.4779,-3.4871,0.0,0.0,0.0,-3.6328,-3.7058,-3.7594,-3.7793,-3.7721,-3.7667,-3.7667,-3.7667,-3.7649,-3.7577,-3.7577,-3.7577,-3.7577,-3.754,-3.754,-3.7577,-3.7577,-3.7577,-3.7577,-3.7577,-3.7774,-3.8135,-3.8323,-3.8773,-3.9314,-3.9556,-3.9781,-3.9996,-3.9933,-3.9889,-3.9867,0.0,0.0,0.0,0.0,0.0,0.0,0.0,0.0,0.0,0.0,0.0,0.0,0.0,0.0,0.0,0.0,0.0,0.0,0.0,0.0,0.0,-1.7606,-1.7877,-1.8137,-1.8419,-1.8795,-1.9685,-2.119,-2.1224,-2.1552,-2.2169,-2.2483,-2.2598,-2.2542,-2.2868,-2.2995,-2.2943,-2.2178,-2.1871,-2.1791,-2.0148,-1.9907,-2.0402,-1.8773,0.0,0.0,0.0,0.0,0.0,0.0,0.0,0.0,0.0,0.0,0.0,0.0,0.0,-2.3833,-2.4363,-2.509,-2.5906,-2.6614,-2.6616,-2.6479,-2.672,-2.6906,-2.7226,-2.7811,-2.8297,-2.8844,0.0,0.0,-3.0871,-3.0991,-3.1689,-3.2404,-3.2905,-3.3881,-3.4464,0.0,0.0,0.0,0.0,0.0,0.0,-3.6219,0.0,-3.7372,-3.7594,-3.7577,-3.7577,-3.7577,-3.7577,-3.7577,-3.7577,-3.7577,-3.7594,-3.7577,-3.7466,-3.7466,-3.7577,-3.7594,-3.7594,-3.7577,-3.7594,-3.7774,-3.8068,-3.8068,-3.8524,-3.9238,-3.9261,-3.9551,-3.9935,-3.9911,-3.9845,-3.9804,0.0,0.0,0.0,0.0,0.0,0.0,0.0,0.0,0.0,0.0,0.0,0.0,0.0,0.0,0.0,0.0,0.0,0.0,0.0,0.0,0.0,0.0,0.0,0.0,0.0,0.0,0.0,0.0,0.0,-2.0918,-2.1756,-2.1833,-2.2177,-2.2738,-2.2816,-2.2868,-2.2825,-2.2583,-2.247,-2.2444,0.0,-2.17,-2.1361,0.0,0.0,0.0,0.0,0.0,0.0,0.0,0.0,0.0,0.0,0.0,-2.1785,0.0,0.0,-2.5362,-2.5614,-2.6486,-2.7207,-2.6763,-2.6666,-2.6684,-2.659,-2.7165,-2.7572,-2.6977,-2.7504,-2.7862,0.0,0.0,0.0,-2.9986,-3.144,0.0,-3.3618,-3.3962,0.0,-3.4392,0.0,-3.5011,-3.529,-3.5404,0.0,0.0,-3.7097,-3.7372,-3.7594,-3.7577,-3.7577,-3.7577,-3.7577,-3.7577,-3.7577,-3.7577,-3.754,-3.7466,-3.7503,-3.7503,-3.7466,-3.754,-3.754,-3.7466,-3.754,-3.7577,-3.754,-3.7756,-3.8013,-3.8319,-3.8752,-3.8999,-3.9171,-3.9604,-3.967,-3.9599,0.0,0.0,0.0,0.0,0.0,0.0,0.0,0.0,0.0,0.0,0.0,0.0,0.0,0.0,0.0,0.0,0.0,0.0,0.0,0.0,0.0,0.0,0.0,0.0,0.0,0.0,0.0,0.0,0.0,0.0,0.0,-2.0942,-2.1437,-2.2237,-2.2288,-2.2513,-2.2807,-2.2358,0.0,0.0,0.0,0.0,0.0,0.0,0.0,0.0,0.0,0.0,0.0,0.0,0.0,-2.0119,-2.1243,-2.1913,-2.2506,-2.3589,0.0,-2.5578,-2.5638,-2.6189,-2.6648,-2.64,-2.6306,-2.6318,-2.647,-2.6856,-2.7059,-2.6499,-2.6735,0.0,-2.6397,0.0,0.0,0.0,0.0,0.0,-3.2196,-3.2825,-3.3399,0.0,-3.4106,0.0,-3.5169,-3.5221,-3.5694,0.0,-3.7066,-3.7279,-3.7577,-3.7577,-3.7577,-3.7577,-3.7577,-3.7577,-3.7503,-3.7466,-3.7429,-3.7374,-3.7429,-3.7449,-3.7395,-3.7522,-3.754,-3.7503,0.0,-3.7429,-3.7372,-3.754,-3.7703,-3.7928,-3.8259,-3.8493,-3.8704,-3.9044,-3.9249,-3.9389,0.0,0.0,0.0,0.0,0.0,0.0,0.0,0.0,0.0,0.0,0.0,0.0,0.0,0.0,0.0,0.0,0.0,0.0,0.0,0.0,0.0,0.0,0.0,0.0,0.0,0.0,0.0,0.0,0.0,0.0,0.0,0.0,0.0,0.0,0.0,0.0,0.0,0.0,0.0,0.0,0.0,0.0,0.0,0.0,0.0,0.0,0.0,0.0,0.0,0.0,-2.1752,-2.0877,-2.1604,-2.2356,-2.3128,-2.3784,-2.4549,-2.5125,-2.516,-2.5229,-2.5398,-2.5756,-2.5783,-2.588,-2.6369,-2.6345,-2.6203,-2.6203,0.0,-2.6052,-2.6154,-2.7143,-2.7876,-2.7541,0.0,-3.0439,-3.0349,-3.1528,-3.2491,-3.2818,-3.3549,-3.4278,-3.4932,-3.5087,-3.5497,-3.6493,-3.6816,-3.7126,-3.7503,-3.7577,-3.7577,-3.7577,-3.754,-3.7503,-3.7392,-3.7334,-3.7317,-3.7319,-3.7317,-3.7356,-3.7397,-3.7541,-3.7594,-3.754,0.0,0.0,-3.7354,-3.7279,-3.7468,-3.7755,-3.7843,-3.8044,-3.835,-3.8444,-3.8696,-3.9053,0.0,0.0,0.0,0.0,0.0,0.0,0.0,0.0,0.0,0.0,-1.299,-1.3035,0.0,0.0,0.0,0.0,0.0,0.0,0.0,0.0,0.0,0.0,0.0,0.0,0.0,0.0,0.0,0.0,0.0,0.0,0.0,0.0,0.0,0.0,0.0,0.0,0.0,0.0,0.0,0.0,0.0,0.0,0.0,0.0,0.0,0.0,0.0,0.0,0.0,0.0,-2.1641,-2.1554,-2.2306,-2.318,-2.4112,-2.4838,-2.5152,-2.5285,-2.5464,-2.5662,-2.5708,-2.515,-2.5705,-2.6455,-2.6486,-2.6345,0.0,0.0,-2.5584,-2.5157,-2.5819,-2.6135,-2.6813,-2.83,0.0,0.0,0.0,0.0,-3.2938,0.0,0.0,0.0,0.0,0.0,0.0,0.0,0.0,-3.6846,-3.7087,-3.7429,-3.7577,-3.7577,-3.7337,-3.7261,-3.7392,-3.7334,-3.7297,-3.7279,-3.7354,-3.7374,-3.7394,-3.754,-3.7521,-3.7334,-3.7392,0.0,-3.7087,-3.7126,-3.7147,-3.7185,-3.7469,-3.7542,-3.7577,-3.8129,-3.8273,-3.8287,0.0,0.0,0.0,0.0,0.0,0.0,0.0,-1.2697,-1.2733,-1.2978,-1.2838,-1.2838,-1.3104,-1.3387,-1.3709,0.0,0.0,0.0,0.0,0.0,0.0,0.0,0.0,0.0,0.0,0.0,0.0,0.0,0.0,0.0,0.0,0.0,0.0,0.0,0.0,0.0,0.0,0.0,0.0,0.0,0.0,0.0,0.0,0.0,0.0,0.0,0.0,0.0,0.0,0.0,-2.1129,-2.1627,-2.2496,-2.364,-2.4711,-2.4919,-2.504,-2.5097,-2.5108,-2.4936,-2.4701,-2.4735,-2.5402,-2.6034,-2.6,0.0,0.0,0.0,-2.4592,-2.4253,-2.4685,-2.5301,0.0,0.0,0.0,0.0,0.0,0.0,0.0,0.0,0.0,0.0,0.0,0.0,0.0,0.0,0.0,-3.6838,-3.6993,-3.719,-3.7334,-3.7447,-3.7223,-3.7185,-3.7392,-3.7261,-3.7241,-3.7312,-3.7317,-3.7376,-3.7414,-3.7559,-3.7503,-3.7354,-3.7354,0.0,-3.7031,-3.7048,-3.7048,-3.7027,-3.7185,-3.7185,-3.7164,-3.7523,-3.772,-3.7891,0.0,0.0,0.0,0.0,0.0,0.0,0.0,-1.2803,-1.2803,-1.2943,-1.2838,-1.2768,-1.2873,-1.3126,-1.3441,0.0,0.0,0.0,0.0,0.0,0.0,0.0,0.0,0.0,0.0,0.0,0.0,0.0,0.0,0.0,0.0,0.0,0.0,0.0,0.0,0.0,0.0,0.0,0.0,0.0,0.0,0.0,0.0,0.0,0.0,0.0,0.0,0.0,0.0,0.0,-2.0424,-2.1011,-2.2082,-2.3478,-2.4752,-2.4684,-2.4752,-2.4829,-2.4722,-2.422,-2.3884,-2.4509,-2.5067,-2.5479,-2.543,-2.5246,0.0,0.0,-2.3637,-2.3438,-2.3652,0.0,-2.4944,0.0,-2.683,0.0,0.0,0.0,0.0,0.0,0.0,0.0,0.0,0.0,0.0,0.0,0.0,0.0,-3.6982,-3.6907,-3.697,-3.7182,-3.7087,-3.7108,-3.7317,-3.7167,-3.7164,-3.7312,-3.7317,-3.7358,-3.7452,-3.7504,-3.7503,-3.7354,-3.7279,0.0,0.0,-3.7009,-3.6987,-3.6987,-3.6987,-3.6987,-3.6987,-3.6987,-3.7226,-3.756,0.0,0.0,0.0,0.0,0.0,0.0,0.0,-1.2745,-1.2815,-1.306,-1.2768,-1.2615,-1.2803,-1.2896,-1.2965,0.0,0.0,0.0,0.0,0.0,0.0,0.0,0.0,0.0,0.0,0.0,0.0,0.0,0.0,0.0,0.0,0.0,0.0,0.0,0.0,0.0,0.0,0.0,0.0,0.0,0.0,0.0,0.0,0.0,0.0,0.0,0.0,0.0,0.0,0.0,0.0,-1.9278,-2.0629,-2.2287,-2.3847,-2.4364,0.0,0.0,-2.4601,-2.455,-2.4486,-2.4509,-2.5004,-2.543,-2.5196,0.0,0.0,-2.385,-2.3079,-2.2802,-2.3469,-2.321,-2.3505,0.0,0.0,-2.6885,0.0,0.0,0.0,0.0,0.0,0.0,0.0,0.0,0.0,0.0,0.0,0.0,-3.6974,-3.6591,-3.6492,-3.6834,-3.6788,-3.6846,-3.7009,-3.7009,-3.7126,-3.7392,-3.7334,-3.7392,-3.7577,-3.7466,-3.7392,-3.7297,-3.7147,0.0,0.0,-3.7009,-3.6987,-3.6987,-3.6987,-3.6987,-3.6987,-3.6987,-3.7009,-3.7069,0.0,0.0,0.0,0.0,0.0,0.0,-1.2768,-1.2768,-1.285,-1.3072,-1.2838,-1.2697,-1.2803,-1.2803,-1.2861,-1.3126,0.0,0.0,0.0,0.0,0.0,0.0,0.0,0.0,0.0,0.0,0.0,0.0,0.0,0.0,0.0,0.0,0.0,0.0,0.0,0.0,0.0,0.0,0.0,0.0,0.0,0.0,0.0,0.0,0.0,0.0,0.0,0.0,0.0,0.0,0.0,0.0,-1.9479,-2.0726,0.0,0.0,-2.4461,-2.4601,-2.4601,-2.4248,-2.3981,-2.4438,-2.4346,-2.419,-2.4561,0.0,-2.3408,-2.2636,-2.2084,-2.1923,-2.2422,-2.2523,-2.3047,0.0,0.0,0.0,-2.7689,0.0,0.0,0.0,0.0,0.0,0.0,0.0,0.0,0.0,0.0,0.0,-3.6818,-3.6626,-3.6591,-3.6748,-3.6748,-3.6908,-3.7182,-3.7094,-3.7228,-3.7503,-3.7413,-3.745,-3.7594,-3.7466,-3.7354,-3.7297,-3.7147,0.0,0.0,-3.6987,-3.6987,-3.6987,-3.6987,-3.6987,-3.6987,-3.6987,-3.6987,-3.7027,0.0,0.0,0.0,0.0,0.0,-1.2258,-1.2733,-1.2768,-1.285,-1.299,-1.285,-1.2733,-1.2768,-1.2697,-1.2768,-1.3091,-1.4178,0.0,0.0,0.0,0.0,0.0,0.0,0.0,0.0,0.0,0.0,0.0,0.0,0.0,0.0,0.0,0.0,0.0,0.0,0.0,0.0,0.0,0.0,0.0,0.0,0.0,0.0,0.0,0.0,0.0,0.0,0.0,0.0,0.0,0.0,0.0,0.0,0.0,0.0,0.0,-2.4,-2.4509,-2.4461,-2.4242,-2.4171,-2.4757,-2.4197,-2.367,0.0,0.0,-2.2504,-2.1751,-2.1481,-2.1481,-2.1708,-2.2059,-2.2669,0.0,0.0,-2.5815,-2.6895,0.0,0.0,0.0,0.0,0.0,0.0,0.0,0.0,0.0,0.0,0.0,0.0,-3.6708,-3.6673,-3.6591,-3.6771,-3.693,-3.7087,-3.7152,-3.7303,-3.754,-3.7432,-3.7432,-3.754,-3.7374,-3.7279,-3.7241,0.0,0.0,0.0,-3.6987,-3.6987,-3.6987,-3.6987,-3.6987,-3.6987,-3.6987,-3.6987,-3.6987,0.0,0.0,0.0,0.0,0.0,0.0,-1.2733,-1.2745,-1.2745,-1.2803,-1.2615,-1.2544,-1.2674,-1.2591,-1.2544,-1.2709,-1.4346,0.0,0.0,0.0,0.0,0.0,0.0,0.0,0.0,0.0,-1.6632,-1.6293,-1.7213,-1.7043,0.0,0.0,0.0,0.0,0.0,0.0,0.0,0.0,0.0,0.0,0.0,0.0,0.0,0.0,0.0,0.0,0.0,0.0,0.0,0.0,0.0,0.0,0.0,0.0,0.0,0.0,-2.2995,-2.4273,-2.4145,-2.4809,-2.5592,-2.5592,-2.4938,-2.4242,0.0,0.0,-2.2425,-2.1486,-2.145,-2.1589,-2.1589,-2.1768,-2.2322,-2.3589,-2.3984,0.0,-2.6656,0.0,0.0,0.0,0.0,0.0,0.0,0.0,0.0,0.0,0.0,0.0,0.0,-3.6788,-3.6638,-3.6312,-3.6759,-3.6891,-3.6615,-3.7087,-3.7334,-3.7392,-3.7334,-3.7334,-3.7392,-3.7185,-3.7091,0.0,0.0,0.0,0.0,-3.6987,-3.6987,-3.6987,-3.6987,-3.6987,-3.6987,-3.6987,-3.6987,-3.6987,0.0,0.0,0.0,0.0,0.0,0.0,0.0,-1.2556,-1.2709,-1.2803,-1.2697,-1.2662,-1.2768,-1.2697,-1.2662,-1.2709,-1.3777,0.0,0.0,0.0,0.0,0.0,0.0,0.0,0.0,0.0,-1.7401,-1.6646,-1.7559,-1.7524,-1.6478,-1.6551,0.0,0.0,0.0,0.0,0.0,0.0,0.0,0.0,0.0,0.0,0.0,0.0,0.0,0.0,0.0,0.0,0.0,0.0,0.0,0.0,0.0,0.0,0.0,0.0,0.0,0.0,-2.3371,-2.3656,-2.3823,-2.3823,-2.3133,-2.258,-2.3076,0.0,-2.1756,-2.156,-2.1559,-2.1664,-2.184,-2.184,-2.2352,-2.3911,-2.4129,0.0,0.0,0.0,0.0,0.0,0.0,0.0,0.0,0.0,0.0,0.0,0.0,0.0,0.0,-3.6419,-3.6249,-3.6457,-3.6713,-3.6811,-3.6655,-3.6851,-3.7009,-3.7126,-3.7105,-3.7126,-3.7185,-3.7069,0.0,0.0,0.0,0.0,0.0,-3.6987,-3.6987,-3.6987,-3.6987,-3.6987,-3.6987,-3.6987,-3.6987,-3.6987,0.0,0.0,0.0,0.0,0.0,0.0,0.0,-1.252,-1.2709,-1.2697,-1.2662,-1.2627,-1.2685,-1.2662,-1.2662,-1.2745,-1.3579,0.0,0.0,0.0,0.0,0.0,0.0,0.0,0.0,-1.7814,-1.7624,-1.6705,-1.7319,-1.7239,-1.657,-1.6304,-1.6946,-1.8287,0.0,0.0,0.0,0.0,0.0,0.0,0.0,0.0,-1.8327,0.0,0.0,0.0,0.0,0.0,0.0,0.0,0.0,0.0,0.0,0.0,0.0,0.0,0.0,0.0,0.0,-2.3045,-2.3493,-2.3462,-2.2758,0.0,0.0,0.0,-2.1495,-2.1664,-2.1664,-2.1708,-2.1911,-2.1957,-2.2458,-2.3991,-2.4193,0.0,0.0,0.0,0.0,0.0,0.0,0.0,0.0,0.0,0.0,0.0,0.0,0.0,0.0,-3.6036,-3.5865,-3.5942,-3.6308,-3.6568,-3.6643,-3.68,-3.6904,-3.693,-3.693,-3.693,-3.7009,-3.693,0.0,0.0,0.0,0.0,0.0,-3.6987,-3.6987,-3.6987,-3.6987,-3.6987,-3.6987,-3.6987,-3.6987,-3.6987,0.0,0.0,0.0,0.0,0.0,0.0,0.0,-1.2674,-1.2662,-1.2544,-1.2508,-1.2508,-1.2508,-1.2508,-1.2579,-1.2768,0.0,0.0,0.0,0.0,0.0,0.0,0.0,0.0,-1.8002,-1.7935,-1.752,-1.669,-1.6648,-1.6513,-1.6258,-1.6063,-1.6364,-1.7015,-1.7368,-1.6905,-1.5841,-1.5287,-1.5149,-1.5343,-1.5403,-1.6623,0.0,0.0,0.0,0.0,0.0,0.0,0.0,0.0,0.0,0.0,0.0,0.0,0.0,0.0,0.0,0.0,0.0,0.0,0.0,0.0,0.0,0.0,0.0,0.0,0.0,-2.1768,-2.1768,-2.1738,-2.1869,-2.2061,-2.2593,-2.3864,0.0,0.0,0.0,0.0,0.0,0.0,0.0,0.0,0.0,0.0,0.0,0.0,0.0,0.0,0.0,-3.5677,-3.5377,-3.5011,-3.5671,-3.6165,-3.6446,-3.6765,-3.6911,-3.6771,-3.6771,-3.6788,-3.6788,-3.6771,0.0,0.0,0.0,0.0,0.0,-3.7027,-3.7027,-3.7027,-3.7009,-3.7027,-3.7027,-3.7009,-3.6987,-3.6987,0.0,0.0,0.0,0.0,0.0,0.0,0.0,0.0,0.0,0.0,-1.2733,-1.2733,-1.2733,-1.2733,-1.2768,0.0,0.0,0.0,0.0,0.0,0.0,0.0,0.0,0.0,-1.8149,-1.8149,-1.8025,-1.7799,-1.738,-1.7112,-1.7032,-1.6157,-1.6232,-1.7045,-1.6155,-1.5708,-1.5593,-1.561,-1.5639,-1.5683,-1.5712,-1.6426,0.0,0.0,0.0,0.0,-1.887,-1.8637,0.0,0.0,0.0,0.0,0.0,0.0,0.0,0.0,-1.8104,0.0,0.0,0.0,0.0,0.0,0.0,0.0,0.0,0.0,0.0,0.0,0.0,0.0,0.0,0.0,0.0,0.0,0.0,0.0,0.0,0.0,0.0,0.0,0.0,0.0,0.0,0.0,0.0,0.0,0.0,0.0,0.0,-3.4961,-3.4574,-3.4856,-3.5011,-3.5301,-3.5796,-3.6256,-3.6461,-3.6426,-3.6426,-3.6485,-3.6585,-3.6748,0.0,0.0,0.0,0.0,-3.722,-3.722,-3.722,-3.722,-3.7126,-3.7069,-3.7069,-3.7009,-3.6987,-3.6987,0.0,0.0,0.0,0.0,0.0,0.0,0.0,0.0,0.0,0.0,0.0,-1.2697,-1.2826,-1.2838,0.0,0.0,0.0,0.0,0.0,0.0,0.0,0.0,0.0,-1.7813,-1.7838,-1.7813,-1.7688,-1.7422,-1.738,-1.7251,-1.7023,-1.6362,-1.6346,-1.6787,-1.5736,-1.5281,-1.5224,-1.5209,-1.5269,-1.5344,-1.5477,0.0,0.0,0.0,0.0,0.0,-1.9514,-1.912,0.0,-1.8045,-1.765,-1.7498,0.0,0.0,0.0,0.0,-1.7747,-1.8021,-1.8004,-1.8799,-1.9737,-2.0053,0.0,0.0,0.0,0.0,0.0,0.0,0.0,0.0,0.0,0.0,0.0,0.0,0.0,0.0,0.0,0.0,0.0,0.0,0.0,0.0,0.0,0.0,0.0,0.0,0.0,0.0,0.0,-3.4446,-3.4119,-3.4111,-3.4333,-3.4858,-3.5589,-3.6062,-3.6301,-3.6301,-3.6301,-3.6343,-3.6402,-3.6568,-3.6748,0.0,0.0,0.0,-3.7297,-3.7297,-3.7297,-3.7297,-3.7203,-3.7203,-3.7164,-3.7087,-3.7048,-3.7048,0.0,0.0,0.0,0.0,0.0,0.0,0.0,0.0,0.0,0.0,0.0,0.0,0.0,0.0,0.0,0.0,0.0,0.0,0.0,0.0,0.0,0.0,0.0,-1.7366,-1.7451,-1.7269,-1.7019,-1.6669,-1.7004,-1.6998,-1.6677,-1.6383,-1.6215,-1.6201,-1.5571,-1.5157,-1.4887,-1.4704,-1.4718,-1.4916,-1.5278,0.0,0.0,0.0,0.0,0.0,0.0,0.0,0.0,-1.8323,-1.7731,-1.7451,-1.7498,0.0,0.0,0.0,0.0,0.0,-1.7401,-1.8535,-1.9691,-1.9628,-2.0202,0.0,0.0,0.0,0.0,0.0,0.0,0.0,0.0,0.0,0.0,0.0,0.0,0.0,0.0,0.0,0.0,0.0,0.0,0.0,0.0,0.0,0.0,0.0,0.0,0.0,0.0,-3.4053,-3.3802,-3.3346,-3.385,-3.4513,-3.5358,-3.5844,-3.6114,-3.6199,-3.6199,-3.6216,-3.6301,-3.6444,-3.6626,-3.6811,0.0,0.0,-3.7334,-3.7259,-3.7297,-3.7334,-3.7334,-3.7297,-3.7297,-3.7147,-3.7108,-3.7069,0.0,0.0,0.0,0.0,0.0,0.0,0.0,0.0,0.0,0.0,0.0,0.0,0.0,0.0,0.0,0.0,0.0,0.0,0.0,0.0,0.0,-1.7322,-1.7483,-1.7567,-1.7553,-1.7062,-1.6992,-1.7413,-1.6445,-1.6193,-1.6663,-1.5515,-1.4994,-1.4994,-1.4991,-1.4972,-1.4982,-1.5133,-1.5192,-1.5296,-1.6066,0.0,0.0,0.0,0.0,0.0,0.0,0.0,0.0,-1.7762,-1.7248,-1.7216,-1.7441,0.0,0.0,0.0,0.0,0.0,-1.7296,-1.851,-1.976,-1.9698,-2.0191,0.0,0.0,0.0,0.0,0.0,0.0,0.0,0.0,0.0,0.0,0.0,0.0,0.0,0.0,0.0,0.0,0.0,0.0,0.0,0.0,0.0,0.0,0.0,0.0,0.0,0.0,-3.3729,-3.3435,-3.345,-3.3878,-3.4137,-3.4316,-3.4802,-3.5253,-3.5722,-3.5722,-3.5941,-3.6301,-3.6561,-3.6766,-3.6948,0.0,-3.6992,-3.7503,-3.7129,-3.7206,-3.754,-3.7429,-3.7354,-3.7297,-3.7297,-3.7182,-3.7009,0.0,0.0,0.0,0.0,0.0,0.0,0.0,0.0,0.0,0.0,0.0,0.0,0.0,0.0,0.0,0.0,0.0,0.0,0.0,0.0,-1.644,-1.6752,-1.7297,-1.7604,-1.7604,-1.7,-1.6831,-1.7098,-1.6543,-1.6267,-1.6143,-1.5198,-1.4746,-1.4777,-1.4839,-1.4856,-1.4904,-1.4994,-1.5025,-1.5084,0.0,0.0,0.0,0.0,0.0,0.0,0.0,0.0,0.0,0.0,-1.6825,-1.7002,-1.7093,0.0,0.0,0.0,0.0,0.0,-1.6773,-1.7763,-1.9012,-1.9771,0.0,-2.1966,-2.211,0.0,0.0,0.0,0.0,0.0,0.0,0.0,0.0,0.0,0.0,0.0,0.0,0.0,0.0,0.0,0.0,0.0,0.0,0.0,0.0,0.0,0.0,0.0,0.0,0.0,-3.3361,-3.3398,-3.3557,-3.3678,-3.3658,-3.3882,-3.4399,-3.5161,-3.5481,-3.5571,-3.5509,-3.5898,-3.6054,-3.5959,0.0,-3.6011,-3.6411,-3.6487,-3.6666,-3.6882,-3.7129,-3.7223,-3.7164,-3.7087,-3.7048,-3.7048,0.0,0.0,0.0,0.0,0.0,0.0,0.0,0.0,0.0,0.0,0.0,0.0,0.0,0.0,0.0,0.0,0.0,0.0,0.0,0.0,-1.6244,-1.628,-1.713,-1.75,-1.7219,-1.6705,-1.6452,-1.6501,-1.64,-1.6075,-1.5497,-1.5019,-1.4808,-1.4808,-1.4808,-1.4808,-1.4839,-1.4839,-1.4825,-1.4871,0.0,0.0,0.0,0.0,0.0,0.0,0.0,0.0,0.0,0.0,0.0,0.0,0.0,0.0,0.0,-1.6554,-1.6474,-1.6421,-1.6313,-1.7279,-1.8591,-1.9709,0.0,-2.2324,-2.2865,0.0,0.0,0.0,0.0,0.0,0.0,0.0,0.0,0.0,0.0,0.0,0.0,0.0,0.0,0.0,0.0,0.0,0.0,0.0,0.0,0.0,0.0,0.0,0.0,0.0,-3.3324,-3.3361,-3.3309,-3.3309,-3.3309,-3.3309,-3.3729,-3.4642,-3.5068,-3.5115,-3.4816,-3.5253,-3.5311,-3.5107,-3.4985,-3.5107,-3.5419,-3.5718,-3.5908,-3.6079,-3.6643,-3.6821,-3.6781,-3.658,-3.662,-3.6759,0.0,0.0,0.0,0.0,0.0,0.0,0.0,0.0,0.0,0.0,0.0,0.0,0.0,0.0,0.0,0.0,0.0,0.0,0.0,0.0,-1.5918,-1.5955,-1.7079,-1.7185,-1.6066,-1.5867,-1.5792,-1.5858,-1.5312,-1.5015,-1.4972,-1.4853,-1.4808,-1.4808,-1.4808,-1.4839,-1.4902,-1.4902,-1.4918,-1.5056,-1.5939,0.0,0.0,0.0,0.0,0.0,0.0,0.0,0.0,0.0,0.0,0.0,0.0,0.0,-1.6191,-1.6421,-1.6367,-1.6231,-1.6301,-1.7768,-1.9311,-1.9356,-1.9609,0.0,-2.2505,-2.2264,0.0,-2.2189,0.0,0.0,0.0,0.0,0.0,0.0,0.0,0.0,0.0,0.0,0.0,0.0,0.0,0.0,0.0,0.0,0.0,0.0,0.0,0.0,0.0,0.0,0.0,-3.3503,-3.3346,-3.3309,-3.3309,-3.3309,-3.3607,-3.4134,-3.4184,-3.4415,-3.4769,-3.4833,-3.4925,-3.5061,-3.469,-3.4894,-3.5374,-3.5031,-3.5107,-3.5525,-3.5925,-3.5994,-3.5891,-3.5664,-3.5698,-3.5786,0.0,0.0,0.0,0.0,0.0,0.0,0.0,0.0,0.0,0.0,0.0,0.0,0.0,0.0,0.0,0.0,0.0,0.0,0.0,-1.464,-1.5497,-1.4999,-1.6732,-1.6979,-1.5501,-1.5669,-1.5821,-1.5919,-1.537,-1.5086,-1.5086,-1.4932,-1.4887,-1.4935,-1.4887,-1.4887,-1.4966,-1.4966,-1.4996,-1.5027,-1.5394,-1.5525,0.0,0.0,0.0,0.0,0.0,0.0,0.0,0.0,-1.5896,-1.5953,0.0,0.0,-1.5938,0.0,-1.5725,-1.5682,-1.5868,-1.7167,-1.8621,-1.9214,-1.9467,0.0,0.0,-2.3494,-2.3274,-2.356,-2.3843,0.0,0.0,0.0,0.0,0.0,0.0,0.0,0.0,0.0,0.0,0.0,0.0,0.0,0.0,0.0,0.0,0.0,0.0,0.0,0.0,0.0,0.0,-3.3361,-3.3361,-3.3309,-3.3309,-3.3309,-3.3398,-3.3607,-3.3949,-3.4034,-3.3882,-3.4218,-3.4202,-3.3986,-3.3729,-3.3764,-3.3953,-3.4037,-3.417,-3.4446,-3.5031,-3.5244,-3.5211,-3.4922,-3.4985,-3.5153,0.0,0.0,0.0,0.0,0.0,0.0,0.0,0.0,0.0,0.0,0.0,0.0,0.0,0.0,0.0,0.0,0.0,0.0,-1.2873,-1.4423,-1.514,-1.467,-1.6215,-1.6519,-1.5384,-1.5443,-1.5556,-1.5684,-1.5363,-1.5222,-1.5222,-1.5011,-1.4966,-1.5013,-1.4935,-1.4966,-1.5058,-1.5058,-1.5088,-1.5088,-1.5088,-1.5088,0.0,0.0,0.0,0.0,0.0,0.0,0.0,0.0,0.0,0.0,0.0,0.0,0.0,0.0,0.0,-1.5816,-1.6039,-1.7151,-1.8425,0.0,0.0,0.0,-2.3539,-2.3867,-2.3782,-2.4484,-2.4564,0.0,0.0,0.0,0.0,0.0,0.0,0.0,0.0,0.0,0.0,0.0,0.0,0.0,0.0,0.0,0.0,0.0,0.0,0.0,0.0,0.0,0.0,0.0,-3.3309,-3.3309,-3.3309,-3.3309,-3.3309,-3.3293,-3.3642,-3.3658,-3.3293,-3.371,-3.3658,-3.3309,-3.3203,-3.315,-3.3096,-3.3351,-3.3527,-3.3732,-3.4153,-3.4366,-3.4333,-3.412,-3.417,-3.4333,0.0,0.0,0.0,0.0,0.0,0.0,0.0,0.0,0.0,0.0,0.0,0.0,0.0,0.0,0.0,0.0,0.0,0.0,-1.3251,-1.4224,-1.4913,-1.5182,-1.5521,-1.5688,-1.5674,-1.5117,-1.4887,-1.5013,-1.5133,-1.5253,-1.5313,-1.5088,-1.5013,-1.5013,-1.5013,-1.5088,-1.5192,-1.5192,-1.5253,-1.5313,-1.5313,-1.5313,-1.5313,0.0,0.0,0.0,0.0,0.0,0.0,0.0,0.0,0.0,0.0,0.0,0.0,0.0,-1.6099,-1.6727,-1.694,-1.794,0.0,0.0,0.0,0.0,-2.3349,-2.2871,-2.2594,-2.4673,0.0,0.0,0.0,0.0,0.0,0.0,0.0,0.0,0.0,0.0,0.0,0.0,0.0,0.0,0.0,0.0,0.0,0.0,0.0,0.0,0.0,0.0,0.0,0.0,-3.3293,-3.3293,-3.3293,-3.3293,-3.3293,-3.3309,-3.3309,-3.3309,-3.3309,-3.3309,-3.3309,-3.3309,-3.3309,-3.3203,-3.3096,-3.3096,-3.3224,-3.3387,-3.3387,-3.3319,-3.3182,-3.3182,-3.3182,-3.3182,0.0,0.0,0.0,0.0,0.0,0.0,0.0,0.0,0.0,0.0,0.0,0.0,0.0,0.0,0.0,0.0,0.0,0.0,-1.3043,-1.3838,-1.4443,-1.4704,-1.544,-1.5641,-1.5219,-1.5219,-1.5239,-1.5285,-1.5329,-1.5344,-1.5374,-1.5224,-1.5163,-1.5208,-1.5163,-1.5178,-1.5283,-1.5283,-1.5283,-1.5313,-1.5313,-1.5313,-1.5313,0.0,0.0,0.0,0.0,0.0,0.0,0.0,0.0,0.0,0.0,0.0,0.0,-1.5254,-1.5459,-1.5784,-1.6486,0.0,0.0,0.0,0.0,0.0,0.0,-2.2888,0.0,0.0,0.0,0.0,0.0,0.0,0.0,0.0,0.0,0.0,0.0,0.0,0.0,0.0,0.0,0.0,0.0,0.0,0.0,0.0,0.0,0.0,0.0,0.0,0.0,0.0,-3.1823,-3.2076,-3.2566,-3.2582,-3.2767,-3.315,-3.315,-3.3203,-3.3309,-3.3309,-3.3309,-3.3309,-3.3203,-3.315,-3.3096,-3.3005,-3.292,-3.2834,-3.2834,-3.2834,-3.2765,-3.2641,-3.2641,-3.2641,0.0,0.0,0.0,0.0,0.0,0.0,0.0,0.0,0.0,0.0,-1.1201,0.0,0.0,0.0,0.0,0.0,0.0,0.0,0.0,-1.3349,-1.3743,-1.4002,-1.4722,-1.5031,-1.478,-1.5058,-1.5193,-1.5193,-1.5239,-1.5255,-1.5285,-1.5149,-1.5102,-1.5147,-1.5192,-1.5253,-1.5313,-1.5283,-1.5283,-1.5313,-1.5313,-1.5313,-1.5313,0.0,0.0,0.0,0.0,0.0,0.0,0.0,0.0,0.0,0.0,0.0,0.0,-1.571,-1.6051,-1.6452,-1.7342,0.0,0.0,0.0,0.0,0.0,0.0,0.0,0.0,0.0,0.0,0.0,0.0,0.0,0.0,0.0,0.0,0.0,0.0,0.0,0.0,0.0,0.0,0.0,0.0,0.0,0.0,0.0,0.0,0.0,0.0,0.0,0.0,0.0,-3.1058,-3.1262,-3.1687,-3.1804,-3.2151,-3.2793,-3.2725,-3.2867,-3.3203,-3.315,-3.315,-3.315,-3.2989,-3.2935,-3.3005,-3.2773,-3.2648,-3.2578,-3.2523,-3.2523,-3.2523,-3.2453,-3.2398,-3.2398,0.0,0.0,0.0,0.0,0.0,0.0,0.0,0.0,0.0,0.0,-1.1212,-1.1719,0.0,0.0,0.0,0.0,0.0,0.0,0.0,0.0,-1.2975,-1.3292,-1.3749,-1.413,-1.4447,-1.4732,-1.4932,-1.4932,-1.4951,-1.5013,-1.5074,-1.4937,-1.4873,-1.4902,-1.5056,-1.5192,-1.5208,-1.5147,-1.5192,-1.5253,-1.5253,-1.5281,-1.5339,-1.5339,0.0,0.0,0.0,0.0,0.0,0.0,0.0,0.0,0.0,-1.4944,-1.5125,-1.6367,-1.7211,-1.7953,-1.8799,0.0,0.0,0.0,0.0,0.0,0.0,0.0,0.0,0.0,0.0,0.0,0.0,0.0,0.0,0.0,0.0,0.0,0.0,0.0,0.0,0.0,0.0,0.0,0.0,0.0,0.0,0.0,0.0,0.0,0.0,0.0,0.0,-3.0773,-3.0704,-3.0635,-3.0697,-3.0964,-3.1476,-3.2171,-3.1934,-3.2191,-3.2895,-3.292,-3.2897,-3.2897,-3.2718,-3.2718,-3.2897,-3.2578,-3.2523,-3.2578,-3.2453,-3.2398,-3.2398,-3.2398,-3.2398,-3.2398,0.0,0.0,0.0,0.0,0.0,0.0,0.0,0.0,0.0,0.0,0.0,0.0,0.0,0.0,0.0,0.0,0.0,0.0,0.0,0.0,-1.2782,-1.3276,-1.3754,-1.4278,-1.4859,-1.4951,-1.4982,-1.4982,-1.4842,-1.4825,-1.4949,-1.4825,-1.4732,-1.4746,-1.4808,-1.4763,-1.4672,-1.4672,-1.4718,-1.4839,-1.4839,-1.5184,-1.5687,-1.5687,-1.6104,0.0,0.0,0.0,0.0,0.0,0.0,0.0,-1.5525,-1.5188,-1.4885,-1.5293,-1.6032,-1.6882,0.0,-1.8899,0.0,0.0,0.0,0.0,0.0,0.0,0.0,0.0,0.0,0.0,0.0,0.0,0.0,0.0,0.0,0.0,0.0,0.0,0.0,0.0,0.0,0.0,0.0,0.0,0.0,0.0,0.0,0.0,0.0,0.0,0.0,-2.9344,-2.9217,-2.9434,-2.9996,-3.0159,-3.0553,0.0,-3.0737,-3.0898,-3.1496,-3.2486,-3.2897,-3.2897,-3.2843,-3.2843,-3.2897,-3.2843,-3.2718,-3.2594,-3.2578,-3.2523,-3.2398,-3.2398,-3.2398,-3.2398,0.0,0.0,0.0,0.0,0.0,0.0,0.0,0.0,0.0,0.0,0.0,0.0,0.0,0.0,0.0,0.0,0.0,0.0,0.0,0.0,-1.2579,-1.3216,-1.3471,-1.3954,-1.4655,-1.4641,-1.4641,-1.4641,-1.4543,-1.4543,-1.4718,-1.4606,-1.4556,-1.4525,-1.456,-1.4578,-1.4501,-1.4501,-1.4578,-1.4728,-1.4989,-1.5296,-1.5683,-1.5943,-1.6515,-1.7106,-1.6789,0.0,0.0,0.0,0.0,0.0,0.0,0.0,-1.5332,-1.5891,-1.6401,-1.6939,0.0,0.0,0.0,0.0,0.0,0.0,0.0,0.0,0.0,0.0,0.0,0.0,0.0,0.0,0.0,0.0,0.0,0.0,0.0,0.0,0.0,0.0,0.0,0.0,0.0,0.0,0.0,0.0,0.0,0.0,0.0,-2.8155,-2.7894,-2.8207,-2.8301,-2.8422,-2.8595,-2.9459,-3.0185,-3.0705,-3.0809,-3.0999,-3.1369,-3.1982,-3.2318,-3.2444,-3.2444,-3.2554,-3.2773,-3.2703,-3.2648,-3.2578,-3.2523,-3.2453,-3.2398,-3.2398,-3.2398,-3.2398,0.0,0.0,0.0,0.0,0.0,0.0,0.0,0.0,0.0,0.0,0.0,0.0,0.0,0.0,0.0,0.0,0.0,0.0,0.0,0.0,0.0,-1.3251,-1.3285,-1.3602,-1.43,-1.43,-1.43,-1.43,-1.4235,-1.4319,-1.447,-1.4369,-1.4319,-1.43,-1.4388,-1.4452,-1.4406,-1.4438,-1.4552,-1.4782,-1.5214,-1.5544,-1.5813,-1.6239,-1.6867,-1.7463,-1.6964,-1.719,-1.7651,-1.7169,0.0,0.0,0.0,0.0,-1.6027,-1.6747,-1.7156,-1.7466,0.0,0.0,0.0,0.0,0.0,0.0,0.0,0.0,0.0,0.0,0.0,0.0,0.0,0.0,0.0,0.0,0.0,0.0,0.0,0.0,0.0,0.0,0.0,0.0,0.0,0.0,0.0,0.0,0.0,0.0,-2.8352,-2.747,-2.7063,-2.7297,-2.756,-2.7545,-2.7195,-2.856,-2.957,-3.0279,-3.1028,-3.1357,-3.1222,-3.1332,-3.1552,-3.1925,-3.1925,-3.215,-3.2413,-3.2342,-3.2342,-3.2413,-3.2342,-3.2287,-3.2342,-3.2342,-3.2342,-3.2342,0.0,0.0,0.0,0.0,0.0,0.0,0.0,0.0,0.0,0.0,-1.2041,0.0,0.0,0.0,0.0,0.0,0.0,0.0,0.0,0.0,0.0,-1.3602,-1.3635,-1.3848,-1.43,-1.43,-1.43,-1.43,-1.43,-1.43,-1.4319,-1.4144,-1.4111,-1.4203,-1.4222,-1.4176,-1.4052,-1.4176,-1.4499,-1.4868,-1.4948,-1.577,-1.6866,-1.6759,-1.7295,-1.8064,-1.7995,-1.8048,-1.8143,-1.8229,-1.7913,0.0,0.0,0.0,0.0,-1.6123,-1.6972,-1.7996,0.0,0.0,0.0,0.0,0.0,0.0,0.0,0.0,0.0,0.0,0.0,0.0,0.0,0.0,0.0,0.0,0.0,0.0,0.0,0.0,0.0,0.0,0.0,0.0,0.0,0.0,0.0,0.0,0.0,0.0,-2.7056,-2.6652,-2.6445,-2.6567,-2.6491,-2.6573,-2.6782,-2.6826,-2.7558,-2.8979,-3.0102,-3.0157,-2.9322,-3.0411,-3.1161,-3.1552,-3.1552,-3.1667,-3.1853,-3.1781,-3.1781,-3.1853,-3.1781,-3.191,-3.2038,-3.2038,-3.215,-3.2247,0.0,0.0,0.0,0.0,0.0,0.0,0.0,0.0,0.0,0.0,0.0,-1.2113,0.0,0.0,0.0,0.0,0.0,0.0,0.0,0.0,0.0,-1.3682,-1.3648,-1.3848,-1.43,-1.4268,-1.4268,-1.43,-1.43,-1.43,-1.43,-1.4222,-1.4189,-1.4268,-1.4268,-1.4189,-1.4138,-1.4573,-1.485,-1.5063,-1.5829,-1.641,-1.6871,-1.7378,-1.7664,-1.7814,-1.8016,-1.8095,-1.8095,-1.8268,-1.8166,-1.8019,-1.8072,0.0,0.0,0.0,-1.7313,0.0,-1.7984,0.0,0.0,0.0,0.0,0.0,0.0,0.0,0.0,0.0,0.0,0.0,0.0,0.0,0.0,0.0,0.0,0.0,0.0,0.0,0.0,0.0,0.0,0.0,0.0,0.0,0.0,0.0,0.0,-2.6342,-2.6611,-2.6087,-2.5751,-2.5741,-2.5863,-2.5932,-2.5877,-2.6569,-2.757,-2.892,-2.916,-2.9199,-2.9106,-2.911,-2.9676,-3.0728,-3.1099,-3.1364,-3.161,-3.161,-3.161,-3.1682,-3.161,-3.1682,-3.1796,-3.1739,-3.1796,-3.1966,0.0,0.0,0.0,0.0,0.0,0.0,0.0,0.0,0.0,0.0,0.0,0.0,0.0,0.0,0.0,0.0,0.0,0.0,0.0,0.0,0.0,0.0,0.0,-1.3648,-1.4013,-1.4059,-1.4124,-1.4189,-1.4287,-1.4332,-1.4332,-1.4351,-1.4351,-1.4351,-1.4351,-1.44,-1.4511,-1.5026,-1.5358,-1.5569,-1.6556,-1.6925,-1.6917,-1.7652,-1.7774,-1.7557,-1.7868,-1.7962,-1.7962,-1.8189,-1.8307,-1.8372,-1.8478,-1.8232,0.0,0.0,0.0,0.0,0.0,0.0,0.0,0.0,0.0,0.0,0.0,0.0,0.0,0.0,0.0,0.0,0.0,0.0,0.0,0.0,0.0,0.0,0.0,0.0,0.0,0.0,0.0,0.0,0.0,0.0,0.0,0.0,0.0,-2.5687,-2.596,-2.5481,-2.509,-2.4921,-2.5189,-2.5245,-2.5007,-2.6372,-2.7556,-2.8502,-2.8446,-2.8614,-2.9045,-2.8429,-2.8685,-2.9551,-3.0322,-3.0777,-3.0999,-3.119,-3.1321,-3.1379,-3.1321,-3.1379,-3.1495,-3.1495,-3.1495,-3.1625,0.0,0.0,0.0,0.0,0.0,0.0,0.0,0.0,0.0,0.0,0.0,0.0,-1.221,-1.2138,-1.2186,-1.2377,-1.2222,-1.2389,-1.3113,-1.2801,-1.2941,-1.3682,0.0,0.0,-1.3251,-1.3568,-1.3782,-1.3934,-1.4254,-1.4397,-1.4397,-1.4452,-1.4501,-1.4501,-1.4501,-1.4782,-1.523,-1.5339,-1.5833,-1.6532,-1.6585,-1.6944,-1.7435,-1.731,-1.7365,-1.7557,-1.7868,-1.7895,-1.7801,-1.8321,-1.8478,-1.8478,-1.8517,-1.8592,-1.8589,0.0,0.0,0.0,0.0,0.0,0.0,0.0,0.0,0.0,0.0,0.0,0.0,0.0,0.0,0.0,0.0,0.0,0.0,0.0,0.0,0.0,0.0,0.0,0.0,0.0,0.0,0.0,0.0,0.0,0.0,0.0,0.0,-2.4711,-2.4452,-2.4545,-2.4514,-2.4171,-2.4171,-2.4319,-2.4509,-2.5835,-2.6613,-2.695,-2.8098,-2.8573,-2.8358,-2.899,-2.8733,-2.8023,-2.9142,-2.9685,-2.9747,-3.0372,-3.0628,-3.0687,-3.0821,-3.0925,-3.1087,-3.1219,-3.1336,-3.1336,0.0,0.0,0.0,0.0,0.0,0.0,0.0,0.0,0.0,0.0,0.0,0.0,0.0,-1.2174,-1.2294,-1.2282,-1.221,-1.2389,-1.2953,-1.2849,-1.3035,-1.3547,-1.3331,-1.3216,-1.3251,-1.3501,-1.3702,-1.3901,-1.4026,-1.4222,-1.4452,-1.431,-1.4561,-1.5076,-1.5076,-1.5167,-1.5394,-1.6104,-1.6528,-1.6898,-1.7341,-1.7545,0.0,0.0,0.0,0.0,0.0,0.0,-1.7625,-1.7989,-1.8202,-1.8321,-1.8321,-1.8439,-1.8539,-1.8096,0.0,0.0,0.0,0.0,0.0,0.0,0.0,0.0,0.0,0.0,0.0,0.0,0.0,0.0,0.0,0.0,0.0,0.0,0.0,0.0,0.0,0.0,0.0,0.0,0.0,0.0,0.0,0.0,0.0,0.0,0.0,0.0,-2.4292,-2.4376,-2.4287,-2.4112,-2.4112,-2.4171,-2.4261,-2.5063,-2.5708,-2.6171,-2.7006,-2.735,-2.7287,-2.7501,-2.7296,-2.6982,-2.7818,-2.8496,-2.917,-3.004,-3.0478,-3.0598,-3.0984,-3.1161,-3.1161,-3.1058,-3.0999,-3.0999,0.0,0.0,0.0,0.0,0.0,0.0,0.0,0.0,0.0,-1.1159,0.0,0.0,0.0,0.0,-1.2246,-1.2258,-1.2282,-1.2461,-1.2861,-1.2791,-1.2896,-1.3276,-1.3057,-1.2941,-1.301,-1.3229,-1.3433,-1.3622,-1.3749,-1.398,-1.4374,-1.4384,-1.4775,-1.5434,-1.5813,-1.597,-1.6011,0.0,0.0,-1.7287,0.0,0.0,-1.7666,0.0,0.0,0.0,0.0,0.0,0.0,-1.7909,-1.8083,-1.8202,-1.8202,-1.8189,-1.8149,0.0,0.0,0.0,-1.7557,0.0,0.0,0.0,0.0,0.0,0.0,0.0,0.0,0.0,0.0,0.0,0.0,0.0,0.0,0.0,0.0,0.0,0.0,0.0,0.0,0.0,0.0,0.0,0.0,0.0,0.0,0.0,0.0,0.0,-2.4292,-2.4292,-2.4247,-2.4112,-2.4112,-2.4112,-2.4112,-2.4491,-2.4975,-2.5537,-2.5978,-2.6254,-2.645,-2.6514,-2.6386,-2.6271,-2.6953,-2.7749,-2.861,-2.9546,-3.0101,-3.0464,-3.0896,-3.1029,-3.097,-3.0984,-3.0821,-3.0628,0.0,0.0,0.0,0.0,0.0,0.0,0.0,0.0,-1.0981,-1.0981,0.0,0.0,0.0,0.0,0.0,-1.233,-1.2437,-1.2579,-1.2861,-1.2579,-1.2556,-1.2873,-1.2579,-1.2413,-1.2413,-1.272,-1.2965,-1.3091,-1.3433,-1.3749,-1.4124,-1.4701,-1.5134,-1.5449,-1.6582,-1.7077,-1.7104,0.0,-1.7353,-1.7679,0.0,-1.7516,-1.7475,0.0,0.0,0.0,-1.8029,-1.7963,0.0,-1.8083,0.0,0.0,0.0,0.0,0.0,0.0,0.0,0.0,0.0,0.0,0.0,0.0,0.0,0.0,0.0,0.0,0.0,0.0,0.0,0.0,0.0,0.0,0.0,0.0,0.0,0.0,0.0,0.0,0.0,0.0,0.0,0.0,0.0,0.0,0.0,0.0,0.0,-2.4292,-2.4292,-2.4292,-2.4247,-2.4112,-2.4112,-2.4112,-2.4112,-2.4112,-2.44,-2.5022,-2.5143,-2.5493,-2.5972,-2.6219,-2.6158,-2.6011,-2.6628,-2.7273,-2.8012,-2.8753,-2.956,-3.0269,-3.045,-3.0389,-3.0389,-3.1029,-3.0732,-3.0129,0.0,0.0,0.0,0.0,0.0,0.0,-1.0166,-1.0361,-1.0582,0.0,0.0,0.0,-1.1394,-1.1568,-1.1763,-1.1957,-1.1872,-1.1909,-1.2102,-1.221,-1.2282,-1.2389,-1.2425,-1.2473,-1.2473,-1.2756,-1.2965,-1.3091,-1.3104,-1.35,-1.4232,-1.4116,-1.4624,-1.5647,-1.6283,-1.6798,-1.7168,-1.7437,0.0,-1.7378,-1.7543,-1.7502,0.0,0.0,0.0,0.0,0.0,-1.776,-1.772,0.0,-1.7774,-1.7489,0.0,0.0,0.0,0.0,0.0,0.0,-1.6466,0.0,0.0,0.0,0.0,0.0,0.0,0.0,0.0,0.0,0.0,0.0,0.0,0.0,0.0,0.0,0.0,0.0,0.0,0.0,0.0,0.0,0.0,0.0,0.0,0.0,0.0,0.0,-2.3966,-2.4157,-2.4157,-2.4157,-2.4157,-2.4112,-2.4112,-2.4112,-2.4112,-2.4112,-2.44,-2.5022,-2.5143,-2.5282,-2.544,-2.5668,-2.5728,-2.5561,-2.5841,-2.6419,-2.7311,-2.8534,-2.9142,-2.9442,-3.0101,-3.0222,-3.0072,-3.0162,-3.0007,-2.9789,0.0,0.0,0.0,0.0,0.0,-0.9527,-0.9952,-1.0196,-1.0477,0.0,0.0,0.0,-1.1282,-1.1383,-1.1579,-1.1774,-1.1737,-1.1726,-1.1774,-1.1957,-1.2029,-1.2029,-1.2222,-1.233,-1.233,-1.2579,-1.2829,-1.3083,-1.3023,-1.346,-1.4337,-1.4333,-1.4817,-1.5737,0.0,0.0,0.0,0.0,0.0,0.0,-1.7397,0.0,0.0,-1.772,-1.7842,0.0,0.0,0.0,-1.8084,-1.7746,-1.731,0.0,0.0,0.0,0.0,0.0,0.0,0.0,0.0,0.0,0.0,0.0,0.0,0.0,-1.6281,-1.6548,0.0,0.0,0.0,0.0,0.0,0.0,0.0,0.0,0.0,0.0,0.0,0.0,0.0,0.0,0.0,0.0,0.0,0.0,0.0,-2.2734,-2.3153,-2.3567,-2.3923,-2.3897,-2.3852,-2.3682,-2.3852,-2.3878,-2.3878,-2.3878,-2.4092,-2.4429,-2.4655,-2.4655,-2.4489,-2.513,-2.5223,-2.4964,-2.5442,-2.6052,-2.6728,-2.7719,-2.8466,-2.9066,-2.967,-2.9794,-2.9718,-2.9842,-2.9685,-2.9415,0.0,0.0,-0.8529,-0.8602,-0.9007,-0.9408,-0.9697,-1.0137,-1.0592,0.0,-1.0971,-1.1079,-1.1394,-1.1394,-1.1519,-1.183,-1.1867,-1.1867,-1.1867,-1.1867,-1.1905,-1.1905,-1.2127,-1.2249,-1.2249,-1.2469,-1.2777,-1.3209,-1.317,-1.3611,-1.4417,-1.4885,-1.5294,-1.5686,0.0,0.0,0.0,0.0,0.0,-1.7787,-1.7165,-1.7287,0.0,0.0,-1.7923,-1.7923,-1.7977,-1.8288,-1.8551,-1.7552,-1.6918,0.0,0.0,0.0,0.0,0.0,-1.5501,0.0,0.0,0.0,0.0,0.0,0.0,0.0,-1.5579,-1.5546,-1.5688,0.0,0.0,0.0,0.0,0.0,0.0,0.0,0.0,0.0,0.0,0.0,0.0,0.0,0.0,0.0,0.0,-2.118,-2.1343,-2.1534,-2.1971,-2.2649,-2.3515,-2.35,-2.3399,-2.3132,-2.3412,-2.3509,-2.3556,-2.3556,-2.3556,-2.3569,-2.3839,-2.3793,-2.3475,-2.4476,-2.4748,-2.4392,-2.5236,-2.5883,-2.6303,-2.6707,-2.7672,-2.8889,-2.9107,-2.9184,-2.9247,-2.9656,-2.9498,-2.9099,0.0,0.0,-0.9128,-0.935,-0.9825,-1.0225,-1.0447,-1.0746,-1.0968,-1.093,-1.123,-1.1622,-1.2069,-1.2111,-1.2111,-1.2204,-1.2194,-1.2194,-1.2194,-1.239,-1.2514,-1.2514,-1.2973,-1.3225,-1.3225,-1.3465,-1.363,-1.3736,-1.3708,-1.3924,-1.4467,-1.4541,-1.4798,-1.526,0.0,0.0,0.0,0.0,0.0,-1.7325,-1.7061,0.0,-1.7378,-1.7747,-1.7906,-1.7895,-1.7925,-1.8041,-1.8092,-1.7478,-1.6985,-1.652,0.0,0.0,0.0,-1.5096,0.0,0.0,0.0,0.0,0.0,0.0,0.0,0.0,-1.4949,-1.4949,-1.5063,0.0,0.0,0.0,0.0,0.0,0.0,0.0,0.0,0.0,0.0,0.0,0.0,0.0,0.0,0.0,0.0,-1.9715,-1.9975,-2.0031,-2.0878,-2.1617,-2.2247,-2.2598,-2.298,-2.3321,-2.3273,-2.3188,-2.3198,-2.3198,-2.3198,-2.3198,-2.345,-2.3569,-2.3569,-2.387,-2.4235,-2.4538,-2.494,-2.5491,-2.6181,-2.6531,-2.7313,-2.8249,-2.8327,-2.8522,-2.8702,-2.8675,-2.8688,-2.8716,0.0,-0.8975,-0.9177,-0.939,-0.9667,-0.9979,-1.0307,-1.0685,-1.1015,-1.1195,-1.1655,-1.2048,-1.2276,-1.2307,-1.2307,-1.2307,-1.2307,-1.2307,-1.2307,-1.2425,-1.251,-1.251,-1.2848,-1.3109,-1.3192,-1.344,-1.3771,-1.4162,-1.412,-1.4344,-1.4785,-1.4741,-1.4878,0.0,0.0,0.0,0.0,0.0,-1.543,-1.6262,-1.6889,0.0,-1.7587,-1.8133,-1.8205,-1.7944,-1.7944,-1.7843,-1.7702,-1.7983,-1.7436,0.0,0.0,-1.6265,-1.5761,0.0,-1.5195,-1.5092,0.0,0.0,0.0,-1.4684,0.0,0.0,0.0,-1.4684,-1.4719,0.0,0.0,0.0,0.0,0.0,0.0,0.0,0.0,0.0,0.0,0.0,0.0,0.0,0.0,0.0,0.0,-1.8561,-1.8707,-1.9006,-1.9737,-2.0487,-2.1288,-2.1743,-2.2174,-2.2602,-2.294,-2.3055,-2.3017,-2.3078,-2.3078,-2.3017,-2.3271,-2.3343,-2.3163,-2.3717,-2.3965,-2.4004,-2.4394,-2.4893,-2.5447,-2.5781,-2.6505,-2.7328,-2.7894,-2.8276,-2.8587,-2.8365,-2.8444,-2.8587,0.0,-0.9056,-0.9114,-0.9385,-0.9434,-0.9608,-1.0052,-1.0616,-1.1201,-1.1728,-1.2172,-1.2474,-1.2557,-1.2567,-1.2567,-1.2567,-1.265,-1.2661,-1.2567,-1.265,-1.2661,-1.2567,-1.2741,-1.2958,-1.313,-1.3301,-1.3757,-1.4403,-1.4435,-1.464,-1.5017,-1.5062,0.0,0.0,0.0,0.0,0.0,0.0,0.0,-1.541,0.0,-1.7406,-1.7854,-1.8293,-1.8278,-1.7909,-1.7922,-1.7725,-1.7599,-1.8434,-1.7838,-1.6823,-1.7199,-1.698,0.0,0.0,0.0,0.0,0.0,0.0,0.0,0.0,0.0,-1.4581,0.0,0.0,0.0,0.0,0.0,0.0,0.0,0.0,0.0,0.0,0.0,0.0,0.0,0.0,0.0,0.0,0.0,0.0,0.0,-1.749,-1.7523,-1.8012,-1.8521,-1.9294,-2.0374,-2.0836,-2.1302,-2.182,-2.2496,-2.2857,-2.2848,-2.2969,-2.2969,-2.2848,-2.3163,-2.3103,-2.2763,-2.3566,-2.3763,-2.346,-2.3976,-2.434,-2.4715,-2.5154,-2.5717,-2.6453,-2.7578,-2.821,-2.8457,-2.8365,-2.8444,-2.8587,-0.9339,-0.9279,-0.9394,-0.9756,-0.9978,-1.0197,-1.0472,-1.1213,-1.1971,-1.2793,-1.2855,-1.3,-1.3424,0.0,0.0,0.0,0.0,0.0,-1.3486,0.0,-1.389,-1.3476,-1.371,-1.3861,-1.3861,-1.4128,-1.4288,-1.4389,-1.4573,-1.4698,0.0,-1.4971,0.0,0.0,-1.4754,0.0,0.0,0.0,-1.489,0.0,-1.6381,-1.6943,0.0,-1.7375,-1.7483,-1.7634,-1.7687,-1.7858,-1.8032,0.0,-1.782,-1.7341,0.0,-1.703,-1.6562,-1.6344,0.0,0.0,0.0,0.0,0.0,0.0,-1.443,0.0,0.0,0.0,0.0,0.0,0.0,0.0,0.0,0.0,0.0,0.0,0.0,0.0,0.0,0.0,0.0,0.0,0.0,0.0,0.0,-1.635,-1.6488,-1.6405,-1.7008,-1.7913,-1.9041,-1.9554,-2.0507,-2.2039,-2.2009,-2.2174,-2.2739,-2.2739,-2.2739,-2.2739,-2.2739,-2.28,-2.2848,-2.2971,-2.3293,-2.3704,-2.3904,-2.4205,-2.4551,-2.5285,-2.5826,-2.6295,-2.7248,-2.7802,-2.8145,-2.8235,-2.8444,-2.8587,-0.9935,-0.9873,-0.9969,-1.0232,-1.0338,-1.0428,-1.0606,-1.1219,-1.2063,-1.3268,-1.3319,-1.3549,0.0,0.0,0.0,0.0,0.0,-1.4522,0.0,0.0,-1.45,-1.4035,-1.4122,-1.4104,-1.3973,-1.3836,-1.3822,-1.3992,-1.3806,-1.385,0.0,0.0,0.0,0.0,-1.481,0.0,-1.4359,0.0,-1.4792,0.0,0.0,0.0,0.0,-1.7414,-1.756,-1.7398,-1.7401,-1.7479,-1.759,0.0,-1.773,0.0,0.0,0.0,0.0,0.0,0.0,0.0,0.0,0.0,0.0,0.0,0.0,0.0,-1.4816,0.0,-1.4722,0.0,0.0,0.0,0.0,0.0,0.0,0.0,0.0,0.0,0.0,0.0,0.0,0.0,0.0,0.0,0.0,0.0,0.0,0.0,-1.6581,-1.7097,-1.7891,-1.8645,-1.958,-2.0645,-2.1019,-2.1524,-2.2211,-2.2262,-2.2408,-2.28,-2.2909,-2.2969,-2.3017,-2.3017,-2.3155,-2.3367,-2.3428,-2.3566,-2.3779,-2.4718,-2.5224,-2.5521,-2.6706,-2.7456,-2.7736,-2.7723,-2.7789,-2.7921,-1.0305,0.0,0.0,-1.0312,-1.0329,-1.0539,-1.1089,-1.1451,0.0,0.0,0.0,0.0,-1.4997,-1.4829,0.0,0.0,-1.4783,-1.4803,0.0,0.0,-1.4872,0.0,0.0,0.0,-1.4268,-1.3794,-1.369,-1.3863,-1.3466,-1.3466,0.0,0.0,0.0,0.0,0.0,-1.4596,-1.4328,0.0,-1.4767,-1.4725,-1.5067,-1.5485,-1.6115,-1.7289,-1.7512,-1.719,-1.7134,-1.7145,-1.7245,-1.7479,-1.7601,0.0,-1.759,0.0,0.0,0.0,0.0,0.0,-1.588,0.0,0.0,0.0,0.0,0.0,0.0,0.0,0.0,0.0,0.0,0.0,0.0,0.0,0.0,0.0,0.0,0.0,0.0,0.0,0.0,0.0,0.0,0.0,0.0,0.0,0.0,-1.612,-1.6312,-1.6637,-1.7146,-1.789,-1.8656,-1.9356,-2.0112,-2.0783,-2.1499,-2.1812,-2.2137,-2.2396,-2.2896,-2.3005,-2.2811,-2.3005,-2.3078,-2.3078,-2.3078,-2.3078,-2.3165,-2.4356,-2.482,-2.4933,-2.6349,-2.6985,-2.7268,-2.7335,-2.7403,-2.7456,-1.0269,-1.0011,0.0,0.0,0.0,0.0,0.0,0.0,0.0,0.0,0.0,0.0,0.0,0.0,0.0,0.0,0.0,-1.4625,-1.449,0.0,-1.5138,0.0,0.0,-1.4966,0.0,-1.45,-1.4262,-1.4262,-1.4047,-1.3978,0.0,0.0,0.0,0.0,-1.4041,-1.4131,-1.4283,-1.4304,-1.4821,-1.5683,-1.5693,-1.5984,-1.6389,0.0,-1.6976,-1.72,-1.692,0.0,0.0,-1.719,-1.7256,0.0,0.0,0.0,0.0,0.0,0.0,0.0,0.0,0.0,0.0,-1.5905,0.0,0.0,0.0,0.0,-1.5105,0.0,0.0,0.0,0.0,0.0,0.0,0.0,0.0,0.0,0.0,0.0,0.0,0.0,0.0,0.0,0.0,0.0,0.0,-1.5461,-1.6048,-1.6637,-1.7146,-1.7213,-1.7779,-1.8884,-1.9414,-1.9872,-2.0415,-2.1531,-2.1803,-2.1187,-2.2506,-2.275,-2.2163,-2.2811,-2.3078,-2.3078,-2.3078,-2.3078,-2.3165,-2.4356,-2.482,-2.4933,-2.6093,-2.6521,-2.6589,-2.7268,-2.7523,-2.7523,0.0,0.0,0.0,0.0,0.0,0.0,0.0,-1.1776,0.0,0.0,0.0,0.0,0.0,-1.4801,-1.4877,0.0,0.0,-1.5079,-1.4839,-1.5355,0.0,0.0,0.0,-1.5308,0.0,0.0,-1.4159,-1.3848,-1.344,0.0,0.0,0.0,0.0,0.0,0.0,-1.4385,0.0,0.0,0.0,0.0,0.0,-1.597,-1.6431,0.0,0.0,-1.6648,-1.6602,-1.6591,0.0,-1.6864,-1.6931,-1.6987,-1.692,-1.7088,-1.7124,-1.6579,-1.6607,0.0,0.0,0.0,-1.6073,-1.6382,0.0,0.0,0.0,0.0,0.0,0.0,0.0,0.0,0.0,0.0,0.0,0.0,0.0,0.0,0.0,0.0,0.0,0.0,0.0,0.0,0.0,0.0,0.0,-1.5625,-1.6115,-1.6488,-1.6637,-1.6899,-1.7233,-1.7622,-1.7991,-1.8722,-1.9943,-2.0415,-2.0892,-2.1439,-2.2161,-2.2457,-2.2408,-2.258,-2.2896,-2.3271,-2.3138,-2.3078,-2.3165,-2.4356,-2.482,-2.4933,-2.6025,-2.6533,-2.6533,-2.6726,-2.6863,-2.6863,-0.9958,0.0,0.0,0.0,0.0,0.0,0.0,0.0,0.0,0.0,-1.3319,0.0,-1.4984,0.0,-1.5295,0.0,-1.5518,-1.5451,-1.5386,-1.5654,0.0,-1.5491,-1.5639,0.0,0.0,0.0,0.0,0.0,0.0,-1.3414,0.0,0.0,0.0,0.0,0.0,-1.4407,-1.5018,0.0,-1.5628,0.0,0.0,-1.6115,0.0,0.0,-1.6612,-1.6612,0.0,-1.6726,-1.6919,-1.7084,-1.7143,-1.7143,-1.7143,-1.7249,-1.7269,-1.6564,-1.6581,-1.6728,-1.6245,-1.6059,0.0,-1.6524,-1.6343,0.0,-1.6147,0.0,0.0,0.0,0.0,0.0,0.0,0.0,0.0,0.0,0.0,0.0,0.0,0.0,0.0,0.0,0.0,0.0,0.0,0.0,-1.5319,-1.5432,-1.5866,-1.6141,0.0,0.0,-1.6616,-1.6673,-1.6894,-1.7592,-1.8797,-1.9309,-1.9846,-2.0537,-2.1262,-2.1639,-2.1729,-2.1951,-2.2408,-2.303,-2.2969,-2.3017,-2.3165,-2.4356,-2.4793,-2.4903,-2.6063,-2.6533,-2.6533,-2.6533,-2.6533,-2.6533,0.0,0.0,0.0,0.0,-1.0531,0.0,0.0,0.0,-1.2265,0.0,-1.3415,-1.3813,-1.6045,-1.543,-1.5204,-1.6154,-1.5872,-1.5651,-1.5888,-1.5676,0.0,0.0,-1.5856,-1.5904,-1.5904,0.0,0.0,0.0,0.0,0.0,0.0,0.0,0.0,0.0,-1.3621,0.0,-1.4997,-1.4997,-1.5535,-1.6384,-1.6405,-1.6415,-1.6456,-1.6901,-1.7028,-1.7049,-1.7028,-1.7296,-1.7668,-1.7668,-1.7668,-1.7668,-1.7668,-1.7668,-1.7585,-1.7152,-1.6958,-1.6736,-1.6502,-1.6311,-1.6175,-1.628,0.0,0.0,0.0,0.0,-1.5416,0.0,0.0,0.0,0.0,0.0,0.0,0.0,0.0,0.0,0.0,0.0,0.0,0.0,0.0,0.0,0.0,-1.369,-1.4358,-1.4914,-1.5334,0.0,0.0,0.0,-1.5941,-1.6056,-1.6178,-1.6566,-1.7232,-1.8302,-1.8762,-1.8549,-1.989,-2.0409,-2.0096,-2.0933,-2.1714,-2.2347,-2.2555,-2.2787,-2.3092,-2.4292,-2.4738,-2.4814,-2.5965,-2.6452,-2.6533,-2.6533,-2.6533,-2.6533,-1.0422,-1.0726,-1.0924,0.0,-1.0953,-1.1329,0.0,0.0,0.0,0.0,-1.2671,-1.2868,-1.3386,-1.3614,-1.3917,-1.4131,-1.4082,0.0,0.0,0.0,0.0,-1.5223,-1.5179,-1.5518,-1.6327,-1.6002,0.0,-1.5823,0.0,0.0,-1.4453,0.0,0.0,0.0,0.0,0.0,-1.4997,-1.4997,-1.5535,-1.6415,-1.6746,-1.687,0.0,0.0,-1.7761,-1.7999,-1.7678,-1.7575,-1.7668,-1.7668,-1.7668,-1.7668,-1.7668,-1.7668,-1.7709,-1.7595,-1.7308,-1.7092,-1.6981,-1.6767,-1.6503,-1.6467,-1.6327,-1.6118,0.0,0.0,0.0,0.0,0.0,0.0,0.0,0.0,0.0,0.0,0.0,0.0,0.0,0.0,0.0,0.0,0.0,0.0,0.0,-1.3872,-1.4602,-1.4503,-1.53,0.0,0.0,0.0,0.0,-1.5788,-1.5898,-1.6447,-1.7409,-1.7926,-1.8459,-1.8942,-1.9594,-1.9966,-2.0063,-2.015,-2.0602,-2.1215,-2.1815,-2.2013,-2.2023,-2.3333,-2.3833,-2.3839,-2.5114,-2.5955,-2.6533,-2.6533,-2.6533,-2.6533,-1.09,0.0,0.0,-1.1077,0.0,0.0,-1.202,0.0,0.0,-1.2379,-1.2554,0.0,-1.3004,-1.3502,-1.3854,-1.3929,-1.4013,0.0,-1.3993,0.0,0.0,-1.4772,-1.4749,-1.4935,-1.5383,-1.5321,0.0,-1.5266,0.0,0.0,-1.4122,0.0,0.0,0.0,0.0,-1.3472,-1.4138,-1.4687,-1.5536,-1.6415,-1.686,0.0,0.0,-1.7395,-1.7782,-1.8307,-1.7406,-1.7656,-1.8319,-1.8319,-1.8319,-1.8255,-1.7859,-1.7988,-1.8076,-1.7096,-1.6908,-1.6879,-1.6294,-1.6192,-1.6208,-1.6148,-1.6224,-1.6302,-1.6029,-1.5812,-1.5398,0.0,0.0,0.0,0.0,0.0,0.0,0.0,0.0,0.0,0.0,0.0,0.0,0.0,0.0,0.0,0.0,0.0,0.0,0.0,0.0,0.0,0.0,0.0,0.0,-1.5546,-1.5662,-1.6148,-1.7159,-1.7399,-1.791,-1.8607,-1.8808,-1.9065,-1.9431,-1.9375,-1.9704,-2.0386,-2.0921,-2.1279,-2.1562,-2.2605,-2.3155,-2.3429,-2.4389,-2.5075,-2.5429,-2.5429,-2.5873,-2.6533,-1.1622,0.0,0.0,0.0,0.0,0.0,0.0,-1.186,0.0,-1.271,0.0,-1.3018,-1.3613,-1.3921,-1.4221,-1.4363,0.0,-1.4624,-1.4588,-1.4449,-1.4388,-1.4472,-1.4413,-1.4303,-1.4166,-1.4279,-1.4435,0.0,0.0,0.0,0.0,0.0,0.0,0.0,0.0,0.0,0.0,-1.4349,-1.5424,-1.6232,-1.6668,-1.7083,-1.7415,-1.706,-1.7412,-1.7986,-1.6734,-1.7413,-1.8931,-1.8787,-1.8721,-1.8586,-1.7765,-1.8104,-1.8372,-1.6364,-1.6206,-1.6533,-1.5244,-1.5287,-1.5613,-1.5559,-1.5956,-1.63,-1.6056,-1.5827,-1.5204,-1.3395,-1.3631,-1.3545,0.0,0.0,0.0,0.0,0.0,0.0,0.0,0.0,0.0,0.0,0.0,0.0,0.0,0.0,0.0,0.0,0.0,0.0,0.0,0.0,0.0,-1.5362,-1.5469,-1.5898,-1.6665,0.0,-1.7337,-1.8008,-1.8008,-1.8144,-1.8414,-1.8617,-1.8998,-1.9584,-1.99,-2.0523,-2.1296,-2.1981,-2.2566,-2.3169,-2.3672,-2.3963,-2.4036,-2.4108,-2.4992,-2.6164,0.0,0.0,0.0,0.0,0.0,-1.2058,-1.2387,-1.2387,-1.24,-1.2651,-1.2694,-1.281,-1.3057,-1.3143,-1.3128,-1.3178,-1.3258,0.0,0.0,0.0,0.0,-1.4166,-1.3824,-1.3982,-1.4866,-1.4486,-1.4525,0.0,0.0,0.0,0.0,0.0,0.0,0.0,0.0,0.0,-1.339,-1.4506,0.0,-1.5214,-1.5825,-1.6167,-1.6211,-1.6401,-1.6546,-1.6624,-1.6419,-1.7001,-1.7842,-1.707,-1.6784,-1.6784,-1.6585,-1.6784,-1.6964,-1.6555,-1.6546,-1.6546,-1.612,-1.5973,-1.5834,-1.5307,-1.501,-1.4975,-1.5127,-1.4504,-1.3672,-1.3156,-1.2687,-1.2142,-1.1567,0.0,0.0,0.0,0.0,0.0,0.0,0.0,0.0,0.0,0.0,0.0,0.0,0.0,0.0,0.0,0.0,0.0,0.0,0.0,0.0,0.0,-1.5712,0.0,0.0,0.0,-1.7586,-1.8008,-1.8008,-1.8008,-1.8076,-1.8144,-1.8212,-1.8357,-1.9427,-1.9837,-1.9778,-2.0906,-2.1618,-2.2038,-2.2478,-2.2999,-2.3672,-2.3963,-2.4264,-2.4552,0.0,0.0,0.0,0.0,0.0,0.0,0.0,-1.2487,0.0,-1.2868,-1.2868,-1.2848,-1.2791,-1.2947,-1.3046,-1.29,-1.2973,-1.3046,-1.3046,-1.3127,-1.3411,-1.3775,-1.3554,0.0,-1.397,-1.3737,-1.3717,-1.3933,0.0,0.0,0.0,0.0,0.0,0.0,0.0,-1.2408,0.0,0.0,0.0,-1.5106,-1.5646,-1.6057,-1.6246,-1.5896,-1.6026,-1.6367,-1.533,-1.5675,-1.6515,-1.6376,-1.6306,-1.6228,-1.5745,-1.6088,-1.6428,-1.5455,-1.5392,-1.5613,-1.5046,-1.4824,-1.4712,-1.4473,-1.4479,-1.4514,-1.4428,-1.4009,-1.3367,-1.2572,-1.2248,-1.1905,-1.1115,-1.1524,0.0,0.0,0.0,0.0,0.0,0.0,0.0,0.0,0.0,0.0,0.0,0.0,0.0,0.0,0.0,0.0,0.0,0.0,0.0,0.0,0.0,0.0,0.0,0.0,0.0,-1.8008,-1.8008,-1.8008,-1.8008,-1.8008,-1.8008,-1.8027,-1.8854,-1.9324,-1.9518,-2.0606,-2.1106,-2.1155,-2.1375,-2.1669,-2.2048,-2.2435,-2.2596,-2.2734,0.0,-1.1631,0.0,0.0,-1.1654,0.0,-1.1824,-1.2383,-1.2886,-1.2935,-1.304,-1.304,-1.2899,-1.3122,-1.32,-1.3046,-1.3193,-1.3273,-1.3273,-1.3419,-1.3492,-1.3492,-1.3492,-1.3375,-1.3119,-1.304,-1.3033,0.0,0.0,0.0,0.0,0.0,0.0,0.0,0.0,0.0,0.0,0.0,-1.3991,-1.4889,-1.5257,-1.5687,-1.5948,-1.5117,-1.533,-1.5728,-1.4281,-1.4281,-1.5108,-1.5534,-1.5745,-1.5604,-1.4903,-1.5251,-1.5658,-1.4209,-1.4209,-1.441,-1.3637,-1.3477,-1.3608,-1.3535,-1.3803,-1.3999,-1.3808,-1.3529,-1.3013,-1.2019,-1.1853,-1.1586,-1.067,-1.1129,0.0,0.0,0.0,0.0,0.0,0.0,0.0,0.0,0.0,0.0,0.0,0.0,0.0,0.0,0.0,-1.4482,-1.4582,-1.5177,-1.5635,0.0,0.0,-1.6782,-1.7466,0.0,-1.7866,-1.8095,-1.8095,-1.8018,-1.8008,-1.8008,-1.8057,-1.8164,-1.8594,-1.9144,-1.9757,-2.036,-2.0557,-2.0411,-2.0411,-2.0411,-2.0489,-2.0886,-2.1041,-2.1272,0.0,0.0,0.0,0.0,0.0,0.0,-1.1786,-1.2331,-1.2743,-1.2893,-1.3222,-1.3448,-1.3448,-1.3477,-1.3492,-1.3419,-1.3492,-1.3492,-1.3492,-1.3492,-1.3492,-1.3492,-1.3492,-1.3477,-1.3448,-1.3302,-1.3272,0.0,0.0,0.0,0.0,0.0,0.0,0.0,0.0,0.0,0.0,-1.3241,-1.3527,-1.3685,-1.3939,-1.4042,-1.4,-1.3783,-1.3702,-1.3775,-1.3564,-1.3564,-1.3702,-1.3783,-1.3855,-1.4008,-1.3935,-1.3855,-1.3775,-1.379,-1.3717,-1.3564,-1.3273,-1.3266,-1.3193,-1.3046,-1.2592,-1.2432,-1.3077,-1.2251,-1.1432,-1.1813,-1.1121,-1.0442,-1.0413,-1.0482,-1.0647,0.0,0.0,0.0,0.0,0.0,0.0,0.0,0.0,0.0,0.0,0.0,0.0,0.0,0.0,-1.4305,-1.47,-1.541,-1.5818,-1.5732,0.0,-1.7076,-1.703,-1.7955,-1.8395,-1.8281,-1.8281,-1.8193,-1.8008,-1.8008,-1.8213,-1.8603,-1.9043,-1.9623,-2.0236,-1.9844,-1.9715,-1.9715,-1.9863,-1.9942,-2.002,-2.0489,-2.0644,-2.0722,0.0,0.0,0.0,0.0,0.0,0.0,0.0,-1.2132,-1.2583,-1.2621,-1.3223,-1.3682,-1.3682,-1.3918,-1.4077,-1.4077,-1.4077,-1.3996,-1.3799,-1.3784,-1.3697,-1.3506,-1.3346,-1.3346,-1.3346,-1.3119,-1.3042,0.0,0.0,0.0,0.0,0.0,0.0,0.0,0.0,-1.2846,-1.3041,-1.3375,-1.3591,-1.3717,-1.379,-1.3797,-1.379,-1.3717,-1.3645,-1.3645,-1.3645,-1.3783,-1.3848,-1.371,-1.3645,-1.3645,-1.3645,-1.3645,-1.3717,-1.3797,-1.3645,-1.3499,-1.3419,-1.3119,-1.2826,-1.2746,-1.2378,-1.2077,-1.2231,-1.1781,-1.1304,-1.142,-1.0965,-1.0532,-1.0563,-1.0947,-1.1115,0.0,0.0,0.0,0.0,0.0,0.0,0.0,0.0,0.0,0.0,0.0,0.0,0.0,0.0,0.0,-1.4519,-1.5257,-1.5877,-1.6445,0.0,-1.7735,-1.7885,-1.8302,-1.8492,-1.8444,-1.8339,-1.8261,-1.8144,-1.834,-1.8757,-1.9414,-1.959,-1.9934,-2.0264,-2.0108,-1.9951,-1.9794,-1.9715,-1.9715,-1.9794,-2.0098,-2.0177,-2.0255,-1.186,0.0,-1.1948,0.0,-1.1902,-1.1955,-1.1648,-1.2111,-1.2438,-1.2438,-1.3152,-1.37,-1.3759,-1.4066,-1.4387,-1.4465,-1.4472,-1.437,-1.4143,-1.4033,-1.3879,-1.3653,-1.3396,0.0,-1.3273,-1.3119,-1.294,-1.2856,-1.268,0.0,0.0,0.0,0.0,0.0,-1.2961,-1.3125,-1.3383,-1.3469,-1.3572,-1.3717,-1.3717,-1.3717,-1.3717,-1.3717,-1.3717,-1.3717,-1.3717,-1.3783,-1.392,-1.379,-1.3645,-1.3499,-1.3572,-1.3572,-1.3645,-1.3717,-1.3499,-1.3346,-1.3346,-1.3046,-1.2673,-1.2673,-1.2452,-1.215,-1.2003,-1.1781,-1.1484,-1.126,-1.096,-1.0834,-1.0834,-1.1166,-1.1316,-1.0715,0.0,0.0,0.0,0.0,0.0,0.0,-1.0611,-1.093,-1.0168,0.0,0.0,0.0,0.0,0.0,-1.4463,-1.5102,0.0,0.0,0.0,0.0,0.0,-1.8479,-1.8617,-1.8617,-1.8502,-1.8427,-1.8478,-1.8848,-1.9341,-1.9922,-2.0049,-2.0206,-2.0411,-2.0342,-2.0108,-1.9863,-1.9715,-1.9557,-1.9557,-1.9706,-1.9706,-1.9784,-1.2132,-1.2283,-1.2387,-1.1994,-1.1914,-1.1914,-1.192,-1.2143,-1.2306,-1.2306,-1.2962,-1.3502,-1.3801,-1.3817,-1.3981,-1.4465,-1.4472,-1.4472,-1.4465,-1.4157,-1.3982,0.0,0.0,-1.3492,-1.3492,-1.3273,-1.32,-1.3193,0.0,0.0,-1.2692,0.0,-1.2816,-1.2994,-1.3219,-1.3405,-1.3492,-1.3492,-1.3492,-1.3492,-1.3492,-1.3492,-1.3492,-1.3492,-1.3492,-1.3492,-1.3492,-1.3499,-1.3499,-1.3492,-1.3492,-1.3499,-1.3717,-1.3499,-1.3273,-1.3419,-1.3193,-1.29,-1.29,-1.29,-1.29,-1.29,-1.2746,-1.2599,-1.2599,-1.2305,-1.1855,-1.1484,-1.126,-1.1105,-1.1105,-1.0894,-1.0857,-1.1423,0.0,0.0,0.0,0.0,0.0,0.0,-1.1739,-1.2064,-1.052,0.0,0.0,0.0,0.0,0.0,0.0,0.0,0.0,-1.6961,-1.76,0.0,-1.794,-1.8517,-1.8808,-1.8808,-1.8813,-1.8846,-1.8934,-1.9585,-1.9902,-1.9941,-2.0371,-2.0557,-2.0566,-2.0342,-2.0108,-1.9863,-1.9715,-1.9478,-1.9301,-1.9301,-1.9301,-1.9381,-1.1952,-1.2025,-1.208,-1.192,-1.2071,-1.2192,-1.2192,-1.2409,-1.2578,-1.2578,-1.2735,-1.3068,-1.3476,-1.4028,-1.4611,0.0,-1.5123,-1.5028,0.0,-1.4692,-1.4443,-1.4004,-1.3804,-1.3496,-1.3127,-1.29,-1.2746,-1.2599,0.0,0.0,0.0,-1.2473,-1.2664,-1.2898,-1.297,-1.31,-1.3273,-1.3273,-1.3346,-1.3492,-1.3492,-1.3492,-1.3492,-1.3492,-1.3492,-1.3492,-1.3492,-1.3492,-1.3492,-1.3492,-1.3492,-1.3499,-1.3572,-1.3499,-1.3419,-1.3499,-1.3419,-1.3346,-1.3346,-1.3346,-1.3346,-1.3346,-1.3193,-1.2973,-1.2826,-1.2378,-1.1929,-1.1855,-1.1558,-1.1335,-1.1335,-1.1119,-1.1058,-1.1206,-1.084,0.0,0.0,0.0,0.0,0.0,-1.0876,-1.1005,0.0,-1.1141,0.0,0.0,0.0,0.0,0.0,0.0,0.0,0.0,-1.7445,0.0,-1.7773,-1.8335,-1.8836,-1.9267,-1.8972,-1.9213,-1.9796,-1.986,-2.0164,-2.0621,-2.0585,-2.0654,-2.0819,-2.0751,-2.0664,-2.0586,-2.0196,-1.9951,-1.9706,-1.9381,-1.9301,-1.9301,-1.199,-1.2149,-1.2216,-1.2216,-1.2355,-1.2457,-1.2457,-1.2602,-1.2705,-1.2705,-1.2705,-1.2875,-1.3307,-1.3899,0.0,-1.5082,-1.5257,-1.5343,-1.5138,-1.4932,-1.4765,-1.4362,-1.3993,-1.3618,-1.323,-1.2919,0.0,-1.2378,-1.2263,-1.2247,-1.2391,-1.2462,-1.2566,-1.2826,-1.29,-1.2973,-1.3119,-1.3119,-1.32,-1.3419,-1.3419,-1.3419,-1.3492,-1.3492,-1.3492,-1.3492,-1.3492,-1.3492,-1.3492,-1.3492,-1.3492,-1.3492,-1.3492,-1.3492,-1.3492,-1.3492,-1.3492,-1.3492,-1.3492,-1.3492,-1.3492,-1.3492,-1.3419,-1.3273,-1.3046,-1.2673,-1.2305,-1.215,-1.1855,-1.1558,-1.1409,-1.1335,-1.1186,-1.1111,-1.0972,-1.0864,-1.0864,0.0,0.0,0.0,0.0,0.0,0.0,-1.1032,-1.1281,0.0,0.0,0.0,0.0,0.0,0.0,-1.5592,-1.6381,0.0,-1.6844,-1.7634,-1.835,-1.8984,-1.9312,-1.9833,-2.0436,-2.0391,-2.0629,-2.0984,-2.0886,-2.0886,-2.0984,-2.0984,-2.0974,-2.0896,-2.0576,-2.0177,-1.9863,-1.9548,-1.9381,-1.9301,-1.2005,-1.2451,0.0,0.0,-1.2619,0.0,-1.2705,-1.2705,-1.2705,-1.2705,-1.2705,-1.2875,-1.3307,-1.3398,-1.373,-1.4566,0.0,0.0,0.0,-1.5063,-1.4881,-1.486,-1.441,-1.4023,-1.3715,-1.3293,-1.2893,-1.2599,-1.2378,-1.2305,-1.2305,-1.2526,-1.2599,-1.2599,-1.2746,-1.29,-1.29,-1.29,-1.2973,-1.32,-1.32,-1.3273,-1.3492,-1.3492,-1.3492,-1.3492,-1.3492,-1.3492,-1.3492,-1.3492,-1.3492,-1.3492,-1.3492,-1.3492,-1.3492,-1.3492,-1.3492,-1.3492,-1.3492,-1.3492,-1.3499,-1.3521,-1.355,-1.3484,-1.3338,-1.3096,-1.2854,-1.2486,-1.217,-1.1929,-1.1558,-1.1409,-1.1335,-1.1186,-1.1111,-1.1111,-1.1111,0.0,0.0,0.0,0.0,0.0,0.0,-1.139,-1.142,0.0,0.0,0.0,0.0,0.0,-1.3454,-1.4474,-1.4585,-1.4807,-1.5305,-1.6473,-1.7423,-1.8062,-1.9708,-2.0581,-2.0815,-2.1014,-2.1205,-2.1205,-2.1215,-2.1205,-2.1205,-2.1205,-2.1118,-2.0944,-2.0712,-2.0333,-1.9942,-1.9715,-1.9469,-1.9301,0.0,0.0,-1.2443,-1.1757,-1.2186,-1.2705,-1.2705,-1.2705,-1.2705,-1.2705,-1.2705,-1.2705,-1.2875,-1.3222,-1.3476,-1.373,-1.4405,-1.4908,-1.4908,-1.5101,-1.5204,-1.4874,-1.4787,-1.4518,-1.4122,-1.3564,-1.2982,-1.2378,-1.2298,-1.2305,-1.2305,-1.2378,-1.2378,-1.2378,-1.2452,-1.2526,-1.2673,-1.2673,-1.2826,-1.2973,-1.2973,-1.2973,-1.3046,-1.3046,-1.3046,-1.3046,-1.3046,-1.3046,-1.3046,-1.3046,-1.3046,-1.3046,-1.3046,-1.3046,-1.3119,-1.3419,-1.3492,-1.3492,-1.3492,-1.3492,-1.3558,-1.3806,-1.4055,-1.4238,-1.4238,-1.3813,-1.3483,-1.3407,-1.2763,-1.2224,-1.2077,-1.1855,-1.1558,-1.1335,-1.1335,-1.126,-1.1111,-1.1111,0.0,0.0,-1.131,-1.131,-1.1163,-1.131,-1.1489,0.0,0.0,0.0,0.0,-1.1879,-1.2514,-1.373,-1.4182,-1.4525,-1.4673,-1.5466,-1.6472,-1.7854,-1.9534,-2.0497,-2.0871,-2.075,-2.0964,-2.1436,-2.1282,-2.1282,-2.1436,-2.1436,-2.1425,-2.1349,-2.0944,-2.0634,-2.0411,-1.9942,-1.9715,-1.9557,-0.9923,-1.0702,-1.1225,-1.0707,-1.1408,-1.21,-1.21,-1.21,-1.21,-1.21,-1.21,-1.21,-1.21,-1.2705,-1.3052,-1.3052,-1.3899,-1.4405,-1.4398,-1.465,-1.4754,-1.4578,-1.4413,-1.4192,-1.3808,-1.3557,-1.3256,-1.2655,-1.2655,-1.2513,-1.2305,-1.2305,-1.2305,-1.2305,-1.2305,-1.2378,-1.2452,-1.2452,-1.2599,-1.2753,-1.2753,-1.2826,-1.29,-1.29,-1.29,-1.29,-1.29,-1.29,-1.29,-1.29,-1.29,-1.29,-1.29,-1.29,-1.2973,-1.3193,-1.3273,-1.3455,-1.3675,-1.3718,-1.3799,-1.4121,-1.434,-1.4472,-1.4472,-1.4248,-1.4048,-1.3971,-1.3522,-1.3092,-1.2782,-1.2441,-1.213,-1.1834,-1.1571,-1.1335,-1.126,-1.1186,0.0,-1.1111,-1.1186,-1.1186,-1.1111,-1.1186,-1.139,-1.1595,-1.1465,0.0,-1.1775,-1.18,-1.1967,-1.258,-1.2995,-1.3376,-1.353,-1.4606,-1.5874,-1.7417,-1.884,-1.9816,-2.0285,-2.0712,-2.1118,-2.1655,-2.1512,-2.1512,-2.1655,-2.1655,-2.1655,-2.1578,-2.1272,-2.1031,-2.0712,-2.0333,-2.002,-1.9715,-0.9314,-0.9749,-0.9836,-0.9749,-1.0453,-1.1063,-1.1063,-1.1063,-1.1063,-1.1063,-1.1063,-1.1063,-1.1063,-1.1923,-1.2534,-1.2534,-1.3313,-1.3906,-1.3977,-1.4062,-1.4062,-1.4139,-1.3899,-1.362,-1.3461,-1.3503,-1.3373,-1.3049,-1.3042,-1.2837,-1.2364,-1.2438,-1.2438,-1.2364,-1.2317,-1.2297,-1.2297,-1.2251,-1.2378,-1.2526,-1.2526,-1.2673,-1.2753,-1.2753,-1.2746,-1.2746,-1.2746,-1.2753,-1.2753,-1.2753,-1.2753,-1.2753,-1.2753,-1.2781,-1.2822,-1.2896,-1.3005,-1.3319,-1.3766,-1.3972,-1.4194,-1.4472,-1.4575,-1.4611,-1.4611,-1.4575,-1.4538,-1.4374,-1.4259,-1.4066,-1.3502,-1.3135,-1.2819,-1.2447,-1.1999,-1.1684,-1.1608,0.0,-1.1313,-1.1313,-1.1313,-1.1313,-1.1313,-1.1313,-1.1411,-1.1576,-1.1594,-1.1685,-1.1908,-1.1962,-1.1878,-1.1655,-1.1866,-1.216,-1.2525,-1.4019,-1.5397,-1.6643,-1.7705,-1.8506,-1.914,-2.0226,-2.0944,-2.1318,-2.1568,-2.1655,-2.1645,-2.1731,-2.1807,-2.1807,-2.1578,-2.1262,-2.0944,-2.0722,-2.0333,-2.002,-0.7665,-0.8794,-0.9662,-0.889,-0.9492,-1.0096,-1.0096,-1.0096,-1.0096,-1.0096,-1.0096,-1.0096,-1.0096,-1.0971,-1.1499,-1.1499,-1.2357,-1.3052,-1.3476,-1.3906,-1.4075,-1.4139,-1.4055,-1.4035,-1.3995,-1.3596,-1.3069,-1.2574,-1.2956,-1.3021,-1.2831,-1.3131,-1.3131,-1.2824,-1.2582,-1.2317,-1.2145,-1.2039,-1.2077,-1.2077,-1.2305,-1.2224,-1.215,-1.215,-1.2003,-1.1929,-1.2077,-1.215,-1.215,-1.215,-1.215,-1.2077,-1.1929,-1.2185,-1.2623,-1.2761,-1.302,-1.3253,-1.3341,-1.3974,-1.4561,-1.4772,-1.5072,-1.5284,-1.5284,-1.5065,-1.4867,-1.4787,-1.4489,-1.4152,-1.4066,-1.3867,-1.3597,-1.312,-1.2994,-1.2811,-1.2431,0.0,-1.2359,-1.2359,-1.2359,-1.2359,-1.2359,-1.2201,-1.2141,-1.2184,-1.1945,-1.1878,-1.192,-1.2131,-1.2234,-1.2192,-1.2234,-1.2361,-1.2662,-1.3858,-1.4559,-1.4851,-1.5921,-1.6651,-1.7131,-1.8204,-1.8762,-1.8903,-2.0547,-2.1031,-2.0779,-2.1492,-2.1807,-2.1807,-2.1578,-2.1425,-2.1349,-2.0974,-2.0741,-2.0489,-0.7228,-0.7837,-0.8273,-0.7841,-0.8536,-0.9148,-0.9148,-0.9148,-0.9148,-0.9148,-0.9579,-0.9923,-0.9923,-1.1225,-1.2015,-1.2015,-1.2443,-1.279,-1.3045,-1.3222,-1.3392,-1.3379,-1.3379,-1.347,-1.3724,-1.3523,-1.3233,-1.2949,-1.3185,-1.3026,-1.2724,-1.2876,-1.2876,-1.2638,-1.2595,-1.2452,-1.2283,-1.2299,-1.2241,-1.2248,-1.2402,-1.2318,-1.2241,-1.2241,-1.2241,-1.2164,-1.2241,-1.2241,-1.2241,-1.2241,-1.2241,-1.2248,-1.2171,-1.226,-1.2531,-1.2603,-1.32,-1.3728,-1.3505,-1.3945,-1.4531,-1.4778,-1.4885,-1.5082,-1.5347,-1.5313,-1.5204,-1.5204,-1.5005,-1.4822,-1.4734,-1.4429,-1.4149,-1.3822,-1.3446,0.0,0.0,-1.2724,-1.2571,-1.2571,-1.2571,-1.2571,-1.2571,-1.2412,-1.2394,-1.2538,-1.23,-1.2198,-1.2337,-1.2457,-1.2524,-1.2524,-1.2524,-1.2578,-1.2705,-1.3203,-1.3451,-1.3535,-1.4608,-1.5343,-1.5741,-1.6895,-1.7535,-1.784,-1.8735,-1.9149,-1.9395,-2.0187,-2.076,-2.1175,-2.1492,-2.1589,-2.1425,-2.1205,-2.0896,-2.0731,-0.6966,-0.6962,-0.6962,-0.7051,-0.7665,-0.8193,-0.8193,-0.8193,-0.8193,-0.8193,-0.8794,-0.9226,-0.9226,-1.0961,-1.2095,-1.2095,-1.2443,-1.2705,-1.2705,-1.2705,-1.2705,-1.2705,-1.2705,-1.2875,-1.3222,-1.3222,-1.3206,-1.3163,-1.3246,-1.3048,-1.2675,-1.2756,-1.2756,-1.2668,-1.2605,-1.25,-1.2413,-1.2431,-1.2399,-1.2399,-1.2485,-1.2479,-1.2399,-1.2399,-1.2399,-1.2399,-1.2399,-1.2399,-1.2399,-1.2399,-1.2399,-1.2399,-1.2154,-1.2277,-1.2493,-1.2327,-1.3089,-1.3981,-1.3741,-1.3901,-1.4314,-1.4482,-1.4573,-1.4657,-1.4999,-1.5082,-1.5082,-1.5257,-1.5173,-1.509,-1.5173,-1.4799,-1.4472,-1.4302,0.0,0.0,0.0,-1.2998,-1.2843,-1.2843,-1.2924,-1.293,-1.2843,-1.2681,-1.2606,-1.2812,-1.2575,-1.2493,-1.2693,-1.279,-1.279,-1.279,-1.2705,-1.2705,-1.2705,-1.2705,-1.2705,-1.2705,-1.362,-1.4196,-1.4518,-1.5584,-1.6226,-1.6464,-1.6944,-1.7357,-1.7857,-1.8735,-1.9386,-1.9885,-2.076,-2.0924,-2.0779,-2.0712,-2.0566,-2.0342,-0.6704,-0.6612,-0.6605,-0.7051,-0.7139,-0.7228,-0.7228,-0.7228,-0.7228,-0.7228,-0.7228,-0.7316,-0.7316,-0.8965,-1.0096,-1.0096,-1.166,-1.2705,-1.2705,-1.2705,-1.2705,-1.2705,-1.2705,-1.2705,-1.279,-1.279,-1.2778,-1.276,-1.319,-1.3269,-1.3081,-1.3419,-1.3419,-1.3068,-1.2819,-1.2535,-1.2346,-1.2271,-1.224,-1.224,-1.2399,-1.2399,-1.224,-1.224,-1.208,-1.2,-1.216,-1.224,-1.224,-1.224,-1.224,-1.208,-1.1008,-1.1584,-1.2535,-1.1598,-1.2374,-1.3529,-1.362,-1.3717,-1.3815,-1.4062,-1.4153,-1.4166,-1.423,-1.4223,-1.4314,-1.465,-1.4482,-1.4398,-1.5257,-1.4894,-1.4364,-1.4112,0.0,0.0,-1.3165,-1.3419,-1.3587,-1.3587,-1.3853,-1.3847,-1.3672,-1.3419,-1.3256,-1.3105,-1.2845,-1.2687,-1.2705,-1.2966,-1.3052,-1.3052,-1.279,-1.2705,-1.2705,-1.2705,-1.2705,-1.2705,-1.2784,-1.2869,-1.2869,-1.4028,-1.4371,-1.4055,-1.5838,-1.6487,-1.6242,-1.7284,-1.776,-1.7848,-1.8585,-1.8841,-1.8841,-1.9107,-1.9036,-1.8727,-0.6523,-0.6697,-0.6874,-0.6881,-0.7146,-0.7323,-0.7139,-0.7139,-0.7139,-0.7139,-0.7577,-0.7929,-0.7929,-0.9144,-0.9923,-0.9923,-1.0529,-1.0961,-1.0961,-1.0961,-1.1483,-1.2619,-1.2705,-1.2705,-1.2705,-1.2705,-1.2705,-1.2705,-1.2875,-1.2966,-1.2875,-1.3045,-1.296,-1.2875,-1.2771,-1.2644,-1.2548,-1.2535,-1.2153,-1.1651,-1.1729,-1.1388,-1.0789,-1.0789,-1.0705,-1.071,-1.1388,-1.1645,-1.1645,-1.1645,-1.1645,-1.1478,-1.0447,-1.0508,-1.1006,-1.1267,-1.2105,-1.296,-1.3045,-1.3222,-1.3392,-1.3646,-1.3652,-1.373,-1.4055,-1.4139,-1.4146,-1.4328,-1.4237,-1.423,-1.4503,-1.458,-1.4398,-1.3893,0.0,-1.3899,-1.3392,-1.3307,-1.3392,-1.3652,-1.3822,-1.3913,-1.3913,-1.3737,-1.3483,-1.3307,-1.3052,-1.2881,-1.2705,-1.279,-1.2875,-1.2875,-1.279,-1.2705,-1.2705,-1.2705,-1.2705,-1.2705,-1.2705,-1.2705,-1.2705,-1.3118,-1.3294,-1.313,-1.386,-1.4364,-1.4622,-1.5584,-1.6226,-1.6724,-1.7438,-1.7848,-1.8017,-1.7954,-1.8132,-1.839,-0.6254,-0.652,-0.6697,-0.6704,-0.6969,-0.7058,-0.6874,-0.6874,-0.6874,-0.6874,-0.7577,-0.8017,-0.7929,-0.8973,-0.9579,-0.9492,-0.9749,-0.9923,-0.9923,-0.9923,-1.0621,-1.2186,-1.2009,-1.1923,-1.2272,-1.2009,-1.2009,-1.2272,-1.2272,-1.2272,-1.2272,-1.2534,-1.2528,-1.2272,-1.2272,-1.2272,-1.218,-1.1918,-1.1397,-1.0621,-1.0799,-1.0448,-0.9836,-0.9836,-0.9923,-1.0009,-1.0621,-1.0885,-1.0885,-1.0885,-1.0885,-1.0712,-0.9753,-0.9492,-0.9666,-1.0539,-1.1316,-1.1832,-1.1832,-1.1923,-1.2266,-1.296,-1.3222,-1.3222,-1.3548,-1.3633,-1.3724,-1.3822,-1.373,-1.3724,-1.4082,-1.4159,-1.4062,-1.3561,-1.3639,-1.3555,-1.3058,-1.2966,-1.3052,-1.3307,-1.3307,-1.3483,-1.3743,-1.3652,-1.3476,-1.3398,-1.3307,-1.3137,-1.296,-1.279,-1.2705,-1.279,-1.2705,-1.2705,-1.2705,-1.2705,-1.2705,-1.2705,-1.2705,-1.2705,-1.2705,-1.2705,-1.2705,-1.2705,-1.2705,-1.296,-1.3476,-1.4119,-1.4685,-1.5184,-1.5988,-1.639,-1.648,-1.6495,-1.6748,-1.7082,-0.5994,-0.5902,-0.5808,-0.634,-0.6428,-0.6428,-0.6428,-0.6428,-0.6428,-0.6428,-0.6786,-0.7054,-0.6792,-0.8017,-0.8803,-0.8544,-0.9318,-0.9923,-0.9923,-0.9923,-1.0274,-1.1235,-1.0361,-1.0361,-1.1241,-1.0361,-1.0361,-1.1322,-1.1322,-1.1322,-1.1327,-1.2272,-1.2186,-1.1322,-1.1322,-1.1144,-1.0961,-1.0183,-0.9653,-0.9213,-0.9657,-0.9749,-0.9579,-0.9836,-0.9836,-0.9836,-0.9923,-0.9923,-0.9923,-0.9923,-0.9923,-0.9749,-0.8803,-0.8456,-0.8715,-0.9575,-0.9923,-0.9923,-0.9923,-0.9923,-1.0356,-1.218,-1.2705,-1.2705,-1.2705,-1.2705,-1.279,-1.3307,-1.3052,-1.296,-1.3913,-1.3574,-1.3052,-1.3045,-1.3052,-1.2802,-1.2123,-1.2375,-1.2619,-1.2448,-1.2619,-1.279,-1.3052,-1.3137,-1.3137,-1.3398,-1.3398,-1.3398,-1.3398,-1.2966,-1.279,-1.3052,-1.2875,-1.2705,-1.2705,-1.2705,-1.2705,-1.2705,-1.2705,-1.2705,-1.2705,-1.2705,-1.2705,-1.2705,-1.2705,-1.2705,-1.2705,-1.2966,-1.3137,-1.3137,-1.3808,-1.4055,-1.4139,-1.4566,-1.4566,-1.4398,-0.5819,-0.5991,-0.6166,-0.6169,-0.6435,-0.6612,-0.6432,-0.6428,-0.6428,-0.6428,-0.6517,-0.6609,-0.652,-0.7224,-0.7577,-0.7492,-0.8105,-0.846,-0.8197,-0.8197,-0.8544,-0.9327,-0.9666,-1.0009,-1.0274,-1.0009,-1.0009,-1.0361,-1.0361,-1.0361,-1.0361,-1.0616,-1.0616,-1.0361,-1.0361,-1.0269,-1.0183,-0.9836,-0.9226,-0.8524,-0.8615,-0.8273,-0.7665,-0.7837,-0.7921,-0.8009,-0.8711,-0.8886,-0.8886,-0.8886,-0.8886,-0.8711,-0.7841,-0.7929,-0.854,-0.8798,-0.9405,-0.9923,-0.9923,-0.9923,-1.0009,-1.0616,-1.0702,-1.088,-1.158,-1.1757,-1.1929,-1.2705,-1.279,-1.279,-1.3052,-1.3222,-1.3137,-1.2619,-1.279,-1.2875,-1.2369,-1.2203,-1.2289,-1.2619,-1.2534,-1.2619,-1.279,-1.279,-1.2875,-1.3143,-1.3313,-1.3398,-1.3398,-1.3307,-1.3222,-1.3307,-1.3222,-1.3222,-1.3222,-1.2875,-1.2705,-1.2705,-1.2705,-1.2705,-1.2705,-1.2705,-1.2705,-1.2705,-1.2705,-1.2705,-1.2705,-1.279,-1.279,-1.2875,-1.3039,-1.3215,-1.3392,-1.3561,-1.3808,-1.4223,-0.5733,-0.5905,-0.608,-0.5997,-0.6174,-0.6352,-0.6169,-0.608,-0.608,-0.608,-0.6254,-0.6343,-0.6257,-0.67,-0.6966,-0.6874,-0.7139,-0.7408,-0.768,-0.7503,-0.7584,-0.8201,-0.8803,-0.9235,-0.9492,-0.9148,-0.9148,-0.9492,-0.9405,-0.9318,-0.9318,-0.9749,-0.9662,-0.9318,-0.9318,-0.9318,-0.9226,-0.8794,-0.8181,-0.7482,-0.7658,-0.7401,-0.6792,-0.7054,-0.7139,-0.7139,-0.7753,-0.7929,-0.7929,-0.7929,-0.7929,-0.7841,-0.7316,-0.7492,-0.7929,-0.7929,-0.836,-0.8794,-0.8794,-0.8794,-0.8794,-0.8794,-0.9314,-1.0009,-1.0626,-1.0712,-1.0885,-1.1488,-1.1923,-1.2186,-1.2186,-1.2705,-1.2966,-1.2619,-1.2705,-1.279,-1.2448,-1.2283,-1.2203,-1.2283,-1.2198,-1.2198,-1.2363,-1.2443,-1.2534,-1.2881,-1.2966,-1.3052,-1.3307,-1.3222,-1.3222,-1.3392,-1.3398,-1.3398,-1.3398,-1.3137,-1.296,-1.2875,-1.279,-1.2705,-1.2705,-1.2705,-1.2705,-1.2705,-1.2705,-1.2705,-1.2705,-1.2705,-1.2705,-1.2705,-1.2705,-1.279,-1.2966,-1.2966,-1.3215,-1.3548,-0.5733,-0.5733,-0.5733,-0.5733,-0.5733,-0.5733,-0.5733,-0.5733,-0.5733,-0.5733,-0.608,-0.6254,-0.6083,-0.6526,-0.6704,-0.6432,-0.652,-0.6962,-0.7852,-0.7496,-0.7408,-0.7852,-0.794,-0.8201,-0.8803,-0.7937,-0.794,-0.8807,-0.8544,-0.8456,-0.8368,-0.9231,-0.9231,-0.8368,-0.8368,-0.8277,-0.8093,-0.7401,-0.6786,-0.6428,-0.6874,-0.6969,-0.6792,-0.7054,-0.7139,-0.7139,-0.7139,-0.7139,-0.7139,-0.7139,-0.7139,-0.7139,-0.7139,-0.7139,-0.7139,-0.7139,-0.7139,-0.7139,-0.7139,-0.7139,-0.7139,-0.7139,-0.836,-0.9662,-0.9749,-0.9749,-0.9836,-0.9923,-1.0621,-1.1149,-1.1149,-1.1923,-1.2534,-1.2534,-1.2619,-1.2619,-1.2448,-1.2448,-1.2198,-1.178,-1.1699,-1.178,-1.202,-1.2015,-1.2186,-1.2619,-1.2534,-1.2619,-1.3052,-1.279,-1.2875,-1.3307,-1.3398,-1.3398,-1.3398,-1.3392,-1.3313,-1.3137,-1.2875,-1.2705,-1.2705,-1.2705,-1.2705,-1.2705,-1.2705,-1.2705,-1.2705,-1.2705,-1.2705,-1.2705,-1.2705,-1.2705,-1.2705,-1.2705,-1.2705,-1.2705,-0.5733,-0.5733,-0.5733,-0.5733,-0.5733,-0.5733,-0.5733,-0.5733,-0.5733,-0.5733,-0.5819,-0.5819,-0.5822,-0.6169,-0.6432,-0.6428,-0.7051,-0.7672,-0.8113,-0.8025,-0.7937,-0.7944,-0.8028,-0.8201,-0.8372,-0.8028,-0.7768,-0.7764,-0.794,-0.7848,-0.7404,-0.7848,-0.776,-0.7401,-0.7401,-0.7401,-0.7312,-0.6966,-0.6792,-0.6704,-0.6792,-0.6884,-0.6792,-0.7054,-0.7139,-0.7139,-0.7139,-0.7139,-0.7139,-0.7139,-0.7139,-0.7139,-0.7139,-0.7139,-0.7139,-0.7139,-0.7139,-0.7139,-0.7139,-0.7139,-0.7139,-0.7139,-0.7401,-0.7925,-0.8627,-0.8803,-0.8973,-0.9749,-1.0096,-1.0183,-1.0183,-1.0971,-1.158,-1.158,-1.2186,-1.2705,-1.2619,-1.2534,-1.2363,-1.2283,-1.2037,-1.1957,-1.2037,-1.2198,-1.2363,-1.2448,-1.2534,-1.2705,-1.279,-1.2705,-1.279,-1.2875,-1.3222,-1.3398,-1.3398,-1.3568,-1.3476,-1.3137,-1.3052,-1.2881,-1.2705,-1.2705,-1.2705,-1.2705,-1.2705,-1.2705,-1.2705,-1.2705,-1.2705,-1.2705,-1.2705,-1.2705,-1.2705,-1.2705,-1.2705,-1.2705,-0.5733,-0.5733,-0.5733,-0.5733,-0.5733,-0.5733,-0.5733,-0.5733,-0.5733,-0.5733,-0.5733,-0.5733,-0.5733,-0.5908,-0.6257,-0.6697,-0.6789,-0.7146,-0.7937,-0.776,-0.776,-0.7852,-0.8208,-0.8384,-0.8384,-0.8296,-0.812,-0.7852,-0.7852,-0.7764,-0.7496,-0.7591,-0.7588,-0.7496,-0.7323,-0.7323,-0.7234,-0.7058,-0.6966,-0.6966,-0.6966,-0.6966,-0.6966,-0.7051,-0.7139,-0.7139,-0.7139,-0.7139,-0.7139,-0.7139,-0.7139,-0.7139,-0.7139,-0.7139,-0.7139,-0.7139,-0.7139,-0.7139,-0.7139,-0.7139,-0.7139,-0.7139,-0.7139,-0.7248,-0.7856,-0.7901,-0.804,-0.8561,-0.8949,-0.9231,-0.9231,-1.0014,-1.0799,-1.1241,-1.1671,-1.2186,-1.2619,-1.2619,-1.2534,-1.2448,-1.2283,-1.2118,-1.2037,-1.2123,-1.2203,-1.2032,-1.2203,-1.2283,-1.2357,-1.2363,-1.2448,-1.2705,-1.296,-1.3052,-1.3052,-1.3392,-1.3398,-1.3137,-1.3228,-1.3137,-1.3052,-1.2966,-1.2875,-1.2875,-1.279,-1.2705,-1.2705,-1.2705,-1.2705,-1.2705,-1.2705,-1.279,-1.2875,-1.2875,-1.296,-1.3045,-0.5733,-0.5733,-0.5733,-0.5733,-0.5733,-0.5733,-0.5733,-0.5733,-0.5733,-0.5733,-0.5733,-0.5733,-0.5733,-0.5733,-0.6086,-0.6874,-0.626,-0.6352,-0.7584,-0.7319,-0.7231,-0.7672,-0.812,-0.8388,-0.8388,-0.8388,-0.8384,-0.8201,-0.8116,-0.7944,-0.7944,-0.794,-0.794,-0.7856,-0.768,-0.7591,-0.7591,-0.7319,-0.7228,-0.7228,-0.7228,-0.7228,-0.7228,-0.7228,-0.7228,-0.7228,-0.7228,-0.7228,-0.7228,-0.7143,-0.7143,-0.7054,-0.6962,-0.6962,-0.6874,-0.6874,-0.6874,-0.6874,-0.6874,-0.6874,-0.6874,-0.6874,-0.6874,-0.6913,-0.7063,-0.7161,-0.7177,-0.7305,-0.7853,-0.8281,-0.8281,-0.9061,-0.9927,-1.0717,-1.0977,-1.1408,-1.2357,-1.2448,-1.2448,-1.2448,-1.2448,-1.2369,-1.2123,-1.2123,-1.2037,-1.1866,-1.1785,-1.178,-1.202,-1.1935,-1.2106,-1.2534,-1.2534,-1.2613,-1.2613,-1.3052,-1.3222,-1.3052,-1.3222,-1.3307,-1.3392,-1.3228,-1.3137,-1.3052,-1.2875,-1.2705,-1.2705,-1.279,-1.279,-1.279,-1.279,-1.2966,-1.3137,-1.3137,-1.3228,-1.3398,-0.5733,-0.5733,-0.5733,-0.5733,-0.5733,-0.5733,-0.5733,-0.5733,-0.5733,-0.5733,-0.5733,-0.5733,-0.5733,-0.5733,-0.5908,-0.6432,-0.6343,-0.652,-0.7139,-0.7139,-0.7139,-0.7231,-0.7231,-0.7319,-0.7319,-0.7676,-0.8028,-0.8201,-0.8384,-0.83,-0.7944,-0.8113,-0.8025,-0.7856,-0.7856,-0.7856,-0.7856,-0.7764,-0.7764,-0.7764,-0.7764,-0.7764,-0.7764,-0.7764,-0.7764,-0.7764,-0.7764,-0.7764,-0.7764,-0.7503,-0.7149,-0.6792,-0.6609,-0.6251,-0.5897,-0.5897,-0.5897,-0.5897,-0.5897,-0.5897,-0.5897,-0.5897,-0.5897,-0.593,-0.6056,-0.6619,-0.7146,-0.7166,-0.7241,-0.7316,-0.7316,-0.8017,-0.8715,-0.889,-0.9579,-1.0448,-1.1322,-1.1499,-1.1757,-1.2534,-1.2619,-1.2619,-1.2619,-1.2448,-1.2363,-1.2283,-1.2123,-1.1957,-1.2037,-1.1866,-1.178,-1.1871,-1.202,-1.21,-1.21,-1.2534,-1.279,-1.279,-1.279,-1.3045,-1.3398,-1.3398,-1.3228,-1.3137,-1.3052,-1.2881,-1.2705,-1.2966,-1.3052,-1.3052,-1.3222,-1.3307,-1.3392,-1.3392,-1.3398,-1.3398,-0.5733,-0.5733,-0.5733,-0.5733,-0.5733,-0.5733,-0.5733,-0.5733,-0.5733,-0.5733,-0.5733,-0.5733,-0.5733,-0.5733,-0.5908,-0.6343,-0.6169,-0.6169,-0.6697,-0.6697,-0.6697,-0.6697,-0.6962,-0.7139,-0.7139,-0.7319,-0.7496,-0.758,-0.8296,-0.848,-0.83,-0.8384,-0.8384,-0.83,-0.8116,-0.8025,-0.8028,-0.794,-0.7944,-0.7944,-0.7944,-0.7764,-0.7408,-0.7408,-0.7319,-0.7051,-0.7051,-0.7051,-0.7054,-0.6966,-0.6789,-0.6523,-0.6346,-0.608,-0.5902,-0.5719,-0.5719,-0.5719,-0.5719,-0.5719,-0.5719,-0.5719,-0.5719,-0.5733,-0.579,-0.6025,-0.6361,-0.6439,-0.6573,-0.6697,-0.6697,-0.7224,-0.7929,-0.8456,-0.889,-0.9405,-1.0361,-1.0534,-1.0885,-1.1843,-1.1929,-1.21,-1.2619,-1.2619,-1.2534,-1.2448,-1.2283,-1.2118,-1.2043,-1.1957,-1.1871,-1.1871,-1.1952,-1.2032,-1.2032,-1.2454,-1.2619,-1.2534,-1.279,-1.3052,-1.3398,-1.3307,-1.3307,-1.3398,-1.3313,-1.3222,-1.3137,-1.3222,-1.3307,-1.3307,-1.3398,-1.3483,-1.3568,-1.3737,-1.3828,-1.3828]}]]